ECMWFNIL_sfc_dewp_000.txt.gz
Dewpoint
74 74 73 73 72 71 71 71 70 70 71 69 68 69 68 69 69 68 68 68 67 67 67 67 66 65 63 65 65 65 65 64 65 64 65 64 63 62 62 62 63 62
75 75 74 73 72 72 73 71 72 71 71 71 70 69 70 69 67 68 67 67 67 66 67 66 66 66 65 64 64 64 64 65 65 64 66 66 65 64 62 63 62 63
75 75 74 73 71 72 71 72 72 72 70 71 71 71 69 69 68 68 68 67 67 66 66 66 66 66 65 65 64 64 63 65 65 63 65 65 65 64 64 60 63 63
77 75 73 72 71 71 71 71 72 73 71 71 71 70 69 68 68 68 68 67 67 67 66 66 66 65 65 65 64 63 63 63 62 63 64 65 65 64 63 63 62 61
77 76 75 73 72 72 72 72 71 72 70 71 72 72 71 70 68 68 68 67 68 67 67 66 65 64 65 65 65 64 63 62 63 64 63 63 64 63 62 63 62 61
78 77 76 75 74 74 73 73 73 73 73 72 73 72 71 70 69 66 67 67 66 66 65 65 65 64 64 65 65 65 63 61 61 63 62 63 62 61 61 61 62 62
76 77 76 75 76 76 75 74 75 74 73 73 73 71 70 70 69 68 69 68 67 67 66 66 66 65 64 64 64 64 64 64 64 64 64 63 63 63 61 61 62 62
77 77 77 77 76 76 75 75 74 73 73 73 71 71 71 70 70 69 69 68 67 67 67 66 67 66 62 63 63 63 64 63 63 64 64 63 63 63 62 61 62 62
77 77 76 76 75 75 73 72 72 72 72 70 70 70 70 70 69 69 70 70 69 69 68 67 67 65 64 62 63 64 64 63 62 63 63 62 61 62 61 62 61 61
76 76 75 73 73 72 71 71 73 70 70 70 69 70 68 69 69 69 69 69 69 69 69 68 66 65 64 63 64 65 65 64 64 64 63 62 61 62 61 61 60 61
76 74 74 73 72 71 70 68 67 69 66 66 67 68 68 70 69 69 69 70 70 69 69 68 65 65 65 64 64 65 65 63 64 64 64 63 63 63 62 62 61 60
74 73 72 71 70 69 68 66 63 65 65 67 68 68 67 69 69 69 68 68 69 69 69 68 67 66 66 65 63 64 64 64 64 64 63 63 63 63 62 62 61 61
73 73 73 71 70 70 68 65 63 64 66 68 67 66 66 67 70 69 68 69 69 69 69 68 67 66 66 67 66 65 64 65 63 63 63 63 63 62 61 60 60 59
74 75 72 70 69 71 67 66 67 66 68 69 69 67 69 69 66 64 65 67 68 68 68 67 67 66 66 67 67 66 65 64 64 63 63 62 62 62 61 59 58 57
73 72 72 71 70 69 67 65 65 65 68 69 69 67 66 65 63 67 66 67 68 68 68 67 67 66 66 67 68 67 66 65 64 63 63 63 61 58 62 62 62 60
72 71 70 69 68 68 67 66 66 64 65 68 68 66 64 64 63 63 66 67 67 67 68 67 67 66 66 64 66 68 68 67 65 64 63 62 61 61 61 62 62 61
70 70 69 69 69 70 69 67 66 65 64 67 67 66 64 63 63 62 64 66 66 67 67 67 67 67 63 62 63 64 67 67 66 65 64 64 62 64 63 62 64 64
69 69 69 69 70 70 70 68 67 67 67 68 67 65 64 63 63 64 66 66 66 66 65 64 66 63 61 61 61 61 63 67 67 66 65 64 65 64 65 66 66 65
69 68 68 69 69 69 69 69 69 68 68 67 67 67 66 65 64 65 67 67 67 66 63 63 64 63 61 60 60 60 61 62 63 65 66 66 66 67 66 66 67 66
69 68 68 68 68 68 68 69 69 68 67 66 65 67 67 66 66 67 67 68 67 66 65 65 65 62 60 59 59 59 59 61 62 62 64 65 65 66 66 66 66 67
70 69 67 67 67 67 68 68 68 68 67 66 65 65 66 66 66 67 66 67 66 64 65 66 65 60 59 59 57 57 58 61 63 64 65 67 67 67 66 65 65 65
70 69 69 68 67 67 67 67 68 68 67 67 66 64 65 64 66 65 66 66 65 64 64 66 63 60 59 58 57 56 59 64 66 67 66 66 67 67 66 66 66 65
69 68 68 67 67 67 67 66 67 67 68 68 67 64 63 63 64 63 65 65 65 66 65 65 64 62 57 56 56 57 60 66 66 64 64 64 64 65 65 65 65 65
69 68 68 68 68 68 68 68 67 68 68 68 66 64 62 62 63 64 65 66 65 64 63 63 63 62 56 55 55 56 61 65 67 67 65 64 64 66 66 65 65 63
68 68 67 68 68 68 68 67 67 67 67 67 66 66 65 66 64 63 64 65 63 62 64 61 59 60 55 54 54 55 63 67 67 65 65 63 64 64 65 64 64 62
69 69 69 68 68 68 67 66 66 66 66 66 65 65 63 63 62 63 63 62 61 61 61 60 58 62 65 54 52 53 58 66 65 64 62 62 61 63 62 63 61 62

ECMWFNIL_sfc_dewp_003.txt.gz
Dewpoint
74 74 73 72 72 72 73 71 70 71 71 69 69 70 69 71 69 67 65 66 66 66 66 67 67 66 64 65 66 65 65 65 64 63 64 63 62 61 60 60 61 62
74 74 74 73 73 73 73 72 72 71 71 70 70 71 70 69 67 67 66 66 66 66 67 66 67 67 66 65 65 64 64 64 64 62 63 64 65 65 62 63 62 63
73 74 73 72 71 72 70 71 72 71 70 69 70 69 69 68 68 67 68 66 66 65 66 66 66 66 65 65 65 64 63 65 64 61 65 65 65 64 65 60 60 61
74 74 73 72 71 71 71 71 71 71 70 69 68 68 68 67 68 67 68 67 67 66 66 66 65 65 65 65 65 65 64 64 63 65 64 65 65 65 65 64 63 62
74 73 73 72 72 72 72 70 69 69 69 70 68 70 70 70 69 68 68 67 68 66 67 65 65 65 66 65 65 65 65 62 64 66 65 63 64 64 63 64 63 62
74 74 75 73 72 72 70 69 69 71 69 67 69 70 70 69 67 67 68 66 65 65 64 64 64 63 64 65 66 66 64 62 62 64 62 63 62 61 59 61 62 62
72 73 73 72 71 71 71 70 70 71 69 72 73 72 71 70 69 69 69 68 67 67 65 66 67 66 65 66 67 67 68 66 65 64 63 63 63 63 62 63 63 62
72 72 72 73 72 72 70 69 70 71 71 74 72 72 72 69 70 67 68 69 67 68 69 68 69 68 65 65 66 66 65 64 64 65 64 63 64 64 64 62 63 63
73 72 73 72 70 69 68 70 70 72 73 72 72 72 72 71 70 69 70 70 68 69 69 67 68 67 66 65 65 65 64 63 63 64 64 63 63 63 63 63 62 63
74 73 71 69 68 70 71 70 73 72 72 72 71 72 72 73 72 71 71 70 69 68 68 68 68 67 66 66 64 63 64 64 65 65 64 63 63 63 62 62 62 62
73 72 71 70 69 69 69 71 71 69 70 69 70 70 70 72 72 72 72 71 69 69 69 70 68 68 67 64 63 63 63 63 65 65 64 63 64 64 63 63 62 61
74 71 72 71 68 67 69 71 69 69 68 68 68 67 71 72 72 71 71 71 71 71 71 70 69 68 67 65 61 62 63 64 64 64 63 64 64 64 64 65 63 63
73 73 74 72 71 71 72 72 69 68 67 66 67 68 69 70 69 70 70 70 71 70 70 70 68 66 65 64 64 64 64 65 64 63 62 63 64 62 62 62 63 64
73 74 74 74 72 74 73 71 70 70 69 69 70 70 67 67 67 68 69 68 68 68 67 66 64 63 63 64 64 64 65 65 64 63 62 63 65 65 64 62 62 61
76 75 75 75 74 74 73 71 71 72 72 73 72 70 67 66 66 66 67 66 65 64 63 63 63 63 63 62 63 64 65 64 65 65 64 64 65 64 65 65 64 63
77 76 76 75 75 75 73 72 71 72 71 72 71 69 68 67 66 66 65 64 65 65 64 62 62 63 61 60 62 64 65 66 65 66 66 65 66 65 64 64 62 62
77 76 75 75 74 74 73 73 72 72 72 72 71 70 69 69 68 68 65 64 64 65 63 64 63 61 61 61 61 64 66 67 66 66 66 66 66 66 66 64 63 63
75 75 75 74 74 73 72 72 72 72 72 71 71 70 71 70 69 69 66 63 63 63 63 64 62 60 60 61 62 62 65 67 66 65 65 66 66 64 65 65 64 63
75 74 74 74 73 73 72 71 71 71 71 70 69 70 70 70 70 68 66 64 64 65 63 62 60 60 60 61 61 61 63 66 64 65 64 65 65 66 65 66 67 68
74 74 73 73 73 72 72 71 71 71 70 70 69 70 70 69 68 68 67 66 66 66 64 62 62 60 60 60 60 61 62 64 66 66 66 65 66 66 65 66 67 66
75 74 73 73 74 73 73 72 71 70 69 69 67 68 69 69 67 67 67 67 65 65 64 62 60 59 59 59 59 59 60 62 66 66 66 67 67 67 66 65 66 65
73 73 73 74 73 73 73 72 72 72 70 69 68 66 67 67 67 65 65 66 66 65 64 64 61 58 58 58 58 58 60 64 65 67 66 66 67 66 66 67 67 67
73 73 74 73 74 73 72 72 72 72 72 71 69 66 64 64 65 63 66 66 66 66 65 65 62 61 57 57 57 57 59 65 65 66 66 66 67 67 68 68 67 66
73 72 72 72 72 72 72 72 71 71 70 70 68 66 63 62 63 64 66 66 66 65 63 63 61 62 55 55 55 56 59 65 65 64 66 64 66 67 69 69 67 66
72 72 72 72 71 71 70 70 69 69 68 68 66 66 66 65 63 64 63 65 61 63 65 63 61 63 54 55 54 54 60 65 65 64 62 66 67 67 67 66 66 65
72 73 73 72 71 71 71 70 69 68 67 67 66 65 64 63 63 64 64 63 63 64 64 63 63 66 62 54 53 54 56 67 64 67 64 64 60 59 64 64 65 64

ECMWFNIL_sfc_dewp_006.txt.gz
Dewpoint
76 76 75 75 75 74 75 75 73 73 73 73 72 72 72 73 73 71 70 70 69 69 70 71 70 71 69 71 70 70 71 68 70 68 68 70 67 65 64 66 68 70
76 76 76 75 76 76 75 74 74 73 74 74 73 74 74 72 71 70 70 70 70 69 70 69 71 70 70 68 70 69 70 71 68 66 68 68 67 69 64 68 68 69
75 76 75 74 74 74 71 73 74 74 74 73 74 73 72 71 70 71 70 69 69 68 70 69 70 70 69 69 69 68 68 69 69 65 70 68 69 67 69 63 69 68
75 76 74 73 73 74 73 74 74 74 73 73 71 71 70 69 70 69 70 71 69 69 68 68 68 67 68 68 70 69 68 68 68 68 68 72 69 68 68 69 66 66
75 75 74 74 73 74 74 73 71 72 70 71 70 71 71 71 70 68 70 69 71 69 69 68 68 67 68 68 69 70 68 68 68 69 69 68 69 68 67 67 67 66
75 76 75 74 74 74 73 72 72 71 70 70 70 70 70 71 69 69 69 68 68 66 67 67 67 66 67 68 68 68 67 66 66 68 67 67 67 67 66 67 66 65
74 75 75 74 74 74 73 72 72 72 70 70 71 70 70 70 70 70 70 69 67 67 66 67 67 66 67 68 68 68 68 68 68 68 67 67 67 66 65 67 69 70
73 74 74 74 73 73 72 72 71 72 72 71 70 71 71 69 70 69 70 69 67 68 68 67 68 68 66 68 68 68 66 66 66 68 69 69 69 68 68 67 68 68
73 74 74 74 72 72 70 70 71 72 71 70 69 70 71 71 71 69 70 69 68 68 69 68 69 68 67 67 67 68 67 65 65 66 67 66 66 67 68 68 67 66
74 73 72 71 70 70 68 68 69 69 70 70 70 70 71 72 72 70 70 70 69 69 69 68 69 68 67 67 67 68 67 67 67 67 66 66 66 65 65 66 66 67
72 72 72 71 70 69 68 67 67 67 68 71 72 71 72 73 73 70 70 70 69 70 69 69 69 69 68 67 67 67 67 66 67 67 67 67 67 67 67 67 67 65
72 71 70 71 70 69 68 67 66 67 68 70 71 71 73 73 72 70 70 70 69 69 69 69 69 69 68 67 65 65 65 65 66 66 66 67 67 66 67 67 67 67
71 71 72 71 72 71 71 69 67 66 67 70 70 71 71 73 72 71 71 69 69 68 68 68 69 69 69 68 67 65 65 65 64 65 66 66 66 65 65 65 65 66
71 73 73 73 72 72 72 70 69 69 70 72 71 70 71 73 72 71 70 70 69 69 68 69 70 69 69 68 66 65 65 65 65 65 65 65 66 66 65 62 64 64
74 74 74 74 73 72 72 71 71 72 73 73 72 70 72 72 72 72 71 70 70 70 70 70 69 68 68 67 65 65 65 64 66 66 66 66 65 64 65 66 68 67
75 75 75 75 74 72 72 73 72 72 73 73 72 71 71 72 71 71 69 69 70 70 69 69 69 68 65 61 62 64 64 65 65 66 66 66 66 66 65 67 67 65
76 76 76 75 75 74 73 73 73 73 73 72 72 72 71 71 70 69 67 67 69 68 68 68 67 65 60 59 60 62 64 65 65 66 66 67 66 66 66 66 66 65
75 76 76 76 75 75 74 74 74 74 73 73 73 73 72 70 69 69 68 67 67 67 66 65 64 61 58 58 59 60 62 66 66 66 66 66 66 66 67 66 66 65
76 76 76 76 76 75 75 75 75 74 74 74 73 73 71 70 69 67 66 66 66 65 63 63 62 59 58 58 59 59 61 65 66 66 66 66 66 66 66 67 67 67
76 77 76 76 76 77 77 76 75 74 73 73 72 72 72 71 69 68 68 68 67 66 66 64 63 58 57 57 58 59 60 63 66 67 66 66 66 66 66 66 66 66
77 78 77 77 78 77 76 75 75 74 73 73 71 71 71 71 70 71 69 67 66 66 66 66 64 57 56 56 57 58 59 62 67 66 67 68 68 66 66 65 65 65
78 78 77 77 76 76 75 75 74 74 73 73 71 70 71 70 70 69 68 67 68 67 65 67 64 56 57 57 57 57 60 65 67 68 68 68 67 66 67 69 68 67
77 77 76 76 75 75 75 74 74 74 73 73 70 69 68 68 69 67 68 67 67 68 66 66 65 58 57 56 57 57 60 66 68 67 67 66 66 67 69 68 67 67
77 76 75 75 75 75 74 74 73 74 73 73 71 68 65 66 67 68 68 67 67 66 65 66 65 60 55 56 56 56 61 66 66 66 66 66 67 68 69 69 68 69
76 75 75 75 75 74 74 74 73 73 73 73 70 70 68 68 67 66 66 67 65 66 67 65 63 61 54 55 55 55 61 66 67 66 66 66 67 67 66 65 67 69
76 76 75 75 75 75 74 74 73 73 73 72 71 70 69 67 67 65 66 66 65 67 66 64 65 64 59 54 54 54 58 67 67 67 65 65 64 65 66 66 67 67

ECMWFNIL_sfc_dewp_012.txt.gz
Dewpoint
72 72 71 71 70 70 70 71 71 71 72 72 72 72 72 72 72 72 71 71 70 69 68 67 67 67 67 66 66 65 65 63 63 64 64 63 61 62 63 64 64 62
72 72 72 71 71 71 71 71 71 71 72 72 72 72 72 72 72 71 71 70 69 68 67 66 66 66 66 65 65 64 64 63 62 65 63 63 62 63 62 63 63 63
72 72 72 71 71 71 71 71 71 71 71 71 72 72 72 72 71 71 70 70 68 67 66 65 66 66 65 65 65 64 63 64 62 64 63 63 63 62 62 62 63 64
72 72 72 72 71 71 71 71 71 71 71 71 71 71 71 72 71 70 70 71 68 67 66 65 65 65 65 65 64 63 63 63 63 64 63 64 64 62 63 64 65 65
72 72 72 72 72 71 71 71 71 71 71 70 71 71 71 71 71 70 69 69 67 66 66 65 65 65 65 64 64 63 63 63 64 64 63 63 64 64 63 65 64 62
72 72 72 72 72 72 71 71 71 71 70 70 70 71 71 71 70 70 69 68 66 65 65 64 65 64 64 64 64 63 64 63 64 64 63 63 64 65 64 64 64 63
72 72 72 73 72 72 71 71 71 71 70 70 71 71 70 70 70 70 69 68 65 65 64 64 65 65 64 64 63 63 64 63 63 64 63 63 65 65 65 64 63 63
72 72 72 73 72 72 72 71 71 70 70 70 70 70 70 70 70 69 69 67 66 65 65 64 65 65 64 64 63 63 63 64 63 63 63 63 63 65 65 65 63 63
72 72 72 72 72 72 71 71 71 71 71 70 70 70 70 69 69 69 69 67 66 65 65 65 65 64 64 64 64 63 63 63 63 63 63 62 63 63 64 64 64 64
72 72 72 72 72 72 71 71 71 71 71 70 70 70 70 69 69 68 68 67 66 65 65 65 65 64 64 64 64 64 63 63 63 63 63 63 63 63 63 63 63 63
72 72 72 72 72 72 71 71 71 71 70 70 70 70 70 69 69 68 68 67 66 65 65 65 65 64 64 64 64 64 64 64 64 63 64 63 63 63 64 63 63 62
71 72 72 72 72 72 71 71 71 71 70 70 70 70 69 69 68 68 67 67 66 65 65 65 65 65 64 64 63 63 64 64 64 64 64 64 64 63 63 64 63 63
71 71 72 72 72 72 72 71 71 70 70 70 70 69 69 69 68 68 68 67 66 65 65 65 65 65 65 64 64 64 63 63 63 63 63 64 64 64 63 64 63 63
71 71 72 72 72 72 72 71 71 71 70 70 70 69 69 69 68 68 68 67 66 65 65 65 65 65 65 65 64 64 64 63 63 63 63 63 64 64 64 64 64 63
71 71 71 72 72 72 72 71 71 71 71 70 70 69 69 69 69 68 68 67 67 66 65 65 65 65 65 64 64 64 64 63 63 63 63 63 63 63 64 64 64 64
72 72 71 71 71 71 72 71 71 71 71 70 70 69 69 69 68 68 68 67 67 66 66 66 66 65 64 60 62 64 64 64 64 64 63 63 63 63 64 64 64 64
71 71 71 71 71 71 71 71 71 71 71 70 70 69 69 69 69 68 68 67 67 66 66 66 66 65 61 60 61 63 65 64 64 64 64 63 63 63 63 64 64 64
71 71 71 71 71 71 71 71 71 71 70 70 70 69 69 69 68 69 68 68 67 67 66 66 66 62 60 60 60 61 63 65 64 63 64 63 63 63 63 63 63 63
71 71 71 71 71 71 71 71 71 71 70 69 69 69 69 69 69 69 69 68 67 67 66 67 66 62 60 59 60 60 62 64 65 63 63 63 63 63 63 63 63 63
71 71 71 71 71 71 71 71 71 70 70 69 69 69 69 69 69 69 69 69 68 67 67 66 66 61 59 59 59 59 61 63 64 63 63 63 63 63 63 63 63 63
71 71 71 71 71 71 71 71 71 70 70 69 68 68 68 68 69 69 69 69 68 68 67 66 66 59 58 58 58 58 59 62 65 66 64 63 63 63 63 63 63 64
71 70 70 71 71 71 71 71 71 71 70 69 69 69 69 69 69 69 69 69 69 68 67 67 67 57 57 57 57 57 59 65 65 64 64 63 63 63 63 64 64 64
70 70 70 70 71 71 71 71 71 71 70 70 69 70 70 69 69 69 69 69 69 68 68 67 65 58 57 56 56 56 60 65 64 64 63 62 62 63 64 64 65 65
70 70 70 70 70 70 71 71 71 71 70 70 70 70 69 69 69 69 69 69 68 68 68 67 65 57 55 55 56 56 60 64 63 62 61 62 62 64 65 65 65 68
70 70 70 70 70 71 71 71 70 71 71 71 70 70 70 69 69 68 68 68 68 68 68 66 63 57 54 55 55 55 61 64 63 62 61 62 63 64 65 65 65 67
69 70 70 70 70 71 71 71 71 71 71 71 70 70 70 69 68 68 67 67 67 67 67 66 63 59 58 54 55 55 58 64 64 62 61 62 64 64 64 63 64 65

ECMWFNIL_sfc_dewp_015.txt.gz
Dewpoint
71 71 70 70 70 70 69 70 70 70 70 71 71 71 72 72 73 73 73 73 73 72 71 70 70 69 68 66 66 66 66 65 65 65 63 64 63 63 64 63 62 63
71 71 71 71 70 71 70 70 70 70 70 71 71 72 72 72 72 73 73 73 73 72 71 70 69 68 67 66 66 65 65 65 64 65 64 62 62 62 63 63 63 62
71 71 71 71 70 70 70 70 70 70 70 71 71 72 72 73 72 72 73 72 72 71 70 69 68 68 67 66 65 65 64 64 63 64 64 62 62 61 62 62 63 63
71 71 71 71 71 70 70 70 70 70 71 71 71 72 72 72 72 72 72 73 71 70 70 69 68 67 67 66 65 64 64 64 63 63 63 63 63 62 61 62 63 63
71 71 71 71 71 71 70 70 70 70 70 71 71 72 72 72 72 72 71 72 70 70 69 68 67 66 66 66 65 64 63 63 63 63 63 62 62 63 61 63 63 63
71 71 71 71 71 71 71 70 70 70 70 70 71 72 72 72 72 71 71 71 70 69 68 67 66 66 65 65 65 64 63 63 63 63 62 62 62 63 62 63 63 62
70 71 71 71 71 71 71 71 71 70 70 71 71 71 71 71 71 71 71 70 70 69 68 66 65 65 65 65 64 63 63 63 63 63 62 62 62 63 63 63 63 62
70 71 71 71 71 71 71 71 71 71 71 71 70 71 71 71 71 71 70 70 69 68 68 66 65 65 64 64 64 63 62 63 62 63 62 62 62 62 63 64 63 62
71 71 71 71 71 71 71 71 71 71 71 71 70 70 71 71 71 70 70 70 69 68 67 66 65 65 64 64 63 63 62 62 62 62 62 62 62 62 63 63 63 63
70 71 71 71 71 71 71 71 71 71 71 71 70 70 70 70 70 70 70 69 69 68 67 66 65 65 64 63 63 63 62 62 62 62 62 62 62 62 63 63 63 63
70 71 71 71 71 71 71 71 71 71 71 70 70 70 70 70 70 70 70 69 69 68 66 66 65 65 64 63 63 63 62 62 62 62 62 62 62 62 64 63 63 63
70 70 71 71 71 71 71 71 71 71 71 71 70 70 70 70 70 70 70 69 68 68 67 66 65 65 64 64 63 63 62 62 63 63 62 62 62 62 62 63 63 63
70 70 71 71 71 71 71 71 71 71 71 70 70 70 70 69 69 69 69 69 69 68 67 66 65 65 64 64 64 63 63 63 62 63 62 62 62 62 62 63 63 63
70 71 71 71 71 72 72 72 72 71 71 71 71 70 70 69 69 69 69 69 69 68 67 67 65 65 64 64 64 63 63 63 63 63 62 62 63 63 63 62 63 63
71 71 71 72 72 72 72 72 72 71 71 71 71 70 70 70 69 69 68 68 68 68 67 67 66 65 65 64 64 63 63 63 63 63 63 62 63 63 63 64 63 63
71 71 71 72 72 72 72 72 72 71 71 71 71 70 70 70 69 69 68 68 68 67 67 67 66 66 64 60 61 64 63 63 63 63 63 63 63 63 63 64 64 63
71 71 71 71 72 72 72 72 72 71 71 71 70 70 70 70 69 69 68 68 67 67 66 66 66 65 61 60 60 61 63 63 63 63 63 63 63 64 64 63 63 63
71 71 71 71 71 71 72 72 72 71 71 71 70 70 70 69 69 69 69 68 68 67 66 66 66 62 60 59 60 60 62 65 64 63 64 64 64 64 63 63 62 63
71 71 71 71 71 71 72 72 71 71 71 71 70 70 70 69 69 69 68 68 68 67 67 66 66 62 60 59 59 59 60 63 66 65 65 65 64 64 63 63 63 63
71 71 71 71 71 71 71 71 71 71 71 71 70 70 69 69 69 68 68 68 68 68 67 67 66 61 59 58 58 59 60 64 66 66 65 65 64 64 64 63 64 63
71 71 71 71 71 71 71 71 71 71 71 71 70 70 69 69 69 68 68 68 68 68 67 67 67 61 58 57 57 57 59 63 67 66 66 65 65 64 64 64 64 64
71 71 71 71 71 71 71 71 71 71 71 71 70 70 70 70 69 69 68 68 68 68 67 67 67 60 58 57 56 56 59 66 67 67 66 65 65 65 65 64 64 63
71 71 71 71 71 71 71 71 71 71 71 71 70 70 70 69 69 69 69 68 68 68 68 67 67 62 57 56 56 55 60 66 66 67 66 65 65 65 65 64 63 63
71 71 71 71 71 71 71 71 71 71 71 70 70 69 69 69 69 69 69 69 68 68 68 68 67 62 56 55 55 55 61 66 66 66 65 65 65 65 63 63 64 66
70 71 70 70 71 71 71 71 70 70 71 70 70 70 69 69 69 69 69 69 69 69 66 67 68 62 54 55 54 55 62 66 65 65 64 64 64 63 63 63 64 67
70 70 70 70 70 70 71 71 71 71 70 70 70 70 69 69 69 68 68 69 69 69 69 68 68 64 59 54 53 55 59 66 65 64 64 63 62 61 62 63 64 64

ECMWFNIL_sfc_dewp_018.txt.gz
Dewpoint
70 70 70 70 70 70 70 70 70 70 70 70 70 71 71 72 74 74 74 74 74 74 73 73 73 73 72 70 70 69 68 68 68 68 67 67 66 65 65 65 65 66
70 70 70 70 70 70 70 70 70 70 70 71 71 71 72 73 73 73 73 74 74 74 74 73 73 72 71 70 69 68 68 68 67 67 67 66 66 66 65 66 65 66
70 70 70 70 69 70 69 70 70 70 70 71 71 72 72 73 73 73 73 74 74 73 73 73 72 72 71 70 68 68 67 67 67 66 67 66 66 65 65 64 65 65
70 70 70 70 70 70 70 70 70 71 71 71 71 71 72 73 73 73 73 74 73 73 73 72 71 71 70 69 68 67 67 67 67 67 67 66 66 65 65 65 65 65
70 70 70 70 71 71 71 70 70 70 70 71 71 72 72 73 73 73 73 73 73 73 73 72 71 70 70 69 68 67 67 66 66 66 66 66 66 65 64 65 65 65
71 71 71 71 71 71 71 71 70 70 70 70 71 72 72 73 73 72 73 73 73 72 72 72 71 69 69 69 68 67 67 66 66 66 65 65 65 65 64 64 64 64
70 71 71 71 71 71 71 71 71 71 70 71 71 71 72 72 72 72 72 72 72 72 72 71 70 69 69 68 68 67 67 66 66 65 65 65 65 65 65 65 65 64
70 70 71 71 71 71 71 71 71 71 71 71 71 71 72 72 72 72 72 72 72 72 72 71 70 70 68 68 68 67 66 66 65 65 64 64 64 64 65 65 65 65
70 70 71 71 71 71 70 70 71 71 71 71 71 71 72 72 72 72 72 72 72 72 71 71 70 69 68 68 68 67 66 65 65 65 64 64 63 63 64 65 65 65
70 70 70 70 70 70 70 70 70 71 71 71 71 71 71 72 72 72 72 72 71 71 71 71 70 69 68 68 67 67 67 66 65 65 64 64 63 63 64 65 64 64
69 69 70 70 70 70 70 70 70 70 71 71 71 71 71 71 72 72 72 72 71 71 71 70 70 69 68 67 67 67 66 66 65 65 64 64 64 64 64 64 64 63
69 69 69 70 70 70 70 70 70 71 71 71 71 70 71 71 71 71 71 71 71 71 71 70 70 69 68 67 66 66 66 65 65 65 64 64 64 63 64 64 64 64
69 69 70 70 70 71 71 71 71 71 70 70 71 71 70 70 71 71 71 71 71 71 70 70 70 69 68 68 67 66 65 65 64 64 64 64 64 64 63 64 64 64
69 70 70 71 71 71 71 71 71 71 71 71 71 71 70 70 70 71 71 71 71 71 71 70 70 69 68 68 67 66 65 65 64 64 64 64 64 64 64 63 63 63
70 70 71 71 71 71 71 71 71 72 72 72 71 71 71 71 71 70 70 70 70 70 70 70 69 68 68 67 67 66 66 65 64 64 64 64 64 64 64 64 64 64
70 70 71 71 71 71 71 71 71 72 72 72 71 71 71 71 71 71 70 70 70 70 70 69 69 68 65 61 62 66 66 65 64 64 64 64 64 64 64 64 64 64
70 70 71 71 71 71 71 72 72 72 72 72 71 71 71 71 71 70 70 70 70 70 69 69 69 68 61 60 61 62 65 65 65 65 65 64 64 64 64 64 64 64
70 70 71 71 71 71 71 72 72 72 72 72 71 71 71 71 71 70 70 70 70 69 69 69 69 63 60 60 60 60 62 66 65 65 65 65 65 65 64 64 64 64
70 70 71 71 71 71 72 72 72 72 72 71 71 71 71 71 71 70 70 70 70 69 69 69 69 63 60 59 59 59 61 63 66 66 66 66 65 65 65 64 64 64
70 70 70 71 71 71 72 72 72 71 71 72 71 72 71 71 71 71 70 70 70 69 69 69 69 63 59 58 58 58 60 62 66 66 66 65 65 65 64 64 64 64
71 71 71 71 71 71 72 71 71 72 72 72 71 71 71 71 71 70 70 70 70 70 69 69 68 62 58 57 57 57 59 61 67 66 66 66 65 65 65 64 64 64
71 71 71 71 71 71 71 71 71 72 71 72 71 71 71 71 71 71 70 70 70 70 69 69 68 59 57 56 56 57 58 64 67 67 66 66 65 65 65 65 65 65
71 71 71 71 71 71 71 71 71 71 72 72 71 71 71 71 71 70 71 70 70 70 69 69 69 61 56 55 55 56 58 66 67 67 67 66 66 66 65 65 65 65
71 71 71 71 71 71 71 71 71 72 72 72 71 71 70 70 71 71 71 70 70 70 69 69 69 61 54 54 54 55 60 66 67 66 66 66 66 66 66 66 66 67
71 71 71 71 71 71 71 71 71 71 72 72 71 71 71 71 71 70 70 70 69 69 66 68 69 60 54 54 54 55 61 67 67 67 66 66 66 66 66 66 66 67
71 71 71 71 71 71 71 71 71 71 71 71 71 71 71 71 71 70 70 70 70 69 69 68 69 63 58 53 53 54 58 67 67 66 65 65 65 65 65 65 65 65

ECMWFNIL_sfc_dewp_021.txt.gz
Dewpoint
73 73 73 72 72 72 73 73 72 73 73 73 72 73 74 75 76 76 76 76 77 77 77 77 77 77 76 76 76 75 75 74 74 73 73 71 70 69 68 68 69 68
73 73 73 73 73 73 73 73 73 73 74 74 73 74 75 76 75 76 76 76 77 76 77 76 77 77 76 76 76 75 74 74 74 73 72 72 71 70 68 70 69 69
73 73 73 72 72 72 71 73 73 73 73 73 74 74 74 75 75 76 76 76 76 75 76 76 76 77 76 76 76 75 74 74 74 71 72 72 71 70 70 67 68 69
73 73 72 72 72 72 72 73 73 73 73 73 73 73 73 74 74 75 75 76 76 76 76 76 76 76 76 76 75 74 74 74 73 73 72 72 72 71 70 70 68 68
72 72 72 72 72 73 73 73 72 72 72 72 73 74 74 75 75 74 75 75 76 76 76 76 76 76 76 76 75 74 74 73 73 73 72 71 72 71 70 70 69 68
73 73 73 73 73 73 72 72 72 72 72 71 73 73 73 74 74 74 74 74 74 74 74 75 75 75 75 75 75 74 73 72 72 72 71 71 70 70 68 69 69 68
72 72 72 72 72 73 73 72 73 73 72 72 73 73 73 73 74 74 75 74 74 74 74 75 76 75 75 75 74 74 73 73 72 72 71 71 71 70 69 69 69 68
71 71 71 72 71 72 72 72 72 73 73 73 73 74 74 73 74 74 74 74 74 75 75 75 76 76 74 74 74 74 73 72 72 71 71 70 70 70 70 68 69 69
71 71 72 72 71 71 70 70 72 73 73 73 72 72 74 73 74 74 75 75 75 75 76 76 76 75 75 74 74 74 73 72 71 71 70 70 69 70 69 69 68 68
71 71 70 70 70 70 70 70 70 71 73 72 72 71 72 74 74 74 75 75 75 75 76 75 75 75 75 74 74 74 73 72 72 71 70 70 69 69 69 69 68 68
70 70 70 70 70 69 69 69 69 70 71 71 71 71 72 73 74 75 75 75 74 75 75 75 75 75 75 73 73 73 73 72 72 71 71 70 70 70 69 69 68 68
70 70 69 70 69 70 69 70 69 70 70 71 71 71 72 73 74 74 74 75 75 75 75 75 75 75 75 74 72 72 72 72 72 71 70 70 70 69 69 69 68 68
69 70 71 70 71 71 71 71 70 70 70 71 71 71 71 72 73 74 74 74 75 75 74 75 75 75 75 74 73 73 73 72 71 71 70 70 70 69 68 68 68 68
70 71 72 72 72 73 72 72 71 72 72 72 72 72 71 72 72 73 74 74 74 74 75 75 75 74 75 74 74 73 72 72 71 71 70 70 70 69 68 67 67 67
72 72 73 73 73 73 73 73 73 73 73 73 73 73 72 72 72 73 73 73 74 74 74 74 74 74 74 74 73 73 72 72 71 71 70 70 69 68 68 68 68 67
73 73 74 74 73 74 74 74 73 74 73 74 74 73 73 73 73 73 72 73 73 73 73 73 73 73 69 64 66 72 72 71 71 71 71 70 70 69 68 68 67 66
73 73 73 73 73 74 74 74 74 74 74 74 74 74 73 74 74 73 72 72 72 72 72 72 72 72 64 62 63 64 70 72 71 71 70 70 69 69 69 68 67 67
72 73 73 73 74 74 74 74 74 74 74 74 74 73 74 74 73 73 73 72 72 72 72 72 71 66 62 62 62 62 64 71 71 70 70 69 69 69 69 68 68 67
73 73 73 73 74 74 74 74 74 74 74 73 73 74 73 73 74 73 73 73 72 72 71 71 71 64 61 60 61 61 62 66 71 71 70 69 69 69 69 69 69 67
73 73 73 73 74 74 74 74 74 73 73 73 73 73 73 73 73 73 73 73 72 72 71 71 71 63 60 59 60 60 61 63 71 71 70 69 69 69 69 69 69 68
73 73 73 73 74 74 74 74 73 74 73 73 72 72 73 73 72 73 72 72 72 71 71 71 70 60 59 59 59 58 59 61 71 71 71 70 70 69 69 69 69 68
72 73 73 73 73 73 73 73 73 74 74 74 73 72 72 72 72 72 72 72 72 72 71 71 70 59 59 58 58 57 58 65 70 71 71 70 70 70 70 70 69 69
72 72 73 73 73 73 73 73 73 74 74 74 73 73 72 71 71 71 72 72 72 72 71 71 70 63 58 57 57 56 59 67 69 70 71 70 70 71 70 70 70 69
72 73 73 73 73 73 73 73 73 73 73 74 73 72 71 71 71 71 72 72 71 71 70 70 70 64 56 56 55 55 60 68 69 70 70 71 71 71 71 71 70 67
73 73 73 73 73 73 73 73 73 73 73 73 72 72 72 72 72 72 71 72 71 71 67 70 70 64 55 55 55 54 61 69 69 70 70 70 70 71 70 70 70 66
72 73 73 73 73 73 73 73 73 73 73 73 72 72 72 71 71 71 71 71 71 71 71 70 70 70 61 55 54 54 57 69 71 70 69 70 70 69 69 69 69 69

ECMWFNIL_sfc_dewp_024.txt.gz
Dewpoint
75 76 75 75 75 74 74 74 73 74 74 72 72 73 73 74 75 74 75 76 76 76 76 76 76 76 75 75 76 76 74 74 73 72 73 72 71 70 68 67 67 66
75 75 75 75 75 75 75 74 75 74 74 74 73 73 74 75 75 75 75 75 76 76 76 75 76 76 76 74 75 75 74 74 74 73 73 72 72 71 68 68 67 68
74 74 74 74 74 74 73 74 75 75 74 74 74 74 73 74 75 76 76 76 75 74 75 76 76 76 76 75 76 75 74 75 74 71 73 73 72 71 70 66 67 68
75 75 74 74 74 74 74 74 75 75 74 74 74 73 73 73 75 75 76 76 75 75 75 75 75 74 75 75 76 75 74 75 74 74 73 73 73 72 70 69 67 67
74 74 74 75 74 75 75 74 73 74 74 73 73 74 74 75 75 75 75 76 76 75 75 75 75 75 75 76 76 75 74 74 74 75 73 73 73 72 70 69 68 67
75 75 76 75 75 75 74 74 74 73 74 72 73 74 74 75 75 74 74 75 75 74 73 74 75 74 74 75 76 75 74 73 73 75 74 73 72 72 70 69 70 68
74 75 75 75 74 74 75 74 74 74 73 74 74 74 74 74 75 75 75 75 74 75 73 74 75 75 75 75 76 75 75 75 74 74 74 73 73 72 70 69 71 69
73 73 74 74 74 74 74 74 74 74 74 74 73 74 74 73 75 75 75 75 74 75 75 75 76 76 74 75 76 75 75 75 74 74 74 74 72 73 72 70 71 70
73 73 74 74 73 73 71 71 72 74 74 74 73 72 74 74 74 75 76 76 75 75 76 75 76 77 76 75 75 76 76 74 73 74 74 73 72 72 72 71 70 70
73 73 72 71 71 71 71 71 71 72 73 73 72 71 72 75 74 75 76 76 75 76 76 76 76 76 76 76 76 76 76 75 75 74 75 74 73 73 72 71 70 70
71 71 71 71 71 70 70 70 70 70 72 72 72 72 72 74 75 75 76 76 75 76 76 76 76 77 77 75 75 76 76 74 74 75 75 75 74 73 72 72 71 70
71 70 70 70 70 70 69 69 69 69 70 71 72 72 73 72 74 75 75 76 76 76 76 76 77 77 77 76 74 74 75 74 74 75 74 75 74 73 73 72 71 71
70 71 71 70 71 71 71 70 69 68 69 70 71 72 72 72 73 75 75 75 76 76 76 76 76 76 77 77 76 75 75 75 73 74 74 74 74 73 72 72 71 71
70 72 72 72 72 73 72 71 70 70 71 71 72 72 71 72 72 74 75 75 75 76 76 76 76 76 77 77 77 75 75 75 74 74 74 74 74 73 71 71 71 70
72 73 73 73 72 73 73 72 72 73 72 72 73 73 73 72 72 73 74 75 75 76 76 75 75 75 76 76 76 76 75 74 75 74 74 74 74 73 72 71 71 71
73 74 74 74 74 74 74 74 73 73 73 73 73 73 74 74 74 73 73 74 74 75 75 75 75 75 71 66 68 75 75 74 74 75 74 74 74 73 72 72 71 70
74 74 74 74 75 75 75 75 74 74 74 74 74 74 75 75 74 73 72 73 74 74 74 74 74 73 65 64 65 66 73 75 74 75 75 74 74 74 73 72 72 71
74 75 75 75 75 75 75 75 75 74 75 75 74 74 75 75 74 74 74 73 74 74 73 74 74 66 63 63 64 64 66 75 74 74 74 74 74 74 73 72 72 71
75 75 75 75 76 75 76 76 76 75 75 74 74 75 75 75 75 74 74 74 74 74 73 73 72 65 63 62 63 63 64 68 74 75 74 74 74 74 74 73 73 72
76 75 75 76 76 76 76 76 76 75 75 75 74 75 75 75 74 74 74 74 74 73 74 74 73 65 61 61 61 62 62 65 74 74 74 74 74 74 73 73 73 73
76 75 75 76 76 76 76 76 75 75 75 75 73 74 74 74 73 74 74 73 72 72 72 71 71 64 60 59 60 60 61 62 73 73 74 74 74 74 74 73 73 73
74 75 75 75 75 76 75 75 75 75 75 75 74 73 73 73 73 72 72 73 73 72 72 72 71 62 59 58 59 59 60 68 72 73 74 74 74 74 74 74 73 74
74 75 74 74 75 75 75 75 75 75 75 75 75 74 72 72 72 70 72 71 71 72 72 72 70 66 58 57 58 58 61 70 72 72 73 74 74 74 74 73 73 74
74 74 74 74 75 75 75 75 74 75 75 75 74 73 71 71 72 72 72 71 71 71 71 71 71 66 56 56 57 57 62 71 72 72 72 73 73 73 72 72 72 69
73 74 74 74 74 74 74 74 74 74 74 75 73 73 73 73 73 72 72 72 70 69 66 69 70 65 56 56 56 56 63 72 72 71 71 72 73 72 72 72 72 69
73 74 75 74 75 75 75 74 74 74 74 73 73 73 73 72 71 71 71 70 70 70 71 70 70 72 65 55 56 55 58 71 72 71 71 72 72 71 71 72 72 72

ECMWFNIL_sfc_dewp_027.txt.gz
Dewpoint
74 74 73 72 72 73 73 73 73 74 75 72 71 73 73 73 73 72 72 73 74 75 74 75 75 76 75 76 76 75 74 74 73 73 73 72 70 68 67 67 67 65
75 75 75 74 74 74 74 73 74 74 75 74 72 71 73 74 72 72 72 73 74 75 76 74 75 76 76 74 75 74 74 74 74 72 73 72 71 69 67 69 67 66
75 75 74 74 73 73 72 73 74 74 73 74 73 72 71 73 73 74 73 73 74 74 76 75 75 76 75 75 75 74 73 74 74 71 73 72 70 70 70 67 67 66
75 76 74 73 73 73 73 73 73 74 74 73 74 72 70 71 74 74 75 75 74 75 75 75 74 74 75 75 75 74 74 74 74 74 73 73 72 70 70 70 68 67
75 75 75 74 74 75 75 73 72 73 74 73 73 74 73 73 74 74 75 74 75 75 75 74 74 73 75 75 75 74 74 73 74 74 73 73 73 71 70 70 70 68
75 75 76 75 75 75 73 73 74 73 74 72 73 73 73 73 73 73 74 74 74 73 72 72 73 73 73 75 75 75 74 72 72 74 74 73 72 70 69 70 70 69
73 75 74 74 75 74 74 75 75 75 73 74 74 73 73 73 74 74 75 75 74 75 72 73 75 74 74 75 75 75 75 74 73 74 74 73 73 71 69 70 71 70
73 74 74 75 74 74 75 74 74 74 75 75 73 73 73 73 74 74 74 74 74 75 75 73 75 75 73 73 75 75 75 74 73 73 75 74 73 73 71 70 70 71
73 74 75 74 73 72 72 72 73 75 75 74 73 71 74 73 74 74 75 75 75 75 76 74 75 75 75 74 74 75 75 74 74 73 74 74 72 72 71 71 70 71
74 73 72 72 71 71 71 71 72 73 74 73 72 71 72 75 74 75 76 76 75 75 76 75 75 75 75 74 74 75 75 75 75 74 73 73 72 72 71 71 70 71
72 72 72 72 71 70 71 70 70 70 72 73 72 71 70 73 75 75 76 77 75 75 75 76 75 75 76 75 74 74 75 75 75 75 74 73 73 73 72 72 71 71
72 71 70 71 71 70 70 70 69 68 70 72 72 71 71 70 74 75 75 76 77 76 76 76 76 76 76 76 74 73 74 75 75 74 74 74 74 73 72 72 72 72
71 71 72 71 72 71 71 70 68 67 67 69 71 71 70 70 71 75 75 76 77 76 75 76 76 76 76 77 76 75 75 75 74 74 74 74 74 73 72 72 72 72
71 73 73 73 73 74 73 71 70 69 69 69 72 72 71 71 70 73 75 75 76 76 76 76 76 76 77 77 77 75 74 75 75 74 73 73 74 73 72 72 72 72
74 73 74 74 74 75 74 73 73 73 73 72 74 73 73 72 71 71 74 75 75 76 76 76 76 76 75 76 76 76 75 74 75 74 73 73 73 73 73 72 72 72
76 76 75 75 75 76 76 75 73 73 73 74 74 73 74 74 74 73 72 74 75 75 76 76 75 75 72 67 69 76 76 74 74 75 74 73 74 73 72 72 71 70
76 75 76 76 76 75 76 76 75 73 74 75 74 74 75 76 74 72 71 73 74 74 75 75 75 74 67 65 66 68 74 75 74 75 75 74 73 74 74 72 72 71
75 76 76 76 76 76 76 76 76 75 75 75 73 73 75 73 73 74 74 72 73 73 73 74 75 68 64 64 65 65 68 76 75 74 74 74 73 73 73 73 72 71
76 76 76 76 77 76 76 76 76 75 74 73 73 74 73 75 75 74 74 73 73 74 73 73 74 67 63 63 64 64 65 70 74 75 74 74 74 73 74 74 73 72
76 76 76 77 77 77 76 76 76 75 74 74 74 74 74 74 74 75 75 75 74 74 75 74 74 66 62 62 62 63 64 68 75 75 75 74 74 74 73 73 74 73
76 76 77 77 77 77 77 76 76 76 75 74 73 73 74 74 74 75 75 75 74 73 74 73 72 65 61 61 61 61 63 65 75 75 75 75 75 75 75 74 74 73
75 77 77 77 77 77 77 76 76 77 76 75 74 73 74 74 74 74 74 75 75 75 73 72 71 63 60 60 60 60 62 70 75 75 74 74 75 75 75 75 74 74
75 76 76 77 77 77 77 76 76 77 77 76 74 73 73 73 73 73 74 73 74 74 72 72 71 66 58 58 58 59 62 72 75 75 75 74 75 75 75 75 75 75
76 76 77 76 77 76 77 76 75 76 76 76 74 73 72 72 73 73 73 73 72 72 72 72 71 68 57 57 57 57 63 73 74 74 74 75 75 75 75 75 74 70
75 76 76 76 77 77 76 76 75 76 76 76 74 74 73 73 73 73 72 73 72 72 68 70 71 68 56 56 56 56 63 74 74 74 74 74 74 74 75 74 75 71
75 77 77 77 77 77 77 76 76 75 75 74 74 74 73 72 72 72 72 72 72 71 71 71 71 73 67 55 55 55 58 73 75 74 73 73 74 73 73 73 73 73

ECMWFNIL_sfc_dewp_030.txt.gz
Dewpoint
75 75 75 75 74 73 72 73 74 74 75 73 74 74 74 75 75 74 74 75 76 75 76 77 77 78 77 77 78 77 77 75 74 75 75 74 74 72 69 67 69 69
75 75 75 75 75 74 74 73 74 75 76 76 75 75 76 76 75 74 74 74 75 75 76 76 77 77 77 76 77 77 77 76 75 74 75 74 74 72 70 69 68 69
74 75 75 74 73 73 70 73 74 75 75 75 75 76 75 75 75 75 75 74 74 74 76 76 76 77 76 77 77 76 76 76 75 72 75 75 73 72 71 67 69 69
74 74 73 72 72 72 72 72 73 74 74 75 75 74 74 73 74 74 74 76 75 75 75 76 75 75 76 77 77 76 76 76 75 75 75 75 74 72 71 71 69 69
74 74 74 73 73 73 73 72 71 73 73 73 75 75 74 75 75 74 74 75 76 75 76 76 76 75 77 77 76 76 75 76 75 76 75 75 75 73 71 71 71 69
75 75 74 74 74 74 73 72 72 72 72 71 74 74 74 73 75 74 74 73 74 74 74 75 76 75 76 76 76 75 74 74 74 76 75 74 73 72 71 71 72 71
74 75 74 74 73 74 74 73 73 73 73 73 74 74 74 73 73 74 75 75 73 73 73 75 76 75 75 76 76 76 75 75 75 75 75 74 74 73 71 72 72 71
73 73 74 73 72 73 73 73 73 73 73 74 73 74 75 73 73 72 75 75 74 74 74 75 76 76 75 75 76 76 75 75 74 75 75 75 74 74 73 71 72 72
74 74 74 73 71 71 71 70 72 74 74 74 73 73 75 74 74 72 74 76 75 75 76 75 76 75 75 75 75 76 75 74 74 74 75 74 74 74 73 72 72 72
74 74 73 71 71 72 71 70 71 72 73 73 73 72 73 74 75 74 74 75 75 76 76 75 75 75 75 74 75 75 75 75 75 74 74 74 74 74 73 72 71 72
72 72 73 73 72 71 71 70 70 70 72 72 71 72 73 74 74 75 76 75 75 76 76 76 75 75 75 74 74 75 75 75 75 75 74 74 74 74 74 73 72 71
72 71 71 72 71 70 70 70 70 70 72 73 72 72 73 73 74 74 75 76 75 75 76 76 76 75 75 75 73 74 75 75 75 75 74 74 74 75 74 73 72 71
72 71 71 71 71 70 71 70 70 70 70 71 72 72 72 71 73 74 75 76 76 75 75 76 76 75 76 76 75 75 75 75 75 75 74 74 74 74 74 73 73 72
71 73 72 73 72 73 72 71 70 71 70 72 74 73 72 71 72 74 74 75 76 76 76 76 76 76 76 76 76 75 75 75 75 75 74 74 74 74 73 72 72 72
73 74 73 73 73 73 73 72 72 72 72 73 74 74 72 72 71 73 74 74 75 76 76 75 75 75 75 75 76 76 75 74 75 75 74 74 74 73 73 73 73 72
74 74 74 74 73 74 74 73 72 73 73 73 73 74 74 74 73 72 73 74 74 75 76 76 75 75 71 67 69 75 75 74 74 75 75 74 74 74 73 74 73 72
75 75 75 74 74 74 75 74 74 73 74 73 73 74 74 75 74 72 70 72 73 74 75 75 75 74 67 65 66 68 73 74 74 75 75 74 74 74 74 74 73 73
75 75 75 75 75 75 75 75 74 74 74 74 73 72 74 74 74 74 73 72 74 74 74 75 75 69 65 64 65 65 68 74 73 74 75 75 74 74 74 73 73 73
76 76 76 76 76 75 75 75 75 74 74 73 72 73 73 75 75 74 74 73 73 74 74 74 75 68 64 63 64 64 65 70 74 74 74 74 74 74 73 74 73 73
76 76 76 76 76 76 75 75 75 75 74 73 73 73 74 74 74 74 74 74 73 74 75 74 74 68 63 62 62 63 64 67 74 75 74 73 74 74 73 73 74 73
77 76 76 76 77 77 76 75 75 76 75 74 72 72 73 74 74 74 74 74 73 73 74 74 73 66 62 61 61 61 63 65 74 75 75 74 74 75 74 73 73 74
76 77 77 77 77 77 76 76 76 76 76 75 73 71 72 73 74 73 74 74 74 74 73 73 73 64 61 60 60 60 62 69 74 74 74 74 74 74 75 75 74 74
76 76 77 77 77 77 77 76 76 77 77 76 74 73 73 72 73 72 73 73 74 75 74 73 72 67 60 59 59 59 62 71 74 74 74 74 74 74 75 75 75 74
76 77 77 77 77 77 77 77 76 76 76 76 74 72 71 71 72 72 72 72 73 74 74 73 73 69 58 57 58 58 63 72 73 74 74 74 74 74 75 75 75 70
76 77 77 77 78 78 78 77 76 76 76 77 74 73 72 73 73 73 73 73 72 73 70 73 73 69 59 57 56 57 62 73 74 74 74 74 74 74 74 74 75 71
75 77 78 78 78 78 78 77 77 76 76 75 75 73 72 71 72 73 73 73 73 73 73 73 73 74 70 56 56 56 58 72 74 74 73 74 74 74 74 74 74 74

ECMWFNIL_sfc_dewp_033.txt.gz
Dewpoint
72 72 72 71 71 71 72 71 71 71 72 72 72 72 73 73 73 72 73 73 74 74 75 75 75 76 75 75 76 74 74 73 73 73 73 73 72 71 71 68 67 66
72 72 73 72 72 72 72 72 72 71 71 72 73 72 73 74 74 73 72 74 74 74 75 75 75 75 75 75 76 74 73 73 72 74 73 73 72 71 71 68 66 67
72 72 72 72 71 72 71 72 73 72 71 71 73 73 73 74 74 73 72 73 74 74 74 75 75 75 76 75 76 75 74 73 72 73 73 73 73 71 71 70 66 67
72 72 72 72 72 72 71 71 72 73 73 72 72 74 73 73 74 73 72 74 73 74 74 74 74 74 75 75 75 75 74 74 73 73 73 73 73 72 71 71 68 67
72 72 72 72 72 72 71 70 70 72 73 73 73 73 74 73 73 73 73 72 73 73 73 74 74 74 74 74 75 74 74 74 74 73 73 73 73 72 71 71 69 67
72 72 72 72 72 72 71 70 70 70 72 73 73 73 74 74 73 73 73 72 72 73 73 73 73 74 74 74 75 74 74 74 74 74 73 72 72 72 72 71 70 69
72 72 72 72 72 72 71 71 70 70 70 71 74 73 73 73 73 73 72 72 73 73 73 73 74 73 74 74 74 74 74 74 74 73 73 73 73 72 72 71 70 70
72 72 72 72 72 71 71 71 70 70 70 71 71 73 73 72 72 73 73 72 72 73 73 73 74 74 74 74 74 74 74 74 74 74 73 73 73 72 72 71 70 69
72 72 72 72 71 71 71 71 70 70 70 70 70 72 73 73 72 72 74 73 72 72 73 73 74 74 74 74 74 74 73 73 73 73 73 73 73 72 72 71 70 70
72 72 71 71 71 71 70 70 70 70 70 70 70 71 72 73 72 71 72 74 72 72 72 73 74 74 74 74 74 74 74 73 73 73 73 73 73 72 72 71 70 70
72 72 71 71 71 70 70 70 70 70 70 70 70 70 71 73 73 72 71 73 74 72 72 72 73 74 74 73 74 74 74 73 73 73 73 73 73 73 73 72 71 70
72 72 71 71 71 70 70 70 70 70 70 70 70 71 71 72 73 73 71 71 73 73 73 72 72 73 74 73 73 74 74 74 73 73 73 73 73 73 73 72 72 71
71 71 71 71 71 70 69 69 69 69 70 70 71 70 71 71 72 72 72 71 71 73 74 73 73 73 74 74 73 73 74 74 73 73 73 73 73 73 73 73 72 72
71 71 71 71 71 70 70 69 69 69 69 70 71 70 70 71 72 72 72 72 71 72 73 74 74 73 73 74 73 73 73 73 73 73 73 73 73 73 73 73 73 72
71 71 71 71 71 71 70 70 70 70 70 70 71 71 71 70 71 72 72 72 72 72 72 73 74 74 74 73 73 73 73 73 73 73 73 73 73 72 73 73 73 73
71 71 71 71 71 71 71 70 70 70 70 70 71 71 71 71 71 72 72 72 72 73 72 72 73 74 71 66 68 73 72 73 73 73 73 73 72 72 72 73 73 73
71 71 71 71 71 72 71 71 70 70 70 70 71 72 72 72 71 71 71 72 72 72 73 73 73 72 67 65 65 66 71 72 72 73 73 73 72 72 72 72 72 73
72 72 71 71 71 71 71 71 70 70 70 70 70 71 72 72 72 71 71 71 72 72 72 73 73 68 65 64 64 64 66 73 72 73 73 73 73 72 72 72 72 72
72 72 72 72 71 71 71 71 71 70 70 70 70 71 72 72 72 71 71 71 72 71 71 72 73 67 64 63 63 63 64 68 72 73 72 73 73 73 72 72 72 72
73 72 72 72 72 71 71 71 71 70 70 70 70 70 71 72 72 72 71 71 71 72 72 72 72 67 63 62 62 62 63 65 72 72 72 72 73 73 73 73 72 72
73 72 72 72 72 72 71 71 71 71 70 70 70 70 70 71 72 72 71 71 70 71 72 72 72 66 63 61 60 61 62 63 71 72 72 72 72 72 73 73 72 73
73 73 72 72 73 72 72 71 71 71 71 71 70 70 70 70 71 71 71 71 71 71 70 71 72 64 62 61 60 60 61 67 71 72 72 71 71 72 72 73 73 72
73 73 73 73 73 73 72 72 72 72 72 72 71 70 70 70 70 70 71 71 71 71 71 70 71 66 61 60 59 59 61 69 71 71 72 72 72 72 72 72 73 73
73 73 73 73 73 73 73 73 72 72 72 73 71 70 69 69 70 70 70 71 71 72 71 71 70 67 59 58 58 58 62 70 71 72 72 72 72 72 72 72 72 70
74 74 73 73 73 73 73 73 73 73 73 73 73 72 71 70 70 70 70 70 71 71 69 71 71 68 59 57 56 57 62 70 72 72 72 72 73 72 72 73 72 71
74 74 74 74 74 74 74 74 74 74 74 74 73 73 72 71 71 71 70 70 71 71 71 72 72 72 69 55 55 55 58 70 72 72 72 72 73 73 73 72 72 72

ECMWFNIL_sfc_dewp_036.txt.gz
Dewpoint
69 70 70 70 69 70 69 68 69 69 68 69 70 71 71 72 73 73 73 74 75 75 75 75 75 75 75 75 75 74 74 73 72 72 72 72 71 70 70 68 66 66
69 70 70 70 70 70 70 69 69 69 70 70 70 71 72 72 73 73 73 73 74 75 75 75 75 75 75 74 74 74 74 73 72 72 72 72 71 70 70 70 67 66
69 69 70 70 70 69 70 70 70 69 70 71 71 72 72 73 73 73 72 72 73 74 74 75 75 75 75 74 74 74 73 73 73 72 72 72 72 71 70 70 69 66
70 70 70 70 70 70 70 70 70 70 70 71 72 72 72 73 73 72 72 74 73 73 74 74 75 75 75 75 74 74 74 73 73 73 72 72 72 71 71 70 70 67
70 70 70 70 70 70 70 70 70 70 70 70 71 72 73 73 73 73 72 72 73 73 73 74 74 74 74 75 74 74 74 73 73 73 72 72 72 72 71 71 70 69
70 71 71 71 71 71 70 70 71 71 70 70 70 72 73 73 73 73 72 72 72 73 73 73 73 74 74 74 74 74 74 74 73 72 72 72 71 72 72 71 70 69
70 71 71 71 71 71 71 70 71 71 71 70 71 71 72 73 73 73 73 72 72 73 73 73 73 73 74 74 74 74 74 74 73 73 72 72 72 72 72 71 71 70
70 71 71 71 71 71 71 71 71 71 72 72 71 71 71 72 72 73 73 72 72 72 72 73 73 73 73 73 73 73 73 74 73 73 72 72 72 71 72 72 71 70
70 70 71 71 71 71 71 71 71 70 71 72 72 72 72 72 72 72 72 72 72 72 72 72 73 73 73 73 73 73 73 73 73 73 73 72 72 72 72 72 71 71
71 71 71 71 71 71 71 71 71 70 70 70 71 72 72 72 72 73 72 72 72 72 72 72 72 72 72 73 73 73 73 73 73 73 73 73 72 72 72 72 71 71
70 71 71 71 71 71 71 71 71 70 70 70 70 70 72 73 73 73 73 73 72 72 72 72 72 72 72 72 73 73 73 73 73 73 73 73 73 72 73 72 71 71
70 70 70 71 71 71 71 71 70 70 70 70 70 69 70 72 72 72 72 73 73 72 72 72 72 72 72 72 72 73 73 73 73 73 73 73 73 73 72 72 72 71
70 70 70 70 71 71 71 71 70 70 70 69 70 69 69 69 71 72 72 72 72 73 72 72 72 72 72 73 73 73 73 73 73 73 72 72 73 73 73 72 72 72
70 71 71 71 71 71 71 70 70 70 70 70 70 69 69 69 69 71 72 72 71 72 72 72 72 72 72 73 73 73 73 73 73 73 72 72 72 72 72 72 72 72
71 71 71 71 71 71 71 70 70 70 70 70 70 70 70 69 69 70 71 72 72 71 71 72 72 72 72 72 73 73 73 73 73 73 73 72 72 72 72 72 72 72
71 71 71 71 71 71 71 71 70 70 70 70 70 70 70 70 69 70 70 71 71 71 71 71 72 73 70 65 67 72 73 73 73 73 73 73 72 72 72 72 72 72
71 71 71 71 71 71 71 71 71 70 70 70 70 70 70 70 70 69 70 70 71 71 71 71 71 71 66 64 64 65 71 73 72 72 73 73 72 72 72 72 72 72
71 71 71 71 71 71 71 71 71 70 70 69 69 69 70 70 70 69 70 70 71 71 71 71 71 66 64 63 63 63 65 72 72 72 72 72 72 72 72 72 72 72
72 71 71 71 71 71 71 71 71 70 69 69 69 69 69 70 70 70 69 70 70 71 71 71 71 66 63 62 63 63 63 66 72 72 72 72 72 72 72 72 72 72
72 72 71 71 71 71 71 71 71 70 70 69 69 69 69 69 70 70 70 70 70 70 71 71 71 66 62 61 61 62 62 64 71 72 72 72 72 72 72 72 72 72
72 72 72 71 71 71 71 71 71 70 70 70 69 69 69 69 69 69 70 70 70 70 70 70 70 65 62 60 60 60 61 62 70 72 72 72 72 72 72 72 72 72
72 72 72 72 71 71 71 71 71 71 70 70 69 69 69 69 70 70 70 70 70 70 70 70 70 63 61 60 59 59 60 66 70 71 71 72 72 72 72 72 72 72
72 72 72 72 71 71 71 70 70 70 71 70 70 69 69 69 69 70 70 71 71 71 70 70 70 65 60 59 58 59 60 68 70 70 71 71 72 72 72 72 72 72
72 72 72 72 72 71 71 71 70 70 70 71 70 69 68 68 69 69 70 70 71 71 71 70 70 67 59 57 58 58 61 69 70 70 71 71 71 72 72 72 72 69
72 72 72 72 72 72 71 71 70 70 70 70 70 69 69 69 69 69 69 69 70 71 69 70 71 68 58 57 57 57 62 69 70 71 71 71 71 71 72 72 72 70
72 72 72 72 72 72 72 72 71 71 70 70 70 70 69 69 69 69 69 69 69 70 70 71 71 71 66 56 56 56 58 69 71 71 71 71 71 71 71 71 72 72

ECMWFNIL_sfc_dewp_039.txt.gz
Dewpoint
70 70 69 69 69 70 69 69 69 68 68 69 70 71 71 72 72 72 73 73 73 74 74 74 75 75 75 75 75 74 74 74 73 73 72 71 70 70 69 69 67 65
70 70 70 70 70 70 70 69 69 69 68 68 70 70 71 72 72 72 72 73 73 74 74 74 75 75 75 75 74 74 74 74 73 73 72 71 71 70 69 69 68 67
70 70 70 69 69 69 69 69 69 69 69 68 69 70 71 72 72 72 72 72 73 73 74 74 74 75 75 74 74 74 74 73 73 73 72 71 71 70 70 70 69 68
70 69 69 69 69 69 69 69 69 69 69 69 68 70 71 72 72 72 72 74 72 73 74 74 74 74 75 74 74 74 74 73 73 73 72 72 71 71 70 70 70 69
69 69 69 69 70 70 70 69 69 69 69 69 69 70 71 71 72 72 72 72 72 72 73 74 74 74 74 74 74 74 74 73 73 73 72 72 71 71 71 70 70 69
69 69 70 69 69 70 69 69 69 69 69 69 69 70 71 71 72 72 72 72 72 72 72 73 73 74 74 74 74 74 74 73 73 73 72 72 72 72 72 71 70 70
69 69 69 69 69 69 70 69 70 70 69 69 70 71 71 71 71 72 72 72 72 72 72 72 73 73 74 74 74 74 74 74 73 73 72 72 72 72 72 71 71 70
69 69 69 69 69 69 69 70 70 70 70 70 69 70 72 71 71 71 72 72 72 72 72 72 72 73 73 74 73 73 73 74 73 73 72 72 72 72 71 72 71 70
69 69 69 69 69 69 69 69 70 70 70 70 70 69 71 72 72 72 72 72 72 72 72 72 72 72 73 73 73 73 73 73 73 73 73 72 72 72 71 71 71 71
68 69 69 69 69 69 69 69 69 70 70 70 70 70 70 71 72 72 72 72 72 72 72 72 72 72 72 72 73 73 73 73 73 73 73 73 72 72 72 71 71 71
68 68 69 69 69 69 69 69 70 70 70 70 70 71 70 70 71 72 72 72 72 72 72 71 72 72 72 72 72 73 73 73 72 73 73 73 73 72 73 72 71 71
69 69 69 69 69 69 69 70 70 70 70 70 70 70 71 71 71 71 71 72 72 72 72 72 72 72 72 72 72 72 72 72 72 72 72 72 73 73 72 72 72 71
69 69 69 69 69 69 70 70 70 70 70 70 70 70 70 71 71 71 71 71 71 72 72 72 72 72 72 72 72 72 72 72 72 72 72 72 72 72 72 72 72 72
69 69 70 70 70 70 70 70 70 70 70 70 70 70 70 70 71 71 72 72 71 71 72 72 71 71 72 72 72 72 72 72 72 72 72 72 72 72 72 72 72 72
69 69 70 70 70 70 70 70 70 70 70 70 70 70 70 69 70 70 71 72 72 72 72 72 72 71 71 71 71 72 72 71 72 72 72 72 72 72 72 72 72 72
70 70 70 70 70 70 70 70 70 71 70 70 70 70 70 70 69 69 69 70 71 71 71 72 72 72 69 65 66 71 72 72 72 72 72 72 72 72 72 72 72 72
70 70 70 70 70 70 70 71 71 71 70 70 70 70 70 70 70 69 69 69 69 70 70 71 71 71 66 64 63 64 70 72 72 72 72 72 72 72 72 72 72 72
70 70 70 70 70 70 70 71 71 70 70 70 70 70 70 70 69 69 69 69 69 69 69 70 70 66 64 63 63 62 64 71 72 72 72 72 72 72 72 72 72 72
70 70 70 70 70 70 71 71 71 70 70 70 70 70 70 70 69 69 69 69 69 68 68 69 69 65 63 62 62 62 62 65 71 72 72 72 72 72 72 72 72 72
70 70 70 70 71 71 71 71 71 70 70 70 70 70 70 70 69 69 69 69 69 69 69 69 69 65 62 61 60 61 61 63 69 71 71 71 72 72 72 72 72 72
71 71 70 71 71 71 71 71 71 71 70 70 70 70 69 69 69 69 69 69 69 69 69 69 69 64 61 60 59 59 60 61 68 70 71 71 71 72 72 72 72 72
71 71 71 71 71 71 71 71 71 71 71 71 70 70 70 69 69 69 69 69 69 69 69 69 69 63 61 60 59 58 59 65 68 69 70 71 71 71 71 72 72 72
71 71 71 71 71 71 71 71 71 71 71 71 70 70 69 69 69 69 69 69 69 69 69 69 69 65 60 59 58 58 59 66 68 69 70 70 71 71 71 72 72 72
72 72 71 71 71 71 71 71 71 71 71 71 70 70 69 69 69 69 69 69 68 69 69 69 69 66 60 58 57 57 61 67 68 69 69 70 70 71 71 71 72 69
72 72 72 72 72 71 71 71 71 71 71 71 71 70 70 70 69 69 69 69 68 68 67 68 69 66 60 58 56 56 61 67 69 69 69 69 70 70 71 71 71 70
72 73 73 72 72 72 72 71 71 71 71 71 71 70 70 70 69 69 69 68 69 69 69 69 69 70 67 57 56 56 57 67 69 69 69 69 70 70 70 71 71 71

ECMWFNIL_sfc_dewp_042.txt.gz
Dewpoint
70 70 70 70 70 70 70 70 70 69 70 70 71 71 72 73 73 73 73 74 74 74 75 75 75 75 75 76 76 76 75 75 75 74 74 73 73 72 71 71 70 69
70 71 71 70 71 71 71 70 70 70 70 70 71 72 72 73 73 73 73 73 74 74 75 75 75 75 75 75 75 75 75 75 75 75 74 73 73 72 71 71 71 70
70 70 70 70 69 70 70 70 70 70 70 69 70 71 72 72 72 73 73 73 73 73 74 75 75 75 75 75 75 75 75 75 74 74 75 74 73 73 72 71 71 70
71 70 70 70 70 70 70 70 70 71 70 70 69 70 71 72 72 72 73 74 73 73 74 74 75 75 75 75 75 75 75 75 75 75 74 74 74 73 73 72 71 71
70 70 70 70 70 71 71 70 70 70 70 70 69 70 71 72 72 72 72 73 73 73 73 74 74 75 75 75 75 75 75 75 75 75 74 74 74 73 73 73 72 71
71 71 71 70 71 70 70 70 70 70 70 70 70 70 70 71 72 72 72 72 72 72 72 73 74 74 74 75 75 75 75 74 74 74 74 74 74 73 73 73 72 72
70 70 70 70 70 70 70 70 70 71 70 70 71 70 70 70 71 72 72 72 72 72 72 73 73 74 74 75 75 75 75 75 75 74 74 74 74 73 73 73 73 72
70 70 70 70 70 70 70 70 70 70 70 71 70 70 70 70 71 71 72 72 72 72 72 72 73 73 73 74 74 74 74 74 74 74 74 74 74 73 73 73 73 73
70 70 70 70 69 69 69 69 70 70 71 70 70 70 71 71 70 71 71 72 72 72 72 72 73 73 73 74 74 74 74 74 74 74 74 74 73 73 73 73 73 73
70 70 69 69 69 69 69 69 69 70 70 70 70 70 70 71 71 71 71 72 72 72 72 72 72 72 73 73 74 74 74 74 74 74 74 74 74 73 73 73 73 73
69 69 69 69 69 69 69 69 69 69 70 70 70 70 70 71 72 72 72 72 71 71 72 72 72 72 72 73 73 73 74 73 74 74 74 74 74 74 74 73 73 73
69 69 69 69 69 69 69 69 69 69 69 70 70 70 70 70 71 72 72 72 72 72 72 72 72 72 72 72 72 73 73 73 73 74 73 74 74 74 74 74 73 73
68 69 69 69 69 69 69 69 69 69 69 69 70 70 70 70 70 71 72 72 72 72 72 72 72 72 72 73 73 73 73 73 73 73 73 73 74 73 73 74 74 73
68 69 69 69 69 70 70 69 69 69 70 70 70 70 70 70 70 71 71 71 72 72 72 73 72 72 72 73 73 73 73 73 73 73 73 73 73 73 73 73 73 73
69 69 69 70 70 70 70 70 70 70 70 71 71 70 70 70 70 71 71 71 71 71 72 72 72 72 72 72 72 73 73 72 73 73 73 73 73 73 73 73 73 73
69 70 70 70 70 70 70 70 70 70 70 71 71 71 71 71 71 71 71 71 71 71 71 72 72 72 69 65 67 72 73 72 72 73 73 72 73 72 72 73 73 73
69 70 70 70 70 70 70 70 70 70 71 71 71 71 71 71 71 70 70 70 71 71 71 71 71 71 65 63 63 65 71 72 72 72 73 72 72 72 72 72 73 73
69 70 70 70 70 70 70 71 71 71 71 71 71 71 71 71 71 71 71 70 70 70 71 71 72 67 64 63 62 62 65 72 72 72 72 72 72 72 72 73 73 72
70 70 70 70 70 71 71 71 71 71 71 71 70 71 71 71 71 71 71 71 70 70 69 70 70 65 63 62 62 62 62 66 72 72 72 72 72 72 72 73 73 73
70 70 70 70 70 71 71 71 71 71 71 71 71 71 71 71 71 71 71 71 71 70 70 70 70 64 62 61 61 61 61 63 71 72 72 72 72 72 73 73 73 73
70 70 70 70 71 71 71 71 71 71 71 71 70 70 71 71 71 70 71 71 70 70 70 70 69 63 61 59 59 59 60 62 70 71 72 72 72 73 73 73 73 73
70 70 70 71 71 71 71 71 71 71 71 71 71 70 71 71 71 71 70 70 71 70 70 70 69 62 60 59 58 58 59 66 69 70 71 71 72 72 72 73 73 73
70 70 70 71 71 71 71 71 71 71 71 71 71 71 70 70 70 70 71 70 70 71 70 70 70 65 60 58 57 57 59 67 69 70 70 71 71 72 72 72 73 73
71 71 71 71 71 71 71 71 71 71 71 71 71 70 70 70 70 70 71 71 70 70 70 70 70 67 60 57 57 56 61 68 69 70 70 70 71 71 72 72 72 70
71 71 71 71 71 71 71 71 71 71 71 71 71 71 71 71 71 71 70 71 70 70 68 69 70 67 60 58 56 56 61 68 69 69 70 70 71 71 72 72 72 71
71 72 72 71 71 71 71 71 71 71 71 71 71 71 71 71 71 71 70 70 70 70 70 69 69 70 68 58 56 55 56 68 70 70 70 70 70 71 71 72 72 72

ECMWFNIL_sfc_dewp_045.txt.gz
Dewpoint
73 73 72 72 72 72 72 73 72 72 73 72 72 73 74 75 76 76 76 76 77 76 77 77 77 77 76 77 77 77 76 76 76 76 76 76 75 74 73 73 74 74
73 73 73 72 73 73 74 73 73 73 74 74 73 74 75 76 75 75 76 76 76 76 77 76 77 77 77 76 77 75 75 75 75 75 76 75 75 75 74 74 74 74
72 73 72 72 71 72 70 72 73 73 73 73 74 75 74 74 75 76 76 76 76 75 76 77 77 77 77 77 77 76 74 75 75 74 76 76 75 75 75 73 73 74
73 73 71 71 71 72 72 73 73 73 73 73 73 73 73 73 74 75 76 76 76 76 76 76 76 76 77 77 77 76 75 75 75 76 75 76 76 76 76 75 74 74
72 72 72 72 72 73 73 73 71 72 72 72 72 73 74 75 75 74 75 75 76 75 76 76 76 76 77 77 77 76 75 74 75 75 75 75 76 76 76 76 76 75
73 73 73 73 73 73 72 72 72 72 72 71 72 72 72 74 74 73 74 73 73 74 73 74 75 75 76 77 77 76 75 74 75 75 75 75 75 76 75 76 76 76
72 73 72 72 72 73 73 72 73 73 72 72 73 72 72 72 73 74 74 74 73 74 73 74 75 75 76 76 77 76 76 76 76 75 75 75 75 75 75 76 76 76
72 72 72 72 72 72 72 72 72 73 73 73 72 73 73 71 73 73 74 74 73 74 75 74 75 76 75 75 76 76 76 74 75 75 75 75 75 75 76 76 76 76
71 72 72 72 71 71 71 70 71 72 73 72 71 71 73 72 72 72 74 74 74 74 75 75 75 75 75 75 75 76 75 75 75 75 75 75 75 75 76 76 76 76
72 72 71 71 70 70 70 70 70 71 72 72 71 71 71 73 73 73 74 75 74 74 75 75 75 75 75 75 75 75 75 76 76 76 75 75 75 75 75 76 75 76
71 70 71 71 70 70 70 70 70 70 71 71 71 70 71 72 73 73 74 74 73 73 74 74 74 75 75 74 74 75 75 74 75 76 76 76 76 76 76 76 76 75
71 70 70 70 70 70 70 70 70 70 70 71 71 71 71 71 73 73 73 74 74 73 74 74 75 75 75 74 73 73 74 74 75 75 75 75 76 75 76 76 75 75
70 70 71 70 71 70 70 70 70 70 70 70 71 71 71 71 71 73 73 73 74 74 73 74 74 74 75 75 74 74 74 75 73 74 75 75 75 75 74 75 75 75
70 71 72 72 71 72 72 71 70 70 71 71 71 71 70 71 70 72 73 73 73 73 74 74 74 74 75 75 75 74 74 74 74 74 73 74 75 75 74 73 74 74
72 72 72 73 72 73 73 72 72 72 72 72 73 72 71 71 71 71 72 72 72 73 73 73 73 73 73 74 74 74 74 73 74 74 74 74 74 74 74 74 74 74
73 73 73 73 73 73 74 73 72 73 72 73 73 72 73 72 72 72 71 71 72 72 73 73 73 73 71 66 68 73 74 73 73 74 74 74 74 74 74 74 74 73
74 73 73 73 73 74 74 73 73 73 73 73 73 73 73 73 73 72 71 71 71 71 72 72 72 71 66 64 64 66 72 74 74 74 75 75 74 75 75 74 74 74
72 73 73 73 73 73 73 74 73 73 73 73 73 72 73 73 72 72 72 71 71 71 71 71 71 67 64 63 63 63 66 73 73 73 73 74 74 74 74 74 74 73
73 73 73 73 73 73 73 73 73 73 73 72 71 72 72 73 73 72 72 72 71 72 71 71 71 66 63 62 62 62 62 67 72 73 73 73 73 74 74 74 74 74
73 73 72 73 73 73 73 73 73 73 72 72 71 72 73 73 72 73 73 73 72 72 73 71 71 66 62 61 61 61 62 64 73 73 74 73 73 73 73 74 74 74
72 72 73 73 73 73 73 73 73 73 72 72 71 71 72 73 72 72 73 73 72 72 72 71 70 65 61 60 60 60 61 62 73 74 74 74 74 74 74 74 74 74
72 72 73 73 73 73 73 73 73 73 73 72 72 71 72 72 72 72 72 72 73 72 71 71 71 63 60 60 59 59 60 68 72 74 74 73 74 75 75 75 75 75
71 71 72 72 73 73 73 72 73 73 73 73 72 71 70 71 72 71 72 72 72 73 72 72 71 66 60 58 58 58 60 71 73 73 73 74 74 74 75 75 75 75
72 72 72 72 72 72 72 72 72 73 72 73 72 71 70 70 71 72 72 72 72 72 72 72 71 67 59 57 57 57 62 71 72 72 73 73 74 74 74 75 75 72
72 72 72 72 73 72 72 72 72 72 72 72 71 71 71 72 72 72 72 72 71 71 70 71 71 68 58 58 57 56 62 71 72 72 72 72 72 73 74 73 74 73
72 73 73 72 73 73 72 72 72 72 72 72 72 71 71 71 71 72 72 72 72 71 71 71 71 72 70 57 56 55 56 71 72 72 71 72 72 72 72 73 73 74

ECMWFNIL_sfc_dewp_048.txt.gz
Dewpoint
73 73 73 72 72 71 72 72 70 70 71 68 68 70 70 73 74 73 74 75 75 75 75 76 77 77 75 75 75 75 74 74 74 73 74 74 73 73 71 71 72 71
74 74 74 73 73 73 72 72 73 72 72 72 70 69 72 73 74 74 74 74 74 75 75 75 76 77 76 74 75 74 74 74 75 72 74 74 74 73 71 71 71 72
74 74 73 73 71 72 70 72 74 73 72 72 72 72 72 74 75 75 74 74 74 72 74 75 75 76 75 75 75 74 73 75 74 72 74 75 73 73 73 70 70 71
74 74 73 72 72 72 72 72 73 74 73 72 72 71 71 71 74 74 75 75 74 73 73 74 74 74 75 75 76 74 73 74 73 75 74 75 75 73 73 73 71 70
74 74 73 73 72 73 73 72 72 72 72 72 73 73 74 74 74 73 74 75 75 73 73 74 74 73 75 75 76 74 73 72 74 75 75 74 75 75 73 73 73 71
74 75 74 73 73 73 72 72 72 72 72 71 73 73 73 74 73 73 74 73 73 72 70 71 73 72 73 74 75 74 72 71 71 75 74 74 73 72 72 72 74 73
72 74 73 73 72 72 73 73 73 73 72 72 73 73 73 73 74 74 74 74 72 72 71 72 74 73 73 74 75 75 74 74 73 74 75 74 74 74 73 73 74 74
72 72 73 73 72 72 73 72 73 73 73 74 72 74 74 73 74 74 74 74 73 73 74 72 74 76 72 72 74 74 74 72 73 74 75 75 74 75 75 74 75 76
72 72 73 73 71 71 70 71 72 73 73 73 72 72 74 73 73 73 74 75 74 74 75 74 75 75 74 73 74 75 75 72 72 74 75 74 74 75 74 74 74 75
72 72 71 71 70 70 70 70 70 71 73 72 72 70 72 74 73 73 74 76 75 75 75 75 75 75 75 74 74 75 75 75 74 74 74 74 73 73 73 74 74 74
71 70 71 71 70 69 69 70 69 69 71 72 71 71 71 73 74 74 75 75 75 75 75 75 75 75 76 74 73 74 75 74 74 75 75 74 74 74 74 74 74 74
71 70 70 71 70 69 69 69 69 69 70 71 71 71 71 71 73 74 74 75 76 75 75 76 76 76 76 75 72 72 73 73 73 74 74 75 74 74 74 75 74 74
70 71 71 70 71 70 69 69 69 68 68 70 71 71 71 70 71 74 74 75 76 75 74 75 76 75 76 76 75 74 73 74 72 73 73 73 74 73 72 73 73 74
70 72 72 72 72 73 72 70 70 69 70 71 72 72 70 70 70 73 74 74 75 75 75 75 75 75 76 76 76 74 73 74 74 73 71 72 73 73 72 71 71 72
72 72 73 73 73 73 73 72 72 72 72 72 73 73 71 70 70 71 73 74 74 74 74 74 73 74 74 75 75 75 74 72 73 74 73 72 72 72 73 73 72 70
73 74 74 74 74 74 75 74 73 73 73 73 73 73 73 73 73 72 71 73 73 73 73 73 73 73 73 68 70 75 74 72 73 74 74 73 73 73 72 72 72 72
74 74 74 75 75 75 75 75 74 74 74 74 74 74 74 75 73 72 71 71 72 72 72 72 72 72 68 65 65 67 74 75 73 74 75 75 74 75 75 73 72 72
73 74 75 75 75 75 76 76 75 75 75 75 74 74 75 74 73 73 73 72 71 72 71 72 72 69 64 64 64 64 68 74 74 74 74 74 75 74 74 74 73 72
75 75 75 75 76 76 76 76 76 75 75 74 73 74 74 75 75 74 74 73 72 73 71 71 71 67 63 62 63 63 64 69 72 74 73 73 74 75 75 75 74 73
75 75 75 76 76 76 76 76 75 75 74 74 73 74 75 75 74 74 74 75 74 73 73 72 72 66 62 61 62 62 63 66 73 73 73 73 74 74 74 75 75 76
75 75 76 76 76 76 76 76 75 75 75 74 72 73 74 75 74 74 74 74 74 73 72 71 70 64 61 60 60 60 62 64 74 74 74 74 74 74 75 75 75 75
75 75 76 76 76 76 76 75 75 76 75 74 73 72 73 74 74 73 73 74 74 73 72 72 71 63 59 59 59 59 61 70 73 74 74 74 74 75 75 76 76 76
74 74 75 75 75 75 75 75 75 75 75 75 73 72 71 72 73 72 74 73 73 74 73 73 72 66 59 58 58 58 61 72 73 73 74 74 74 75 75 76 76 76
74 74 74 74 75 75 75 74 74 74 74 74 73 71 70 70 72 72 73 73 72 73 72 72 72 68 58 57 57 57 64 73 73 73 74 74 75 75 75 76 76 75
73 74 74 74 75 74 74 74 74 74 74 74 72 72 71 72 72 72 72 72 70 71 71 72 72 68 57 57 57 56 64 74 73 73 74 74 74 74 75 75 76 75
73 75 74 74 75 75 74 74 73 73 73 73 72 72 71 70 70 71 71 71 71 71 71 72 72 73 69 56 56 55 58 73 74 73 73 74 74 74 74 75 75 76

ECMWFNIL_sfc_dewp_051.txt.gz
Dewpoint
71 71 69 68 67 66 67 69 69 69 68 64 65 68 67 69 71 71 72 72 74 74 74 75 76 76 74 75 75 75 74 74 73 71 73 73 73 72 71 70 71 71
73 73 72 71 70 70 69 69 71 69 69 69 66 67 69 70 69 70 71 72 73 73 74 73 75 76 76 73 75 74 75 74 74 71 72 73 74 72 71 72 70 71
73 73 72 71 69 70 67 69 71 70 68 68 68 68 67 69 70 72 72 72 73 73 74 74 75 76 75 75 75 74 73 75 74 71 73 74 72 72 73 69 69 69
74 73 72 70 69 70 70 69 70 71 70 69 69 66 66 66 70 71 72 73 72 72 72 73 73 73 74 74 75 73 73 74 74 74 73 73 74 72 72 72 70 69
74 73 72 71 70 72 72 70 68 70 70 69 69 70 69 71 71 71 72 72 73 72 72 72 73 73 74 74 75 74 73 72 74 75 74 74 75 74 72 71 72 70
74 75 74 73 72 72 71 70 70 70 71 68 69 70 69 70 71 71 72 71 71 70 69 70 72 72 72 74 74 74 72 70 70 74 74 75 74 71 69 70 72 72
72 74 73 72 71 71 71 72 72 72 70 70 71 70 70 70 71 72 72 72 71 71 68 71 73 72 72 73 74 74 74 73 72 73 74 74 75 73 70 70 72 72
73 73 73 72 71 71 72 72 71 71 71 72 69 71 71 69 71 70 71 72 70 71 71 69 72 73 70 71 73 74 74 71 72 73 74 74 74 74 74 72 72 73
72 73 73 71 70 70 69 69 71 72 72 71 69 68 71 71 71 71 72 73 72 71 72 71 73 72 71 71 72 73 74 72 70 71 72 73 73 74 74 74 72 73
72 72 71 70 69 68 69 68 68 70 71 71 70 67 68 71 71 72 73 74 73 73 72 72 72 72 72 72 71 72 73 74 73 71 71 72 73 72 72 73 72 73
70 70 70 70 69 67 67 67 67 67 70 70 70 69 68 70 72 73 74 74 73 73 73 73 72 73 73 72 71 71 72 72 73 73 72 73 73 73 73 73 73 72
70 68 69 69 68 67 66 67 67 67 68 70 70 69 68 67 72 72 73 74 75 74 74 74 74 74 74 73 70 70 71 72 72 72 72 73 73 72 73 73 72 73
69 68 69 69 69 67 67 67 67 66 66 68 69 69 68 66 69 73 73 74 75 75 74 75 75 74 76 75 73 71 71 72 71 71 72 72 73 72 71 72 72 72
69 69 70 70 70 71 70 67 67 67 67 67 70 70 68 67 66 71 72 73 74 75 75 75 75 75 76 76 75 73 71 71 72 71 70 71 71 71 71 69 70 70
72 70 70 71 71 73 72 70 70 70 69 69 71 71 69 68 67 67 71 72 72 74 74 74 74 74 74 75 76 75 73 70 72 72 71 70 71 70 70 70 69 67
74 74 73 73 73 74 74 72 70 71 70 71 70 71 72 71 70 69 68 71 71 73 73 73 73 73 73 69 71 75 74 71 71 73 73 71 71 71 69 69 69 67
75 74 74 75 75 75 75 74 74 71 72 73 72 72 74 75 72 68 67 68 70 71 71 71 71 70 68 66 67 69 74 74 72 73 74 74 72 72 72 69 68 69
74 75 75 75 75 75 75 75 74 73 74 73 71 71 74 73 71 70 71 68 69 70 70 70 71 68 64 65 65 66 70 75 72 71 71 73 73 72 71 71 70 67
75 75 75 75 76 76 76 75 75 74 73 72 71 73 73 74 74 72 72 71 69 71 70 70 70 66 63 63 64 65 65 71 72 72 71 70 72 73 72 72 72 71
75 75 75 76 76 76 76 76 75 74 73 72 72 73 74 74 73 73 73 74 72 72 73 70 70 65 62 62 63 63 64 67 75 74 72 71 71 72 72 72 73 73
75 75 76 76 77 76 77 76 75 75 74 73 72 72 74 75 74 73 73 73 72 71 71 71 68 63 61 61 61 61 63 65 75 74 74 73 73 73 74 73 74 74
75 75 76 77 77 77 76 76 76 76 76 75 73 71 73 74 74 73 73 73 73 72 70 71 70 61 60 60 60 61 62 71 74 74 74 73 74 74 75 76 75 75
75 75 76 77 77 76 76 76 76 76 76 75 74 72 71 72 74 72 74 73 74 74 72 71 71 65 59 59 59 59 63 73 74 74 74 74 74 74 74 75 75 76
75 75 76 76 77 76 76 76 75 76 75 75 73 71 69 71 73 73 72 73 73 73 72 71 70 69 57 58 58 58 65 74 74 73 74 75 75 75 75 76 76 76
75 76 76 76 77 76 75 75 75 76 75 75 73 71 70 71 72 72 72 72 70 72 73 72 70 66 57 57 57 57 66 75 75 74 74 74 74 75 75 75 76 76
75 77 76 76 77 77 76 76 76 75 75 74 73 72 70 68 69 71 71 71 70 70 71 72 71 72 66 55 56 56 60 75 75 74 73 74 74 74 75 75 75 75

ECMWFNIL_sfc_dewp_054.txt.gz
Dewpoint
69 69 68 68 68 67 68 70 69 69 71 68 69 70 71 73 74 74 73 74 76 75 76 78 78 78 76 79 78 77 77 77 79 78 77 76 76 73 72 72 74 76
69 69 69 68 69 69 70 70 72 71 72 72 70 72 72 74 72 74 74 74 75 74 76 76 78 78 78 77 78 77 79 77 77 72 76 76 76 74 72 74 72 76
70 69 68 66 65 66 63 67 71 72 72 70 70 73 71 71 72 73 75 74 73 72 75 76 77 78 77 78 78 77 76 78 77 73 77 77 77 75 75 70 71 72
70 69 67 64 64 65 64 65 68 72 70 71 68 67 69 67 70 72 74 75 74 75 75 75 75 75 77 77 77 77 76 78 76 78 77 78 77 75 75 75 73 73
69 69 68 66 65 67 66 65 63 68 69 69 69 69 70 74 72 71 72 74 75 75 76 75 75 75 77 77 77 77 76 76 76 78 78 78 78 77 74 75 76 74
70 70 70 68 68 69 66 65 66 66 68 66 69 69 69 70 73 70 71 72 72 72 72 73 74 73 74 76 76 76 75 73 73 76 76 76 75 74 72 75 75 75
71 71 69 70 68 69 69 69 68 69 68 68 70 70 70 68 71 72 73 72 71 72 71 72 74 73 74 75 76 76 76 76 76 77 75 76 76 76 73 74 75 75
70 70 70 70 68 68 69 69 69 70 70 71 69 71 71 68 70 70 72 73 72 72 73 72 74 75 73 74 75 75 75 73 74 76 77 75 76 76 76 75 76 77
71 71 70 69 67 66 65 66 69 69 70 71 69 68 71 70 70 69 72 74 73 73 74 73 74 74 74 74 74 75 75 73 73 73 74 74 74 75 75 75 75 75
72 72 70 69 68 67 66 66 68 68 70 70 69 68 69 71 72 71 73 74 74 74 74 73 74 73 73 73 74 74 74 75 75 74 73 73 74 74 74 74 74 75
70 70 70 69 68 67 67 66 67 68 69 68 69 68 69 70 72 73 74 74 73 74 74 73 73 73 73 71 72 73 74 73 74 75 74 74 74 75 75 75 75 74
70 70 70 70 68 67 67 67 67 68 69 69 69 69 69 69 71 72 73 74 74 74 74 74 73 74 74 72 71 71 73 73 74 74 73 74 74 74 74 75 74 74
70 69 71 70 70 68 67 68 67 68 68 69 69 69 68 68 70 72 73 74 74 74 74 74 73 73 74 74 73 72 72 73 72 73 73 73 73 73 72 73 73 73
70 71 72 72 71 70 70 68 68 68 69 70 71 70 69 68 68 71 73 73 74 74 74 75 74 73 74 75 74 73 73 73 72 72 72 72 72 73 72 71 72 72
72 72 72 72 72 72 71 70 69 70 70 71 72 71 70 69 68 69 71 71 72 74 74 74 73 73 73 74 74 74 73 71 72 72 72 72 72 71 73 73 72 71
73 73 73 73 73 73 72 71 70 71 70 71 72 72 72 72 70 70 70 71 72 74 74 73 73 73 72 68 71 74 73 70 71 73 73 72 73 73 72 72 70 69
74 73 73 73 73 73 73 72 72 71 72 72 73 72 72 74 72 70 69 71 71 72 73 73 72 72 69 66 66 69 73 73 72 73 74 74 73 74 73 71 70 71
73 74 73 73 74 74 74 73 73 72 72 73 72 72 73 72 71 71 71 71 71 72 73 73 73 69 65 65 65 66 70 74 73 72 73 74 74 73 73 72 71 69
74 74 73 73 74 74 74 74 73 73 73 72 71 72 72 73 73 71 71 70 71 72 71 72 72 67 63 63 64 65 66 72 74 73 72 72 73 74 73 73 72 72
74 74 74 74 74 75 75 74 73 73 72 71 70 71 73 73 72 72 72 72 71 72 73 72 72 67 61 62 63 64 65 68 75 75 74 72 73 74 73 73 74 73
75 75 74 75 75 75 75 74 73 73 73 71 68 69 72 73 72 71 72 72 70 71 73 70 69 64 60 61 61 62 64 66 75 75 75 74 74 74 75 74 74 74
75 75 75 75 75 75 75 74 74 74 73 72 70 68 69 73 73 72 72 72 71 70 69 70 69 61 60 60 60 61 63 71 75 75 75 75 76 76 76 76 75 75
74 74 75 75 75 75 75 74 74 74 74 73 71 69 69 70 72 71 73 71 72 72 71 71 70 63 58 59 59 60 63 72 74 74 75 74 74 76 77 77 77 76
75 75 75 76 76 75 75 74 74 74 73 73 72 70 68 69 71 73 73 72 71 72 71 72 71 67 57 58 58 59 65 73 74 74 74 74 75 75 76 76 76 77
75 75 75 76 76 75 74 74 74 74 73 73 71 70 70 72 73 72 72 73 71 71 72 72 70 69 55 58 56 57 65 74 75 74 74 74 74 74 75 75 75 76
75 76 76 76 77 76 76 76 76 74 73 72 72 71 70 70 71 72 72 72 71 71 72 72 71 73 63 56 55 56 60 74 75 75 73 74 74 74 74 75 75 75

ECMWFNIL_sfc_dewp_057.txt.gz
Dewpoint
68 67 67 68 67 66 65 66 66 68 67 70 70 71 71 72 72 71 73 74 74 73 75 76 75 76 76 76 76 76 77 76 75 75 75 75 74 73 73 73 72 73
67 68 68 67 68 69 66 65 66 66 68 69 70 70 71 72 72 71 71 73 74 73 74 76 75 75 75 75 76 74 74 74 74 75 75 73 74 74 73 73 73 73
66 67 67 65 65 67 67 66 66 65 67 68 69 70 70 72 71 72 71 73 73 73 74 75 76 75 75 75 76 75 75 74 74 74 74 74 73 72 74 73 72 72
67 66 65 65 64 65 66 67 67 66 66 68 69 70 69 69 71 71 72 75 73 73 73 74 75 75 75 75 76 75 75 75 75 75 74 75 75 74 73 73 72 72
66 65 65 64 63 64 64 66 68 68 67 67 68 69 71 69 69 70 72 73 73 72 73 74 74 75 76 75 76 75 74 75 75 75 74 74 75 74 73 74 73 73
66 66 65 64 63 63 62 62 66 69 68 68 68 67 69 69 68 69 70 71 72 72 73 73 74 74 75 75 75 75 74 74 75 75 74 74 74 75 74 73 72 72
66 66 65 64 63 62 62 62 62 65 68 68 69 67 66 66 70 69 69 71 71 72 72 73 73 73 75 75 75 74 74 74 73 74 74 73 74 74 74 73 73 72
65 65 65 64 62 62 62 61 61 62 64 67 67 68 67 65 67 70 69 70 70 71 72 73 73 73 73 75 75 74 74 74 74 74 73 73 73 73 74 74 74 73
65 65 65 65 63 62 62 61 61 61 63 65 66 67 68 66 65 68 70 70 70 71 71 72 73 73 73 73 74 74 74 73 73 74 74 73 73 73 74 74 74 73
65 65 64 64 63 62 62 62 61 61 63 64 65 66 68 68 67 66 70 71 70 70 71 71 72 72 72 72 73 74 74 73 73 73 73 74 73 73 74 74 73 73
66 65 64 64 64 62 62 62 62 62 63 64 66 66 67 68 69 67 69 71 71 70 71 71 72 72 72 72 72 73 73 73 73 73 72 72 73 73 76 74 74 73
67 66 65 64 64 63 62 63 63 64 64 65 66 67 67 68 69 68 68 71 71 71 72 71 71 72 72 72 72 72 73 73 73 73 73 73 72 73 74 74 73 73
68 68 67 65 65 64 64 64 63 64 65 66 66 67 67 67 68 69 69 70 71 71 72 72 71 72 72 72 71 71 72 73 73 73 73 73 73 72 72 74 74 74
69 69 68 67 66 66 65 65 64 64 66 67 67 67 67 67 68 69 69 70 71 71 72 72 72 71 72 71 71 71 71 72 72 72 72 72 72 72 72 72 73 73
70 70 69 69 68 67 67 66 66 65 66 67 68 67 68 68 68 69 69 70 71 71 72 72 72 71 71 71 71 70 70 71 72 72 72 72 72 71 72 72 72 72
70 70 70 70 69 68 68 67 67 66 67 68 69 68 68 69 68 69 69 70 70 71 71 72 73 72 71 67 69 71 71 71 71 71 71 72 72 72 71 71 71 71
71 70 70 70 70 69 69 68 68 67 68 69 70 69 69 69 69 69 69 70 70 70 71 71 72 72 67 65 66 68 71 71 71 71 71 71 72 72 71 71 71 72
71 71 71 70 70 70 69 69 68 68 68 69 70 70 70 70 69 69 70 70 70 70 71 71 71 69 65 64 64 65 69 72 71 71 72 71 71 71 72 71 71 71
71 71 71 70 71 71 70 69 69 69 68 69 69 70 70 70 70 69 69 70 70 70 71 71 72 68 64 63 63 64 65 70 71 71 71 71 71 71 71 72 71 71
71 71 71 71 71 71 71 70 69 69 68 68 69 70 70 70 70 69 70 70 70 70 71 72 72 68 63 62 62 63 64 67 72 71 70 71 71 72 71 71 72 71
71 71 71 71 71 71 71 70 69 69 69 69 68 69 70 70 69 69 69 70 71 71 71 71 72 67 62 61 61 61 63 65 72 72 72 71 71 72 72 72 72 72
71 71 71 71 71 71 71 70 70 69 69 69 69 69 70 70 70 70 69 69 70 71 71 71 71 64 61 60 60 60 62 68 72 73 73 72 72 72 73 73 72 72
71 71 71 71 71 71 71 71 70 69 69 70 69 68 69 70 70 69 70 69 69 70 71 71 71 65 60 59 59 60 62 70 71 72 73 72 72 73 73 73 73 73
71 71 71 71 71 71 71 71 70 70 69 70 69 68 68 69 70 69 69 69 69 69 70 71 71 66 58 58 58 59 63 70 71 72 72 72 72 73 74 75 75 77
71 71 71 71 71 71 71 71 71 70 70 70 69 68 68 69 70 69 69 69 69 69 70 69 69 67 57 58 57 57 63 70 71 72 72 72 72 72 72 73 73 76
72 72 71 71 71 71 71 71 71 71 70 70 69 69 68 68 69 70 69 69 70 70 70 69 68 70 63 56 56 56 58 70 71 71 71 72 72 72 72 72 72 72

ECMWFNIL_sfc_dewp_060.txt.gz
Dewpoint
66 68 65 64 62 64 66 65 65 68 69 70 70 71 71 71 72 72 73 74 74 74 74 74 74 75 74 73 75 74 73 73 73 74 74 74 74 73 73 73 73 72
66 68 67 65 64 65 66 66 65 67 68 70 70 71 71 71 71 72 72 73 74 73 74 74 74 75 74 73 74 74 74 74 73 75 74 74 74 74 73 72 72 72
66 66 67 65 63 63 64 66 66 66 67 69 70 70 71 72 71 71 72 72 73 73 73 75 74 75 74 74 74 73 73 73 73 74 74 73 73 73 73 72 73 72
65 66 67 66 63 63 64 65 66 66 67 69 70 70 71 71 71 71 71 74 73 73 73 74 75 74 74 74 74 73 73 73 73 73 74 74 73 73 72 72 72 72
64 65 66 66 66 64 64 64 64 65 66 67 69 70 71 71 71 71 71 72 72 72 72 73 74 74 74 74 74 73 74 73 73 73 73 73 74 73 72 72 72 72
65 65 66 66 66 66 64 64 63 64 64 66 67 70 70 70 70 70 71 71 72 72 72 72 73 74 74 74 74 74 73 73 74 73 73 72 73 74 73 73 72 72
65 65 65 65 65 65 65 65 64 64 63 63 66 68 69 69 69 69 70 71 71 72 72 72 72 73 74 74 74 74 74 74 74 74 73 73 73 73 74 73 72 71
66 65 65 65 64 64 65 65 65 64 64 64 64 66 68 68 68 68 69 70 70 71 72 72 72 73 74 74 74 74 74 74 73 74 73 73 73 72 73 73 72 72
65 65 65 64 64 63 63 63 64 65 66 65 64 64 66 67 68 68 68 68 69 71 71 72 72 72 73 74 74 74 74 73 73 73 73 73 72 72 72 73 73 73
65 65 65 64 63 63 62 62 62 63 66 66 66 65 65 66 66 68 68 68 68 69 71 71 72 72 72 74 74 74 74 73 73 73 73 73 72 72 72 72 72 72
65 65 65 64 63 62 62 61 61 60 61 65 66 66 66 66 66 66 68 69 69 68 69 70 71 72 72 72 73 74 74 74 73 73 73 73 73 72 74 72 72 72
65 64 64 64 64 62 61 61 60 60 59 60 63 65 66 67 67 66 66 68 69 69 69 70 70 72 72 72 72 73 74 73 73 73 73 72 73 73 73 73 73 73
65 64 64 64 64 63 62 61 60 59 59 58 60 61 63 65 66 67 67 66 67 69 69 69 70 71 72 72 72 72 73 73 73 73 73 72 72 72 73 73 73 73
65 65 64 64 64 64 64 62 61 60 59 59 60 60 60 62 63 66 67 67 66 68 69 70 70 70 71 71 72 71 72 72 73 73 72 72 72 72 72 72 73 73
67 66 65 65 65 64 64 63 62 61 61 60 60 60 61 61 63 64 66 67 67 67 69 70 70 70 70 71 71 71 71 72 72 72 72 72 72 72 72 72 72 73
69 68 67 66 65 65 64 64 63 62 62 61 61 61 61 62 63 64 65 66 67 67 68 69 70 70 70 67 68 71 71 71 72 72 72 72 72 72 72 72 72 72
70 69 69 68 67 66 65 64 64 63 62 62 62 63 63 63 64 64 65 66 66 67 68 69 70 70 67 64 65 67 70 71 71 71 72 72 72 71 71 71 72 72
71 71 70 69 69 68 67 66 65 64 63 63 63 63 65 65 65 65 66 66 67 67 67 68 69 68 64 64 64 64 67 71 70 71 71 71 71 71 71 71 71 71
72 71 71 70 70 69 69 68 66 65 64 64 63 64 65 66 66 66 66 67 67 68 68 68 69 66 64 63 63 63 64 68 70 70 70 71 71 71 71 71 71 71
72 71 71 71 70 70 70 69 68 67 66 65 65 65 65 66 66 66 67 67 67 68 69 69 69 66 63 62 62 62 63 65 70 70 70 70 71 71 71 71 71 71
72 72 71 71 71 70 70 69 69 68 67 66 66 65 66 66 67 67 67 68 68 68 69 69 69 65 61 61 60 60 62 64 70 71 71 70 71 71 71 71 71 71
72 72 72 71 71 71 70 70 69 69 68 67 67 66 66 67 68 68 68 68 68 68 69 69 69 63 61 60 60 60 61 66 69 70 70 70 70 71 71 71 71 71
71 72 72 72 71 71 70 70 70 70 69 68 67 67 67 67 68 68 69 68 68 69 69 69 69 65 60 59 59 59 61 67 69 70 70 70 70 71 71 71 72 71
71 72 72 72 71 71 71 70 70 70 69 69 68 67 67 67 68 69 69 69 69 69 69 69 69 66 59 59 58 58 62 68 69 70 70 70 71 71 71 71 72 75
70 71 72 72 71 71 71 70 70 70 70 69 69 68 68 68 69 69 69 69 69 69 69 69 69 67 59 58 58 58 62 69 70 70 70 70 71 71 72 72 71 73
69 71 72 72 71 71 71 71 71 70 70 69 69 68 68 68 68 69 69 69 69 69 69 70 70 70 66 57 58 57 58 69 70 70 70 70 71 71 71 72 72 72

ECMWFNIL_sfc_dewp_066.txt.gz
Dewpoint
68 67 66 66 66 68 69 70 71 71 71 72 72 72 73 73 74 74 74 75 75 75 75 75 76 76 75 75 76 75 75 75 75 75 75 75 74 74 73 74 74 74
68 68 68 67 67 68 69 70 71 71 71 72 72 73 73 73 73 74 74 74 75 75 75 75 75 75 75 75 75 75 74 74 74 75 75 75 75 74 74 74 74 74
68 68 67 66 65 66 66 69 70 71 71 71 72 73 73 73 73 74 74 74 74 74 75 75 75 75 75 75 75 75 74 74 74 74 75 75 74 75 75 74 74 74
68 68 67 66 66 65 66 68 69 70 71 71 71 72 72 72 73 73 73 75 74 74 74 75 75 75 75 75 75 74 74 74 74 74 75 75 75 74 74 74 74 74
68 67 67 67 67 67 66 66 66 68 69 70 71 72 73 73 72 72 73 73 74 74 74 74 75 75 75 75 75 74 74 74 74 74 74 74 75 75 74 74 74 74
68 68 68 67 68 67 65 65 66 66 67 68 70 71 71 72 72 72 72 72 73 73 73 73 74 74 74 75 75 75 74 74 74 74 74 74 74 74 74 74 74 74
67 67 67 67 67 67 66 65 66 67 66 67 69 70 71 71 71 72 72 72 72 73 73 73 74 74 74 75 75 74 74 74 74 74 74 74 74 74 74 74 75 74
67 67 67 67 66 67 67 65 65 66 66 67 66 68 70 70 71 71 72 72 72 73 73 73 73 74 73 74 74 74 74 73 74 74 74 74 74 73 74 74 74 74
67 67 67 66 66 66 65 65 65 65 66 66 66 66 69 70 70 71 72 72 71 72 72 73 73 73 73 74 74 74 74 74 74 74 74 74 73 74 73 74 73 74
67 67 66 65 65 65 65 65 65 64 66 65 65 66 67 69 70 70 71 71 71 71 71 72 72 73 73 73 73 74 74 74 74 74 74 74 73 73 73 74 73 73
67 67 66 65 65 64 65 65 65 64 64 64 64 65 66 68 70 70 70 71 70 71 71 71 72 72 72 72 73 73 73 73 74 74 74 74 74 74 74 74 74 73
66 66 66 66 65 65 64 64 65 65 64 64 64 64 65 66 68 70 70 70 70 71 71 71 72 72 72 72 72 72 73 73 74 74 74 74 74 74 74 74 74 74
66 66 66 66 66 65 65 65 64 64 64 64 64 64 64 64 65 68 70 69 70 70 70 71 71 72 72 72 72 72 73 73 73 73 74 74 74 74 73 74 74 74
66 67 67 67 66 67 66 65 64 64 65 65 66 65 64 63 63 65 67 69 69 69 69 70 70 71 71 72 72 72 72 72 73 73 73 73 74 74 73 73 73 73
68 67 67 67 67 67 67 66 65 65 65 65 66 66 65 64 64 64 64 66 67 68 68 69 68 68 69 70 71 72 72 72 72 73 73 73 73 73 73 74 73 73
68 68 68 68 68 68 68 67 66 66 65 65 65 65 66 67 66 66 64 64 65 66 66 67 68 68 68 65 67 70 71 71 72 72 73 73 73 73 73 73 73 73
68 68 69 68 68 68 68 68 67 66 66 66 65 65 65 66 66 65 65 65 65 65 65 65 66 66 65 63 63 65 69 71 71 72 72 73 73 73 73 73 73 73
68 69 69 69 68 68 68 68 67 67 67 66 65 64 65 64 64 64 65 64 65 65 65 65 65 64 61 62 62 62 65 70 71 71 71 72 72 72 72 72 73 73
68 68 68 69 69 68 68 68 68 67 66 66 65 65 64 65 64 63 63 63 63 64 64 64 65 63 61 60 61 62 62 66 70 71 71 71 72 72 72 72 73 73
68 68 68 68 69 69 68 68 67 67 66 65 65 66 65 64 63 63 63 64 63 62 63 62 63 62 60 59 59 60 61 63 69 70 70 70 71 71 71 72 72 72
69 68 68 68 68 69 69 68 68 67 67 66 65 65 65 65 64 63 63 63 62 62 62 61 60 59 57 58 58 58 60 62 68 70 70 70 71 71 71 72 72 72
69 68 68 68 68 68 68 68 68 68 67 67 66 65 65 65 65 64 63 63 63 62 61 61 61 57 56 56 57 57 59 65 68 69 70 70 70 71 71 72 72 72
69 69 69 69 69 68 68 68 68 68 67 68 66 66 65 65 64 64 65 64 63 64 63 62 62 60 56 55 55 56 58 66 67 68 69 70 70 71 71 72 72 72
68 72 70 70 69 69 69 68 68 68 67 68 66 65 65 64 64 65 65 65 64 63 63 63 63 61 56 54 54 55 60 66 67 68 68 69 70 71 71 72 72 74
65 68 71 71 70 70 69 69 69 69 69 69 67 67 66 66 66 65 65 65 64 63 64 64 63 62 56 55 54 54 60 66 68 68 68 69 69 70 71 71 72 73
64 66 68 71 73 72 71 70 70 70 70 69 69 68 68 67 67 67 66 65 65 65 64 64 64 65 65 55 54 54 56 67 68 68 68 68 69 70 70 71 71 72

ECMWFNIL_sfc_dewp_069.txt.gz
Dewpoint
73 73 72 71 71 71 72 72 72 72 74 72 72 74 74 76 77 77 76 77 77 76 77 77 78 78 77 78 78 78 77 77 76 76 77 76 75 74 72 73 74 74
73 73 73 72 72 72 73 72 73 73 75 75 74 74 76 76 76 76 76 76 76 76 77 77 77 78 77 76 77 76 77 77 76 75 76 77 76 75 73 74 74 75
72 72 72 71 70 70 68 71 73 73 72 73 74 75 74 75 75 76 76 76 76 74 77 77 77 78 77 77 77 76 75 77 76 74 76 77 75 75 75 72 73 74
73 72 71 70 70 70 69 71 72 73 72 73 73 73 73 73 75 75 76 76 76 76 76 76 76 76 77 77 77 76 76 76 75 76 76 77 76 75 75 75 73 73
72 72 71 71 70 71 71 70 69 70 71 71 72 74 75 76 75 74 75 75 76 76 76 76 76 76 77 77 77 76 76 75 76 77 76 76 76 76 74 75 75 74
72 72 72 71 71 71 69 69 69 69 70 70 71 72 73 74 74 74 75 74 74 74 74 74 75 75 75 76 77 76 75 73 74 77 76 76 74 74 73 74 75 75
70 71 71 70 70 70 70 69 69 70 69 69 72 72 73 73 74 75 75 75 74 74 73 75 76 75 75 76 77 77 77 76 76 77 76 75 76 75 74 75 76 75
70 70 70 70 69 69 69 69 69 69 70 71 70 72 73 72 73 73 74 74 74 74 75 75 76 77 75 75 76 76 76 74 75 77 77 76 76 76 76 75 75 76
69 70 70 70 69 68 68 67 68 68 69 69 68 68 72 72 72 72 74 75 74 74 76 75 76 75 75 75 76 76 76 74 73 75 75 75 75 75 75 75 75 75
70 69 68 68 67 67 67 67 66 67 68 68 67 66 68 71 72 72 74 75 74 75 75 75 75 75 75 75 75 76 76 76 76 75 75 74 74 74 73 74 74 75
68 68 68 68 67 67 67 66 66 66 67 67 66 66 67 69 72 73 74 74 72 73 74 74 74 75 75 74 74 74 75 74 75 76 75 75 75 75 75 75 74 74
68 68 67 67 67 67 66 66 66 66 66 66 66 66 67 67 69 70 71 73 73 73 73 74 74 75 75 74 72 73 74 74 74 75 74 75 75 74 75 75 74 74
67 68 68 67 68 67 67 67 66 66 66 65 66 66 66 66 67 69 71 71 73 73 72 73 74 73 75 75 74 73 74 74 73 74 74 74 74 73 72 73 73 73
68 68 69 69 69 70 69 67 67 66 67 67 67 67 66 66 66 67 69 70 71 71 72 73 74 73 75 75 74 73 73 73 73 73 72 73 73 73 72 71 72 73
70 69 70 70 70 70 70 69 68 68 68 68 68 67 66 65 66 66 67 69 69 70 71 71 70 71 71 73 73 74 73 72 73 73 72 72 73 71 72 73 73 72
71 71 71 71 71 71 72 70 69 69 68 69 68 68 68 68 68 67 66 67 68 70 70 69 70 70 70 67 68 72 73 71 72 73 73 72 73 73 71 72 72 71
72 72 72 72 72 72 72 72 71 69 69 70 69 69 69 70 68 67 65 65 65 67 68 67 67 67 66 63 64 66 71 73 72 73 74 73 72 73 73 71 71 72
71 72 72 72 72 72 72 72 71 70 70 70 69 68 70 69 68 67 68 66 65 65 65 66 66 65 62 62 62 63 66 71 71 71 71 71 72 71 71 71 71 70
72 72 72 72 72 72 72 72 72 71 70 69 67 68 68 69 69 68 68 67 66 66 65 64 65 63 61 61 61 61 62 66 69 70 69 69 70 71 71 72 72 72
72 71 71 72 73 73 73 72 71 71 70 68 68 69 69 68 67 68 68 69 68 67 68 66 65 63 60 59 59 60 61 63 70 71 70 69 69 70 70 71 72 73
72 72 72 72 73 73 73 72 71 71 70 69 67 67 69 69 67 67 67 68 67 67 67 66 64 61 59 58 57 58 59 61 69 71 71 70 70 71 72 71 71 72
69 71 72 72 72 72 72 72 72 72 72 70 69 67 68 68 68 67 67 67 66 66 65 65 64 59 58 57 57 57 58 65 69 71 70 70 71 72 72 73 72 72
67 68 71 71 72 72 72 71 72 72 72 71 70 68 67 67 67 66 68 66 66 67 66 65 64 61 56 56 56 56 58 67 69 69 70 70 70 71 72 72 72 73
66 67 68 70 72 71 71 71 70 71 70 71 69 68 67 66 67 67 67 67 66 66 65 65 65 63 55 54 54 55 60 68 69 69 69 70 71 71 72 72 72 72
64 66 67 68 70 72 70 70 70 70 70 70 69 69 68 69 68 68 67 68 66 65 66 65 65 63 56 54 53 53 59 68 69 68 69 69 68 69 71 70 72 71
63 65 67 68 68 69 71 72 70 69 70 69 69 68 68 68 67 68 67 67 67 66 65 65 65 66 68 54 53 52 54 67 69 68 67 68 68 68 68 70 70 71

ECMWFNIL_sfc_dewp_072.txt.gz
Dewpoint
74 74 72 72 72 71 72 71 70 70 71 69 67 71 70 73 73 74 74 75 74 74 74 75 76 77 76 77 79 77 77 77 75 75 76 75 74 73 71 72 72 71
75 74 74 72 72 73 73 72 72 71 71 72 70 70 72 73 72 73 73 74 74 73 74 74 75 76 77 76 77 76 77 76 76 73 75 76 75 74 72 73 73 75
74 74 73 72 70 72 69 71 72 71 70 70 70 71 71 72 72 74 74 73 73 71 73 74 74 75 75 75 77 76 75 76 76 73 75 76 74 74 75 72 72 73
75 74 72 70 69 70 70 70 71 72 71 70 70 69 69 68 70 72 74 75 73 73 73 74 73 73 74 74 75 74 75 76 75 75 76 76 75 74 75 74 72 72
74 74 72 71 69 70 71 70 69 70 70 69 69 71 71 72 72 71 72 74 74 73 73 74 74 73 74 75 75 74 74 73 74 76 76 75 76 75 73 74 75 72
74 75 74 72 71 71 70 70 70 69 70 67 69 69 70 71 71 70 70 71 71 70 70 71 72 71 72 74 75 74 73 71 72 74 74 75 73 73 71 73 74 73
72 73 73 71 70 70 71 71 71 71 68 69 70 70 70 70 71 71 71 71 70 71 69 71 73 72 72 73 74 74 74 74 74 74 75 73 74 73 71 73 73 73
72 72 72 72 70 69 71 70 70 70 71 70 68 70 71 68 70 69 70 70 70 70 71 70 72 74 71 71 73 74 74 70 72 74 75 75 74 74 73 72 72 73
71 71 72 71 69 67 67 66 68 70 71 70 68 67 70 70 68 68 70 71 71 71 73 72 73 72 71 71 72 73 73 71 69 71 73 73 72 74 73 73 72 73
71 71 69 69 68 66 66 66 65 67 69 69 68 66 66 70 69 68 69 72 72 72 73 73 72 71 71 71 72 73 73 74 73 73 72 72 72 71 71 72 72 73
69 69 69 69 68 66 65 65 65 64 67 68 67 66 64 66 70 70 71 72 72 71 72 73 72 72 72 70 70 71 72 71 72 73 73 72 71 72 72 72 72 71
69 68 68 68 68 67 65 64 64 64 64 67 67 66 66 64 67 69 70 72 73 72 71 73 73 73 73 72 69 69 70 70 70 71 70 71 71 70 70 71 70 71
67 68 69 68 68 68 67 66 65 64 64 64 67 66 65 64 64 69 70 70 72 72 69 71 72 72 73 74 71 69 69 70 68 68 69 69 69 68 67 67 68 68
67 68 69 70 69 71 70 67 66 66 66 66 68 68 66 65 64 65 68 69 69 70 70 71 72 72 73 74 73 70 69 70 70 68 66 68 68 68 66 64 64 64
70 69 69 70 71 71 71 70 69 69 69 68 69 68 66 66 66 64 66 68 68 68 69 68 67 69 70 71 72 72 70 67 68 69 68 67 67 66 66 67 66 63
71 72 71 71 72 73 73 72 70 70 69 70 69 69 70 70 69 68 66 66 67 68 68 66 65 64 69 67 69 71 71 66 66 69 70 69 69 69 66 65 64 64
71 72 72 72 73 73 74 74 73 71 71 71 71 70 71 72 70 68 67 66 66 67 67 65 64 63 65 64 64 67 70 71 70 70 71 72 70 71 71 68 65 65
71 72 73 73 73 74 74 75 73 72 72 72 71 70 72 70 69 70 70 67 66 66 65 65 65 64 61 62 63 64 67 70 66 68 68 69 71 70 69 69 68 66
71 71 72 73 73 73 74 75 75 74 72 71 70 71 70 72 72 70 70 69 68 68 66 65 65 63 61 61 62 62 63 67 67 66 66 66 68 70 71 70 70 68
73 72 72 72 72 73 74 74 74 74 72 70 70 71 72 71 70 71 71 71 70 69 69 67 67 64 60 59 60 61 62 64 71 69 67 66 67 67 67 69 71 71
72 72 72 72 73 73 73 73 73 73 72 71 69 69 70 71 70 70 71 71 70 69 69 67 65 62 59 58 58 59 60 62 71 71 70 68 68 68 69 69 69 69
67 70 72 73 73 73 73 73 73 74 73 72 71 68 69 69 70 70 70 70 70 69 68 68 67 61 59 57 57 57 59 67 70 71 70 69 69 70 70 71 71 70
66 67 71 71 72 73 73 72 73 72 73 73 72 70 68 68 69 69 71 69 69 70 70 69 68 64 58 56 56 56 59 68 70 69 70 70 70 70 70 71 71 71
67 67 68 70 71 71 72 74 73 71 72 73 72 70 69 68 68 69 70 70 69 69 68 69 69 67 58 55 55 55 61 69 70 69 69 70 71 71 70 71 71 71
64 67 68 68 70 71 70 72 73 73 73 73 72 72 71 71 70 69 68 70 68 68 70 68 68 66 57 55 55 54 61 70 70 69 69 69 69 70 71 70 71 71
63 66 66 67 68 69 71 72 73 72 72 73 73 72 72 74 72 70 69 69 68 68 67 68 68 69 72 55 54 53 55 69 70 69 69 69 69 69 69 70 71 71

ECMWFNIL_sfc_dewp_075.txt.gz
Dewpoint
72 72 71 71 71 71 71 70 68 69 70 69 68 70 70 72 73 73 73 74 74 73 73 76 77 77 75 78 78 76 76 74 73 74 74 74 74 71 70 70 71 70
72 72 72 71 72 72 71 70 70 69 70 71 69 69 71 73 70 72 73 73 74 73 74 73 75 76 77 76 77 76 76 76 76 72 75 75 73 73 71 71 70 72
72 71 71 70 68 70 68 70 71 70 69 68 69 71 70 70 72 72 72 72 73 70 72 73 74 74 74 76 78 75 74 77 76 72 74 75 74 73 74 70 70 70
73 72 70 68 67 68 68 69 70 71 69 68 68 67 68 67 70 71 72 73 72 72 71 72 72 72 73 74 76 76 75 77 75 75 76 77 74 73 73 72 71 71
73 72 70 69 67 68 69 68 67 68 68 67 67 69 69 71 71 69 71 72 73 71 72 72 72 72 73 74 74 74 72 74 74 75 75 77 76 75 72 72 74 72
75 74 73 70 69 68 66 67 67 67 68 65 67 67 67 68 69 69 70 70 70 70 69 69 71 70 71 72 73 73 72 70 71 74 74 74 73 72 70 72 74 72
72 74 72 69 68 67 67 67 68 68 66 66 67 67 68 68 69 70 71 70 69 70 67 70 72 71 71 72 74 74 73 73 72 74 74 73 73 72 72 72 74 74
72 72 73 71 67 66 67 66 67 67 68 67 65 67 68 67 69 68 69 69 69 69 70 68 71 73 69 70 71 72 72 69 69 73 74 74 73 73 72 70 72 73
72 72 72 71 67 65 65 63 65 66 67 67 65 64 67 68 67 68 70 70 70 70 71 69 71 71 71 70 70 71 71 70 67 70 71 71 71 72 72 72 71 72
73 73 70 69 67 65 64 63 61 63 66 66 65 62 63 67 68 68 69 71 70 71 70 71 70 70 70 70 70 70 71 72 71 70 69 70 70 70 69 70 70 71
70 73 70 70 70 64 63 62 61 60 63 65 64 62 61 64 68 68 70 70 68 69 70 71 70 71 71 69 69 69 71 69 70 71 70 70 70 71 70 70 70 69
68 68 69 68 68 65 63 62 61 60 60 63 64 62 62 60 64 66 67 69 70 70 70 71 72 72 72 71 68 67 68 69 69 70 69 70 70 69 70 70 69 70
66 68 70 69 69 68 65 64 62 60 59 60 62 63 61 60 60 66 67 67 70 70 69 71 71 71 73 73 71 69 67 68 66 67 68 68 68 67 65 66 66 66
68 69 70 71 71 72 69 66 63 62 62 62 63 62 61 60 59 60 65 67 67 69 70 70 70 70 72 73 72 70 67 67 67 67 65 66 64 65 64 62 63 63
72 71 72 72 71 72 71 70 68 66 65 65 65 63 60 59 59 58 62 65 66 68 69 67 65 67 69 71 71 71 69 66 67 67 66 65 65 63 63 64 62 61
72 74 75 74 71 73 74 72 70 70 67 66 65 64 66 66 66 62 59 61 64 66 66 65 64 63 69 68 70 71 70 66 65 68 69 68 67 65 62 62 61 61
71 72 73 74 75 73 74 74 73 71 70 72 69 67 69 72 68 64 61 59 60 63 64 62 60 60 65 63 64 67 70 70 67 68 69 69 67 69 67 63 61 60
73 72 73 73 74 75 75 75 75 73 73 71 69 68 71 67 67 67 68 63 61 61 60 61 60 62 60 62 63 63 68 71 66 66 64 65 67 66 65 65 63 60
72 73 72 73 75 75 76 75 74 73 73 71 69 70 69 71 72 69 69 68 66 65 61 60 60 61 59 60 62 62 63 68 65 65 63 62 63 66 67 67 66 65
72 72 72 73 74 74 74 74 74 73 74 74 73 71 71 70 69 70 70 72 70 69 69 65 63 62 59 59 60 61 62 65 71 68 63 61 64 63 63 66 69 69
69 70 71 71 72 74 73 73 73 73 73 74 74 74 71 71 71 70 71 71 70 69 69 66 65 62 59 57 58 59 61 63 73 71 68 66 64 64 67 64 68 67
66 68 70 71 72 72 72 73 73 74 73 74 74 75 74 74 75 73 72 70 70 70 69 68 67 61 59 57 57 58 60 68 72 73 71 69 69 70 68 69 67 67
66 68 69 70 70 71 71 72 72 74 74 74 74 73 74 75 73 74 73 72 71 71 70 70 68 65 59 56 56 57 61 69 72 71 71 71 70 71 71 70 69 70
65 67 67 69 69 69 70 72 73 73 74 75 75 74 74 72 73 73 72 72 71 70 69 70 70 68 59 56 55 56 63 71 71 71 70 71 72 72 72 72 72 72
59 62 65 67 69 70 70 71 71 72 73 74 74 74 73 73 73 72 72 71 69 69 72 69 69 68 59 56 55 54 63 72 72 70 70 70 69 70 71 71 72 72
63 62 64 67 68 69 71 73 73 72 72 72 73 73 72 71 71 72 71 70 69 69 69 69 68 70 72 56 54 54 56 72 73 71 70 70 70 70 70 71 72 72

ECMWFNIL_sfc_dewp_078.txt.gz
Dewpoint
74 74 73 73 75 74 74 73 70 70 74 71 71 72 74 76 76 76 75 76 76 76 77 78 78 77 77 78 78 78 79 77 81 75 77 77 76 73 69 69 71 75
74 74 74 73 75 76 76 73 73 73 74 76 73 74 74 75 73 74 75 75 76 74 77 76 77 78 77 77 78 78 79 78 77 73 77 75 77 74 72 73 71 78
73 73 72 71 70 71 69 71 74 72 71 70 72 75 72 72 73 76 76 75 75 72 76 77 77 78 77 78 79 78 76 78 76 73 76 77 76 77 77 70 70 71
74 73 70 69 69 70 70 71 72 73 71 71 70 68 69 68 73 73 75 75 76 76 74 74 75 74 76 77 79 79 77 79 78 77 78 78 78 76 76 75 73 74
72 72 71 70 70 72 72 70 69 70 69 70 68 72 74 77 74 72 74 74 77 74 76 75 75 75 76 77 77 77 76 76 77 78 78 79 80 77 74 77 77 74
74 74 74 72 71 71 68 68 69 69 69 67 69 69 69 72 73 71 72 71 70 70 70 71 72 72 73 76 76 76 74 72 74 77 76 77 75 74 70 74 76 76
73 72 71 70 68 68 69 69 69 70 68 68 70 69 69 68 71 73 73 72 71 72 70 72 75 74 73 76 76 77 77 77 76 76 77 76 77 76 72 75 78 78
74 74 71 70 68 66 67 68 68 69 70 70 67 70 70 66 70 68 71 72 70 72 72 72 75 76 70 73 75 76 75 71 72 77 77 76 77 76 75 73 76 77
73 74 73 71 67 66 64 64 66 67 69 69 65 65 69 69 69 68 72 74 72 73 75 73 75 73 73 73 74 75 74 72 70 73 74 74 74 75 74 75 74 76
73 73 71 71 67 65 65 63 63 65 67 66 65 64 65 69 70 70 72 74 73 74 75 74 75 73 72 72 74 74 74 74 75 76 73 73 73 73 72 73 73 75
71 75 73 72 71 67 63 63 62 63 65 65 65 64 64 66 70 72 74 74 70 72 74 74 73 74 74 71 71 71 73 72 73 74 74 74 73 74 74 75 74 73
72 71 72 71 72 71 68 63 62 61 62 64 65 65 66 64 68 68 70 74 73 72 72 74 74 74 75 73 70 69 71 71 72 73 72 73 73 73 73 73 72 74
73 73 72 70 71 70 69 66 63 61 60 61 64 65 64 62 64 68 69 71 73 72 71 73 73 73 75 75 73 72 72 71 70 71 71 71 71 71 69 70 71 70
73 74 74 74 72 74 73 69 66 64 63 63 65 65 63 62 60 65 68 68 70 70 72 73 74 73 74 75 74 72 71 71 71 70 68 69 69 70 69 67 68 68
74 74 74 75 75 75 74 73 72 72 72 69 70 65 62 62 62 60 64 66 67 69 70 70 69 70 70 72 73 74 73 70 70 69 69 69 69 67 68 68 66 65
73 72 72 74 73 72 73 73 74 74 72 72 71 67 69 69 68 66 62 64 66 68 69 67 67 67 71 69 70 72 72 70 69 70 70 70 71 70 67 67 64 62
71 71 72 73 74 74 74 75 75 74 75 74 73 73 72 74 70 66 62 60 62 64 66 65 66 66 67 64 65 68 72 73 72 72 72 72 71 72 71 67 65 65
72 72 73 73 72 71 72 74 74 74 74 73 71 71 72 71 70 70 70 67 62 61 62 64 65 66 62 62 63 64 69 72 71 70 69 70 70 69 70 69 67 64
72 71 71 71 71 71 72 73 73 73 72 73 73 73 72 74 73 71 71 71 68 69 65 61 63 63 60 60 62 63 63 69 70 70 69 67 67 69 69 70 70 68
68 71 72 72 72 72 73 73 73 72 73 74 74 74 74 74 73 74 73 73 72 72 72 69 67 64 59 58 60 61 62 65 71 71 70 68 68 67 67 68 70 70
67 69 71 71 72 72 72 71 72 72 72 73 73 75 75 74 74 74 74 74 72 70 70 69 66 63 59 56 57 59 61 63 70 71 69 68 68 69 71 69 71 69
65 66 68 69 71 71 71 72 71 71 72 73 75 75 75 75 75 74 73 72 72 71 70 71 69 63 61 56 56 57 60 67 69 71 70 69 68 68 68 70 70 70
65 67 67 69 70 70 70 71 72 73 73 74 74 74 73 74 74 73 73 73 71 71 70 71 71 67 61 57 55 56 59 67 70 71 71 71 70 70 70 70 69 70
64 65 65 66 67 68 70 71 72 73 73 74 73 73 73 72 73 73 73 73 71 71 70 70 70 69 63 59 55 55 61 67 70 71 71 72 72 72 72 72 72 73
62 62 61 61 65 67 67 70 71 71 72 72 73 72 72 73 73 72 72 72 71 71 72 71 70 69 63 59 54 54 60 69 71 71 70 70 70 71 72 72 72 73
59 65 65 64 63 64 65 67 68 68 70 70 71 71 70 70 70 70 71 71 71 70 70 70 69 70 72 62 55 53 55 69 73 72 71 70 70 71 71 72 72 72

ECMWFNIL_sfc_dewp_084.txt.gz
Dewpoint
71 73 72 71 70 70 72 71 72 72 72 72 73 73 73 74 74 74 75 75 75 75 74 74 75 75 76 76 75 75 75 75 76 75 75 74 73 73 73 73 73 72
71 73 74 72 72 73 72 72 72 73 72 73 73 73 74 74 74 74 74 74 76 74 75 74 75 75 75 76 75 74 74 75 73 76 74 75 74 74 73 73 73 73
71 72 73 73 72 73 72 72 72 72 72 72 73 73 74 74 74 74 74 74 75 74 75 74 75 75 75 76 75 74 74 75 74 74 74 73 74 75 74 74 74 73
71 72 72 73 72 73 73 72 72 72 72 73 72 72 73 74 74 74 74 76 74 75 75 75 75 75 76 76 75 74 75 75 75 74 74 75 75 75 75 75 75 75
72 72 72 72 72 73 73 72 71 71 71 72 72 72 73 74 73 73 74 75 73 74 75 75 75 75 76 75 76 75 74 75 75 74 74 73 73 75 75 76 74 73
73 72 72 72 72 72 72 72 71 71 71 71 70 72 72 72 73 72 73 74 73 73 74 75 75 75 75 75 76 75 75 75 74 74 74 74 74 74 75 75 74 73
72 72 72 72 71 71 71 71 71 72 71 71 71 70 70 72 72 72 73 73 73 73 74 74 74 74 74 74 75 75 75 75 74 74 73 74 74 75 75 75 74 73
70 71 71 72 71 70 71 71 71 71 71 71 70 70 69 71 71 71 72 73 73 72 73 73 73 74 74 74 74 75 75 75 74 74 73 74 74 74 74 74 73 73
70 70 70 70 70 69 69 70 70 70 71 70 70 69 70 69 71 71 72 72 72 72 72 72 73 73 73 73 74 74 74 74 74 74 73 73 73 73 73 73 73 72
71 72 72 71 71 71 70 69 68 68 71 70 69 69 69 69 70 71 71 72 71 71 71 71 72 72 72 72 73 73 73 73 73 72 73 73 73 73 73 74 73 73
72 72 71 71 71 72 71 70 69 69 69 69 69 68 68 69 70 70 71 71 71 71 71 71 71 72 72 71 72 73 73 72 72 72 72 72 73 73 75 73 73 72
71 72 72 71 72 72 72 72 70 69 68 69 69 69 68 68 69 69 69 71 71 71 71 71 71 72 72 71 71 72 72 72 72 72 72 72 72 73 73 73 72 72
71 72 72 73 73 73 73 73 72 71 69 68 69 71 69 67 68 69 69 68 70 71 71 71 71 72 72 71 71 71 72 72 72 71 71 71 72 72 72 72 72 72
71 72 72 72 73 73 72 73 73 72 71 70 71 72 71 68 66 68 69 69 68 69 70 71 72 72 72 72 71 70 71 72 72 71 71 71 70 71 71 71 72 72
72 72 73 73 73 72 71 72 72 72 72 73 73 72 73 72 67 66 67 69 69 69 69 69 69 70 71 72 72 71 70 70 70 71 71 71 70 70 70 70 70 70
71 73 73 72 72 71 71 71 72 73 74 74 74 74 73 72 72 67 66 67 69 70 69 69 69 69 71 69 71 72 71 70 70 70 70 70 70 70 70 70 69 69
72 71 71 71 72 72 72 73 73 74 74 74 73 72 72 72 72 71 70 67 66 69 70 69 68 69 68 65 65 68 71 71 70 70 71 70 70 69 69 69 69 69
71 71 70 71 71 70 71 71 72 73 72 72 72 72 72 73 72 72 71 71 70 68 67 69 69 69 65 64 64 64 68 71 71 70 70 70 70 69 69 69 69 68
70 71 70 70 71 70 70 71 71 72 72 73 73 74 74 72 72 72 72 72 71 70 71 72 71 67 64 62 63 63 63 68 70 71 70 70 70 69 69 69 68 69
68 70 70 69 70 71 71 71 71 70 71 72 73 73 73 73 73 72 72 71 71 71 71 71 71 70 65 62 60 60 61 63 68 70 70 70 70 70 69 69 69 68
65 66 68 69 70 70 70 70 70 71 71 72 73 73 73 73 73 72 72 72 72 72 71 71 70 67 64 63 60 58 58 61 65 67 69 70 70 70 70 69 69 69
64 65 66 67 69 70 69 69 70 70 70 71 71 72 72 73 73 73 72 72 72 72 72 71 71 65 64 63 62 59 59 63 64 65 66 68 70 70 70 70 70 69
66 65 65 65 66 66 67 67 68 68 68 70 70 69 68 70 71 72 72 73 73 73 72 72 72 67 62 60 60 59 60 64 64 65 65 66 67 69 70 70 70 69
61 63 64 64 63 64 65 67 67 67 67 68 70 69 68 68 69 71 71 72 72 72 72 72 72 70 61 57 57 57 62 64 64 64 64 65 66 67 68 69 70 72
55 58 60 62 62 63 65 66 66 65 67 68 70 69 69 69 69 70 70 70 70 70 73 72 72 70 63 59 59 55 60 65 65 65 65 65 65 65 66 67 68 71
56 59 59 59 58 58 60 63 67 66 65 66 67 68 68 69 70 67 67 68 67 66 66 67 71 72 70 61 59 58 57 68 68 67 67 66 66 66 66 66 67 67

ECMWFNIL_sfc_dewp_087.txt.gz
Dewpoint
71 70 71 70 69 69 71 71 71 71 71 71 71 72 73 74 74 75 75 75 75 75 75 74 74 74 75 75 75 74 74 73 74 73 73 73 72 72 72 72 72 72
71 72 73 71 71 72 71 71 72 72 71 72 72 72 72 74 74 74 74 75 75 75 74 74 74 74 74 75 74 73 73 74 72 76 73 73 73 73 74 73 73 73
70 72 73 71 70 71 71 71 72 72 72 72 73 73 73 74 74 74 74 74 74 74 74 74 74 74 74 75 74 73 73 73 73 73 73 72 72 73 73 74 74 73
70 71 72 73 71 72 71 72 72 72 72 72 72 73 73 73 74 74 74 76 74 74 74 74 74 74 74 74 75 74 73 73 74 73 73 73 74 74 73 74 75 74
71 71 72 73 72 73 72 72 71 72 72 72 72 73 73 74 74 73 73 74 74 74 74 74 74 74 74 74 75 74 73 73 74 73 73 72 72 73 73 75 74 74
71 71 72 72 72 72 73 72 71 71 71 72 72 73 72 73 73 73 73 73 74 74 74 74 74 74 75 75 75 74 74 74 74 73 73 73 73 73 74 74 73 73
72 72 71 72 72 72 72 72 72 72 71 71 72 71 72 72 73 73 73 73 74 73 73 74 74 74 74 74 74 74 74 74 73 73 73 73 73 73 73 74 74 73
71 71 71 71 72 71 71 71 72 72 72 72 71 71 71 71 72 72 73 73 73 73 73 73 74 74 74 74 74 74 74 74 74 73 72 72 72 72 73 74 73 72
71 71 71 71 70 70 70 71 71 71 72 71 71 70 71 70 71 71 72 72 73 73 73 73 73 74 74 74 74 74 74 74 74 74 73 73 72 72 73 73 72 72
71 71 71 71 71 70 69 69 69 68 71 71 70 70 70 70 70 71 71 72 72 72 72 72 73 73 73 73 73 73 73 73 73 73 73 73 73 73 73 73 72 72
71 71 71 71 71 71 71 71 69 68 69 69 69 69 69 69 70 71 71 71 72 72 72 72 72 72 72 72 73 73 73 73 73 73 73 73 73 73 75 73 72 72
71 71 71 70 71 71 71 71 71 70 69 69 69 68 69 69 69 69 71 71 71 71 71 72 72 72 72 72 72 72 73 73 73 72 72 72 72 72 72 73 73 72
71 71 71 71 71 72 72 72 71 71 70 68 69 69 68 68 68 69 70 70 71 71 71 71 71 71 71 72 71 71 71 72 72 72 72 72 71 72 72 72 72 72
71 71 72 72 72 72 72 72 73 72 71 70 70 69 71 70 68 68 68 69 70 71 71 71 71 71 71 71 71 71 71 71 71 71 71 71 71 71 71 72 72 72
70 72 72 72 72 72 72 72 72 71 71 71 71 71 71 72 72 69 67 68 69 69 70 71 71 71 71 71 71 71 71 70 71 71 71 71 71 71 71 71 71 71
71 72 72 72 71 71 71 70 71 71 71 71 72 72 72 72 71 71 68 67 68 68 68 69 70 70 72 70 71 71 71 70 70 71 71 71 71 71 70 70 70 70
71 71 71 71 72 72 71 72 72 71 71 72 72 72 71 71 72 71 70 67 67 68 68 68 68 68 68 66 66 68 72 71 70 70 70 70 70 70 70 70 70 70
71 70 70 71 70 70 71 72 72 72 71 71 71 71 71 72 72 71 71 71 69 67 68 68 68 69 65 64 64 64 68 72 71 70 70 70 70 70 69 69 69 69
70 69 69 69 70 70 70 71 71 71 71 71 72 73 73 71 71 71 71 71 71 70 67 68 69 68 65 64 63 63 63 68 70 70 70 70 70 70 70 69 69 69
68 69 69 69 69 70 70 70 70 70 71 72 72 73 73 72 72 71 71 71 71 70 70 71 70 70 65 63 62 61 62 64 68 69 70 70 70 70 70 69 69 69
65 66 66 68 69 69 69 69 69 69 69 69 71 71 71 71 72 72 72 72 72 72 71 71 71 67 65 62 60 59 60 62 67 69 69 69 70 70 70 70 70 70
61 63 64 65 66 67 67 67 67 68 68 69 71 69 69 69 69 71 71 71 72 72 72 71 72 67 63 62 61 60 59 64 65 66 67 67 68 69 70 70 70 70
60 61 62 63 62 62 62 65 67 67 68 69 69 69 69 68 68 69 70 70 70 71 71 71 72 69 65 62 60 60 62 65 65 65 65 66 66 67 68 69 70 70
59 59 59 58 58 58 60 61 62 65 67 68 68 68 68 69 69 69 69 69 68 69 70 70 70 69 62 61 59 59 62 66 66 65 65 66 66 66 67 68 69 72
58 59 58 57 56 57 59 60 61 63 65 67 67 67 68 67 69 69 68 69 68 68 69 70 70 69 63 61 59 58 63 66 66 65 65 66 66 66 66 67 67 70
57 59 59 57 56 56 57 59 61 60 60 62 64 66 67 67 68 68 67 68 68 69 69 70 70 70 69 63 60 59 58 65 67 66 66 66 66 66 67 67 67 67

ECMWFNIL_sfc_dewp_090.txt.gz
Dewpoint
70 70 70 70 70 70 70 70 71 71 71 72 72 72 73 73 75 75 76 76 76 76 76 76 76 76 76 76 77 76 76 75 75 75 75 75 74 73 73 74 74 74
71 71 72 71 71 72 71 71 71 71 71 72 72 72 73 74 75 75 76 76 76 76 76 75 75 76 76 76 76 75 75 76 75 76 75 75 75 75 75 75 75 75
71 71 72 71 70 71 70 72 72 72 71 71 72 73 73 74 74 75 75 76 75 75 76 75 75 76 75 76 76 75 75 75 75 74 76 75 75 75 75 75 75 75
71 72 71 71 71 71 71 72 73 73 73 72 72 73 73 73 74 75 75 76 76 76 75 75 75 75 75 75 76 76 75 75 75 75 75 76 76 76 76 76 76 76
70 71 72 73 72 72 72 72 72 72 73 73 73 74 74 74 75 74 74 75 76 75 75 75 75 75 75 75 76 76 75 75 75 76 75 75 75 75 75 76 76 75
71 71 72 73 73 73 72 72 72 72 73 72 73 74 74 74 74 74 74 74 74 74 74 75 75 74 75 75 75 75 75 75 75 76 75 75 75 75 74 75 76 75
70 71 71 72 72 73 73 73 72 73 72 73 73 73 73 73 74 74 74 74 74 75 74 75 75 75 75 75 75 75 75 76 75 75 75 75 75 75 74 75 76 75
71 71 71 71 71 72 73 73 73 73 73 73 72 73 73 73 73 73 74 74 74 74 75 74 75 75 74 75 75 75 75 75 75 75 75 75 74 74 74 74 75 75
72 72 72 72 71 71 71 72 72 73 73 72 72 72 73 73 73 73 74 74 74 74 75 74 75 75 75 75 75 75 75 75 75 75 75 74 74 74 74 74 74 74
72 72 72 72 72 71 71 71 71 72 73 72 72 72 71 72 72 72 73 74 73 74 74 74 74 74 75 75 75 75 75 75 75 75 75 75 74 74 74 74 74 74
72 72 72 72 72 73 72 71 70 70 71 71 71 71 71 71 72 72 73 73 72 73 74 74 74 74 74 74 74 75 75 74 75 75 75 75 75 74 75 74 74 74
72 72 72 72 72 72 72 71 70 69 69 70 70 71 71 71 71 71 72 72 73 73 73 74 74 74 74 74 73 74 74 74 74 74 74 74 74 74 74 74 74 74
72 72 71 71 72 73 73 73 72 71 70 69 70 70 69 69 70 71 72 72 72 73 72 73 73 73 74 74 74 74 74 74 73 74 74 74 73 73 73 73 73 73
71 71 71 70 71 71 72 73 73 72 72 71 71 70 70 70 69 69 70 71 71 72 73 73 73 73 73 74 73 73 73 73 73 73 73 73 73 73 73 72 73 73
70 70 70 70 70 70 71 71 72 73 72 72 72 71 70 71 71 70 70 70 70 71 72 72 71 72 72 72 73 73 73 72 72 72 72 73 73 72 72 73 72 72
71 71 71 71 71 70 71 71 71 72 72 72 72 72 72 73 72 73 71 70 70 70 70 70 71 71 72 70 70 72 73 72 72 73 73 73 73 73 72 72 71 71
71 71 71 71 71 71 71 71 72 72 72 72 73 73 73 73 73 73 72 71 69 69 69 68 69 69 69 66 66 67 72 73 72 73 73 73 72 73 73 72 72 72
70 70 70 71 71 70 71 71 72 72 72 72 73 73 73 73 73 72 72 72 72 70 68 68 69 69 65 64 65 65 68 73 72 72 72 72 72 72 72 72 71 71
69 69 70 70 70 70 71 71 71 71 71 72 73 73 73 73 73 73 73 73 72 72 72 71 70 68 65 64 63 63 63 69 72 73 72 71 72 72 72 72 72 72
69 69 69 69 69 70 70 69 69 68 68 70 69 70 70 71 72 72 72 73 73 73 73 73 72 68 64 62 62 62 62 64 70 72 72 72 72 72 71 72 72 72
65 66 66 67 68 68 67 67 67 67 68 69 68 68 68 68 69 70 70 70 71 71 71 71 69 65 64 63 61 59 60 62 68 70 71 71 72 72 73 72 72 72
61 61 61 61 62 63 64 65 66 67 67 69 69 69 69 70 68 68 68 67 69 69 69 69 69 64 62 62 61 60 61 67 68 69 69 69 70 70 71 72 72 72
60 59 60 60 60 60 60 62 63 65 68 69 69 69 69 69 67 68 68 67 67 68 69 70 70 67 61 60 59 60 65 69 68 68 68 68 68 69 69 70 70 71
60 59 58 59 59 59 60 61 61 63 64 67 68 68 68 68 68 69 70 69 67 67 68 70 70 69 61 59 59 59 64 68 69 69 68 69 69 69 70 70 70 70
58 59 58 58 59 59 60 61 61 61 61 64 66 67 68 69 69 69 70 70 68 66 66 70 71 69 64 61 60 59 64 68 69 69 69 69 69 69 69 70 70 70
58 59 59 59 59 59 59 60 61 60 61 61 62 63 65 67 69 69 69 70 70 70 70 70 71 71 70 63 60 59 58 66 69 69 69 69 70 70 70 70 71 71

ECMWFNIL_sfc_dewp_093.txt.gz
Dewpoint
74 74 73 73 73 73 74 73 72 72 75 73 72 73 74 75 76 76 76 77 77 77 77 78 78 78 76 77 77 76 76 76 75 74 75 74 73 72 71 72 73 73
74 74 75 73 75 75 75 73 74 74 75 76 74 74 76 76 75 76 76 76 77 76 78 77 78 77 77 76 77 76 76 76 75 73 75 74 74 73 72 73 73 75
73 73 73 72 70 72 70 72 74 74 73 73 74 76 74 75 75 77 77 76 76 75 77 78 77 78 77 77 77 76 74 76 75 74 76 75 74 73 73 71 72 73
74 73 71 71 71 71 71 73 74 74 74 74 73 72 73 72 75 75 77 77 77 77 76 76 76 76 77 77 78 76 76 76 75 76 76 76 75 74 73 73 72 72
72 73 72 72 72 73 73 72 71 72 72 73 72 75 76 76 76 75 76 76 78 76 77 77 77 76 78 77 78 76 76 74 75 76 76 76 76 75 73 74 74 73
73 74 75 73 74 74 72 71 72 71 72 71 72 73 74 75 75 75 75 74 74 74 74 75 75 75 75 77 77 76 75 73 74 76 75 75 74 74 72 73 74 74
71 72 72 72 72 73 72 72 73 73 72 72 74 74 74 74 75 76 76 75 74 75 73 75 77 76 76 77 77 77 77 76 76 76 76 75 76 75 75 75 76 75
72 72 71 72 71 72 72 72 72 73 74 75 73 74 74 73 74 73 75 75 74 75 76 75 77 78 76 76 76 76 75 73 74 77 76 76 76 76 75 75 75 76
73 73 72 71 70 70 69 69 70 72 74 73 71 71 74 74 73 73 76 76 75 75 77 76 77 76 76 76 76 76 75 73 72 75 75 74 74 75 74 75 74 75
74 74 73 71 70 69 69 68 68 69 72 71 71 70 71 74 74 74 75 77 75 76 76 76 76 76 75 76 76 76 76 76 75 75 75 74 74 73 73 74 73 74
74 75 74 75 74 74 71 69 69 69 70 70 70 69 71 72 75 75 76 76 73 74 75 76 75 75 76 75 75 75 76 74 74 76 75 75 75 75 75 75 75 73
73 73 74 74 75 75 74 72 70 70 70 70 70 71 72 71 72 73 73 75 75 74 75 75 76 76 76 76 74 74 75 75 75 76 75 75 75 74 75 74 73 74
74 74 74 75 75 76 76 74 72 71 70 70 71 71 71 70 70 72 73 73 74 74 73 74 75 74 76 76 75 75 75 75 74 75 75 75 74 73 72 73 73 73
74 74 73 73 74 74 75 75 74 72 72 72 72 71 70 70 69 70 71 72 72 73 73 74 75 74 76 76 75 75 74 74 75 74 73 73 73 74 73 71 72 72
72 72 72 71 71 72 73 73 74 74 74 73 73 72 70 70 70 70 70 71 71 72 73 72 71 71 72 74 74 75 74 73 74 74 73 73 74 72 72 74 73 72
71 71 71 71 71 71 71 72 72 72 73 73 73 73 73 74 74 73 71 70 70 71 71 69 70 70 74 73 73 73 74 72 72 74 74 74 74 74 72 72 71 71
71 71 71 70 71 72 71 72 72 72 72 72 73 73 74 75 74 73 72 71 70 70 70 68 68 68 70 68 67 68 72 73 74 75 75 75 74 75 75 72 72 72
71 70 70 70 71 71 71 72 73 73 73 72 72 72 74 72 72 73 74 72 71 71 70 69 69 67 64 65 66 65 69 72 72 72 72 73 73 73 73 72 72 71
70 70 70 71 71 72 72 73 73 73 72 73 73 73 73 73 74 73 73 73 73 73 72 72 71 66 63 63 64 64 65 70 71 72 72 72 72 73 73 73 73 73
71 71 70 70 71 72 72 72 72 71 72 72 73 73 73 73 73 73 73 73 73 73 74 73 70 65 62 62 62 62 64 67 73 73 72 72 73 73 72 73 74 74
63 64 65 67 68 69 70 69 70 69 70 71 70 71 71 71 71 71 71 72 72 72 73 70 66 63 61 61 61 62 63 67 74 74 73 73 73 73 74 73 73 73
61 62 63 63 64 65 67 68 68 68 69 70 70 71 72 72 71 69 69 69 70 71 71 71 68 61 61 61 61 62 66 73 74 74 73 72 73 73 73 73 73 73
60 61 62 62 63 62 63 64 65 66 68 69 69 70 69 70 70 68 69 67 67 69 70 70 70 65 60 59 59 60 69 73 74 73 74 74 73 73 73 73 73 73
62 61 61 61 62 62 62 63 63 65 66 68 69 68 68 68 69 69 69 68 67 67 68 69 69 64 58 57 57 57 67 73 73 72 73 73 73 73 74 74 73 71
60 61 60 61 61 62 62 63 63 63 65 67 68 67 67 68 68 68 68 69 68 68 69 68 67 63 57 57 57 57 67 72 72 71 71 71 71 71 72 72 73 73
59 60 60 60 61 61 61 62 63 62 63 63 64 65 66 68 67 67 67 68 67 64 64 63 63 63 61 55 55 55 59 71 72 71 70 70 70 71 71 71 72 72

ECMWFNIL_sfc_dewp_096.txt.gz
Dewpoint
72 73 72 72 72 72 73 72 71 72 73 71 70 72 72 74 74 74 74 75 76 76 78 78 78 76 75 76 77 76 76 75 76 74 74 73 72 70 68 70 70 70
73 73 73 72 73 74 73 72 72 72 73 74 72 72 73 74 73 74 74 74 75 75 77 77 77 77 76 75 77 75 76 76 76 72 73 74 73 71 70 71 70 71
72 72 71 71 69 71 69 71 72 72 71 71 72 74 71 72 73 74 75 75 74 73 77 77 77 77 76 76 76 75 74 76 75 73 75 75 73 72 72 69 69 71
73 72 70 69 68 68 69 70 71 71 71 70 71 70 70 68 72 73 74 74 75 75 75 76 76 76 76 76 76 75 75 75 74 76 75 76 75 73 73 72 70 70
71 72 71 70 69 71 70 70 69 69 69 70 69 72 73 73 74 72 74 74 76 75 75 75 76 75 76 77 77 76 75 73 74 76 75 75 76 74 72 72 72 71
72 73 73 71 70 71 69 69 69 69 70 68 69 70 71 72 72 71 72 72 72 72 72 73 74 74 74 76 77 76 74 72 73 76 74 75 74 73 70 73 74 73
69 71 70 70 69 70 70 69 69 70 69 69 71 70 71 71 71 72 73 72 71 73 72 74 76 75 75 76 76 77 76 75 75 75 75 74 75 75 73 74 75 74
70 69 70 69 68 67 68 68 68 69 70 71 69 71 70 70 72 70 72 73 72 72 74 74 75 76 74 74 75 76 76 72 72 75 76 75 75 75 75 73 74 74
70 69 68 68 66 65 64 64 66 67 69 69 67 66 70 70 70 70 73 74 73 74 75 75 76 75 74 74 75 75 75 73 71 74 74 74 74 75 73 74 73 74
72 71 69 66 64 63 63 63 62 63 66 67 65 63 64 71 71 72 73 75 74 75 75 75 75 74 74 74 75 75 75 75 75 75 74 74 74 73 72 73 72 73
73 73 71 72 71 69 65 63 62 61 63 64 64 62 63 68 72 73 74 75 73 74 74 75 74 75 75 73 73 74 74 73 74 75 75 75 74 74 74 73 73 72
71 70 71 72 73 73 72 68 65 63 63 63 64 64 65 65 69 71 71 74 74 74 74 75 75 75 75 75 73 72 72 73 73 74 73 74 74 73 73 73 73 73
69 71 71 73 74 74 74 72 69 65 64 64 65 65 64 64 65 68 70 71 72 72 71 73 74 73 75 75 75 74 73 73 72 73 73 72 73 71 70 71 71 71
73 73 73 74 76 76 76 75 73 70 69 69 69 68 66 65 64 65 67 69 69 69 70 72 74 74 75 75 75 73 73 72 72 72 71 71 71 72 70 69 70 69
75 75 75 75 76 76 76 76 75 74 72 72 72 71 67 67 65 65 66 68 68 69 69 70 69 70 70 72 73 73 73 71 72 71 71 71 71 69 70 71 70 69
75 75 75 74 75 74 74 75 74 74 73 73 72 72 71 71 70 69 68 68 69 70 69 67 68 68 73 74 75 73 73 71 71 72 72 72 72 71 69 69 68 68
74 74 74 73 72 72 74 74 73 74 74 74 73 73 73 74 73 71 69 68 67 68 68 65 65 69 70 69 70 72 72 71 71 73 74 74 72 73 73 71 70 69
73 73 73 73 73 72 72 73 73 74 74 73 73 72 73 73 73 73 74 72 70 69 68 67 68 65 64 66 67 68 72 72 69 69 70 71 72 72 71 71 70 69
72 72 72 72 73 73 73 73 73 73 73 73 72 72 72 73 74 73 74 73 73 73 71 70 71 64 64 65 64 65 66 71 70 70 68 69 70 72 72 72 73 72
73 71 71 72 72 72 73 73 73 73 74 74 73 74 73 73 74 74 74 75 74 74 74 72 71 65 63 64 63 64 65 67 73 73 71 69 70 71 70 72 74 74
70 70 70 70 71 71 72 72 73 73 72 73 74 74 73 74 74 74 74 74 73 73 73 70 67 62 62 63 62 63 64 67 73 75 74 72 72 73 74 72 73 72
66 67 67 68 70 71 71 71 71 71 72 73 73 74 73 73 73 73 73 72 72 72 73 70 67 59 61 61 61 60 65 72 75 76 74 73 75 75 75 76 75 74
64 64 65 65 66 66 67 68 69 70 71 72 73 73 73 72 72 71 71 70 71 72 72 71 67 60 57 57 58 60 67 74 75 74 75 75 75 75 75 75 75 75
64 64 65 64 64 64 65 66 68 68 70 71 71 71 72 70 71 70 70 70 69 70 70 68 63 58 55 54 55 57 66 74 74 73 74 74 75 74 75 75 75 74
62 62 62 63 64 64 65 66 66 67 68 70 71 71 71 71 72 70 69 70 70 69 68 66 63 60 54 53 53 55 66 73 74 73 73 73 72 73 73 74 74 74
60 61 62 62 63 62 64 65 65 66 68 69 70 71 73 72 72 69 67 67 67 67 67 64 62 61 59 52 52 53 56 71 73 73 71 72 72 72 73 73 73 70

ECMWFNIL_sfc_dewp_099.txt.gz
Dewpoint
74 73 73 72 72 71 71 71 70 71 71 68 68 70 72 71 74 73 73 76 74 76 77 77 76 75 74 75 77 74 74 74 73 73 74 73 72 70 66 69 67 66
73 73 73 72 73 73 73 72 72 71 72 74 71 71 72 74 72 73 74 74 75 74 77 76 75 76 76 75 75 74 77 76 75 71 73 74 72 70 68 69 67 68
72 72 71 71 70 71 70 71 72 71 71 70 71 72 70 72 73 73 75 74 73 71 75 77 77 76 74 76 76 74 73 74 73 72 75 74 72 72 71 68 68 69
72 72 70 68 69 70 69 71 71 72 71 70 70 69 69 67 71 72 74 74 74 75 74 74 75 74 74 75 76 74 75 74 74 76 75 75 74 72 72 71 69 68
71 71 71 70 69 70 70 69 68 68 69 69 69 71 71 73 73 71 73 73 75 75 75 76 75 74 76 76 75 74 74 75 74 75 74 73 75 73 69 71 71 69
71 72 72 70 71 70 68 68 68 68 68 67 68 68 70 71 70 70 71 71 71 71 72 72 73 72 73 75 75 74 72 70 75 76 74 74 73 72 69 71 74 72
69 70 69 69 68 68 69 69 69 69 68 67 68 69 70 70 70 71 72 71 70 71 70 72 74 73 73 75 76 76 74 74 76 76 74 74 75 73 71 72 73 73
70 69 69 68 67 66 67 67 67 68 69 69 67 69 69 69 71 70 71 71 70 71 72 72 75 76 73 73 74 76 75 72 69 72 74 73 75 76 74 70 73 74
67 68 67 66 65 64 64 63 64 66 67 68 66 67 69 68 69 69 70 72 71 71 73 72 76 75 73 74 74 75 75 72 69 73 73 72 71 72 71 72 72 73
67 66 65 64 64 63 62 62 61 62 65 65 65 64 64 68 68 69 70 74 72 73 75 73 74 73 73 74 74 75 74 73 72 73 74 73 72 72 72 73 71 73
67 67 65 67 67 64 61 60 60 60 62 63 63 63 62 64 69 70 72 74 71 72 73 73 73 73 73 73 73 73 73 71 73 73 72 72 72 73 72 73 73 73
69 67 67 67 68 68 66 62 59 59 60 62 62 64 63 61 66 69 70 74 73 73 73 73 73 74 74 73 72 72 72 72 73 74 72 73 72 71 71 71 70 70
71 69 68 68 70 71 71 69 64 60 59 60 62 62 63 61 60 68 70 71 73 72 72 73 75 73 75 74 73 73 72 72 71 72 71 71 71 69 69 70 70 69
72 71 71 72 72 72 72 71 68 63 62 62 62 63 62 61 60 62 67 69 70 71 71 72 74 74 74 75 75 73 72 72 72 72 71 71 70 71 68 68 68 68
73 72 73 75 75 75 76 75 73 69 66 65 65 63 62 63 61 60 63 66 67 68 69 68 67 69 70 72 72 72 72 70 71 71 71 71 71 69 70 70 68 67
75 75 75 75 76 76 77 77 76 75 73 71 69 67 69 69 67 64 62 63 65 67 66 64 64 64 73 75 74 72 72 70 68 71 71 71 71 70 69 68 68 67
74 73 73 74 75 75 75 75 75 75 74 74 73 73 72 72 69 67 64 62 63 65 66 64 62 68 71 68 69 71 72 72 72 73 74 74 73 74 73 71 70 69
74 73 73 73 73 73 74 74 74 74 73 74 74 72 74 72 69 69 69 66 64 65 65 64 63 66 65 66 68 69 74 73 69 68 68 69 71 70 70 70 69 67
72 72 72 72 73 73 73 73 73 73 73 73 72 73 72 73 72 70 70 69 67 68 67 68 70 64 64 65 65 66 67 73 68 68 67 67 68 69 70 70 71 70
73 72 72 73 73 73 73 73 72 72 73 72 72 73 73 73 73 72 71 73 71 71 74 72 70 64 62 63 64 64 65 69 72 72 70 68 68 68 68 70 72 71
71 71 72 72 72 73 72 73 74 73 73 73 74 75 75 74 74 72 74 72 72 72 72 67 65 61 61 62 61 62 63 68 73 73 72 70 69 68 69 69 71 71
69 69 69 70 70 71 71 72 73 73 74 75 75 74 73 74 75 74 73 71 71 71 72 71 63 56 58 59 59 61 63 71 73 73 73 73 71 72 72 75 74 73
68 68 68 68 68 69 69 69 70 71 72 73 73 74 73 73 72 73 73 72 70 71 70 69 63 58 55 56 57 58 66 72 74 74 73 71 72 73 73 74 74 73
67 67 66 66 66 66 67 67 69 70 71 72 72 72 72 72 72 73 72 71 71 69 70 65 61 57 54 54 54 56 63 71 74 74 73 74 73 72 73 74 74 75
64 63 64 64 64 64 65 66 67 69 70 72 72 71 71 72 73 73 72 70 70 69 67 65 63 61 54 53 53 54 64 71 75 74 73 73 73 73 73 74 74 70
59 62 62 62 63 63 64 64 65 68 69 70 71 72 72 71 71 73 69 69 67 65 64 62 62 61 59 52 51 52 54 68 73 75 72 72 72 74 73 73 73 68

ECMWFNIL_sfc_dewp_102.txt.gz
Dewpoint
75 74 74 74 76 74 74 73 72 72 75 73 73 75 77 76 76 75 74 77 76 76 77 78 79 78 73 77 79 77 81 77 79 77 78 76 76 71 67 68 73 74
76 75 76 74 76 77 77 74 73 74 76 76 78 78 76 76 74 75 75 76 76 76 78 76 77 78 78 78 78 77 80 79 77 71 75 76 75 73 71 71 69 73
74 74 73 72 71 72 72 71 74 73 72 73 75 77 73 75 72 76 76 76 75 73 77 78 77 77 76 78 79 77 75 78 76 72 79 77 75 76 75 68 70 69
73 73 71 70 70 71 71 73 73 74 73 72 73 72 70 70 74 72 77 76 76 77 75 75 76 74 76 76 78 77 77 79 77 80 78 77 77 75 74 75 71 72
70 71 70 70 71 72 72 71 70 69 70 72 69 73 75 76 75 73 75 75 76 75 77 77 76 75 78 78 77 78 76 77 77 79 78 77 78 76 71 73 77 71
73 74 75 71 72 72 69 69 70 68 68 69 70 71 69 73 73 73 73 72 70 71 72 72 75 73 75 76 77 77 75 72 75 77 77 77 74 73 69 73 75 73
69 70 69 69 67 69 69 70 70 71 68 66 70 70 70 70 72 72 73 72 71 73 71 75 76 76 75 78 78 77 78 78 77 77 77 76 77 75 71 72 77 74
70 69 69 69 68 67 68 67 67 68 70 70 66 69 70 68 72 68 70 72 69 72 73 73 76 78 74 75 76 77 75 70 71 77 77 76 77 78 78 72 74 78
70 70 69 67 66 65 65 65 66 66 69 68 66 66 69 70 70 69 74 74 73 74 75 73 76 74 75 75 75 76 76 72 71 74 75 73 73 75 74 75 74 75
70 71 68 67 65 64 63 63 63 64 67 66 65 65 65 70 71 70 74 76 73 75 75 75 76 75 75 73 75 76 76 77 76 76 74 74 73 73 72 74 74 76
69 69 67 71 72 69 64 63 62 61 63 64 64 64 64 66 72 72 74 76 70 72 74 76 74 74 75 72 74 73 75 73 74 75 74 75 74 75 73 76 75 74
65 65 67 68 70 70 70 63 61 61 60 61 62 64 66 63 67 67 69 74 75 74 73 74 75 75 76 75 71 72 73 73 74 75 73 74 74 72 73 74 72 74
67 66 66 67 72 73 72 69 63 60 59 59 61 63 63 62 61 68 71 71 75 73 71 73 74 73 76 76 73 73 73 74 72 73 74 73 72 71 69 70 70 70
72 71 73 74 75 75 75 74 70 67 66 66 67 64 61 61 61 61 66 68 70 72 73 74 75 74 76 76 75 73 71 73 74 73 73 72 71 73 69 67 68 68
76 76 76 76 76 76 75 75 74 71 70 70 70 66 59 61 61 61 63 65 68 72 73 71 69 71 73 73 73 75 73 71 72 72 72 72 72 69 70 72 70 68
76 76 75 75 76 76 76 76 74 74 72 74 74 74 72 72 73 71 64 62 65 67 69 68 67 66 70 75 74 74 74 71 71 74 74 74 75 74 71 69 68 68
76 75 75 75 76 76 76 77 76 76 76 76 75 75 76 77 75 71 68 64 61 61 65 65 67 67 66 67 70 73 72 74 75 77 76 76 74 74 74 73 71 70
75 74 74 74 74 75 75 75 75 75 75 75 74 73 75 73 72 72 73 70 65 66 67 69 68 64 63 65 66 67 73 76 71 72 72 73 74 73 71 70 70 71
73 73 73 73 73 73 74 74 74 74 74 74 72 72 73 75 74 73 73 71 69 70 71 70 68 63 63 64 64 65 67 73 71 73 69 68 70 71 72 72 71 71
73 73 72 72 72 73 74 74 74 73 74 73 72 73 73 74 73 74 75 73 72 72 74 71 67 62 61 62 63 64 66 70 74 74 71 70 72 71 71 73 72 73
72 72 71 72 72 73 72 73 73 73 73 74 74 74 74 74 75 75 74 72 72 74 74 71 63 58 59 60 61 62 65 72 74 74 73 74 73 73 72 72 74 74
69 69 69 70 71 71 71 72 72 72 72 73 73 74 74 75 75 74 73 72 72 73 72 72 65 56 57 58 59 61 64 73 74 75 75 73 73 73 73 74 73 73
69 69 69 69 69 68 68 69 70 70 71 72 71 72 73 73 74 72 73 72 72 72 72 68 63 57 55 55 56 59 68 73 75 75 74 74 74 73 74 74 74 74
69 69 68 69 68 68 68 69 70 71 71 71 70 70 71 72 73 72 73 72 71 71 70 66 63 58 53 53 54 56 65 72 75 74 73 74 74 73 73 74 72 73
68 67 68 68 67 67 68 68 69 70 71 72 71 71 71 72 73 71 72 71 71 70 68 66 64 61 54 53 52 53 63 71 75 74 72 73 73 73 73 74 70 65
63 65 65 65 65 66 68 68 69 70 71 71 70 71 70 70 71 71 71 71 71 69 67 64 62 60 57 52 51 52 55 69 73 72 71 71 72 72 72 73 71 65

ECMWFNIL_sfc_dewp_105.txt.gz
Dewpoint
75 75 74 75 75 75 74 75 74 75 74 75 73 74 73 75 78 75 76 76 77 77 77 77 77 77 78 77 78 77 79 77 76 77 77 77 75 74 71 70 71 72
74 75 75 74 75 76 75 74 73 74 74 75 76 75 74 75 74 76 75 76 77 76 77 77 78 77 76 76 77 75 77 77 75 76 76 76 73 73 71 71 71 73
74 75 75 74 73 74 74 73 73 73 74 74 75 74 75 76 75 75 74 76 76 76 76 77 76 76 76 78 76 77 77 76 75 75 76 77 77 75 75 73 71 71
75 74 74 73 73 73 72 72 73 73 74 73 72 74 73 73 74 75 75 78 76 76 76 76 76 75 76 77 77 77 77 77 75 77 75 76 77 75 74 74 75 70
74 73 73 72 71 73 72 72 72 71 71 73 72 72 74 75 74 74 75 76 75 76 76 76 76 75 75 77 77 75 75 77 77 76 75 75 75 75 73 74 74 71
73 73 72 72 72 72 71 71 72 71 70 72 71 72 73 73 72 73 73 74 74 74 75 75 76 75 76 76 77 74 74 76 75 75 75 75 75 74 73 74 73 74
71 72 71 71 71 71 70 70 71 72 69 70 72 72 70 71 72 72 72 73 72 73 73 74 75 74 75 76 75 75 75 76 76 75 75 75 76 74 74 74 74 75
70 71 70 71 70 70 70 70 70 70 70 70 70 71 70 71 73 70 71 73 71 73 72 73 74 75 75 76 75 75 76 75 75 75 75 75 75 75 75 75 76 74
70 71 70 69 69 69 69 69 69 69 69 69 69 69 70 70 71 70 70 71 70 72 73 72 74 74 75 75 75 75 75 74 73 75 75 75 74 74 75 75 73 74
70 71 69 69 68 67 67 66 66 67 69 68 67 66 68 70 69 69 71 72 71 73 73 72 73 73 75 74 74 75 75 75 75 74 73 74 73 73 72 72 72 72
70 70 69 69 69 68 65 65 64 65 67 66 66 66 65 68 70 70 72 74 71 73 73 74 74 74 75 74 74 75 75 75 75 75 74 74 74 74 76 74 73 72
69 69 69 69 69 70 70 66 63 63 64 66 65 65 66 66 68 67 68 74 72 72 73 74 75 75 75 74 73 73 74 74 74 74 74 74 74 74 73 73 73 73
68 67 68 69 70 70 70 68 67 67 66 64 65 64 64 64 68 68 68 72 72 73 73 74 74 73 74 75 74 73 73 73 73 73 73 74 74 73 72 72 72 71
68 67 68 68 70 71 71 70 71 71 71 71 71 69 63 63 63 67 68 70 73 73 73 73 74 74 74 75 75 73 73 74 73 73 74 73 73 73 72 71 72 71
72 72 72 72 74 72 72 72 71 72 72 73 75 74 73 72 70 65 66 68 72 72 73 72 72 72 72 73 73 74 73 72 73 72 73 73 73 74 72 70 71 71
71 70 71 72 74 74 73 73 73 74 75 76 75 75 75 75 74 72 68 67 67 70 72 70 68 70 73 71 71 74 73 72 72 73 73 73 74 74 73 72 72 74
70 71 70 69 70 70 74 76 76 75 75 74 74 75 75 74 73 73 70 68 68 68 68 69 68 67 66 66 67 71 75 73 74 74 74 75 73 73 73 72 70 70
70 71 71 70 72 71 72 73 75 75 74 74 74 74 74 73 73 73 70 69 69 68 68 68 66 64 63 64 66 67 72 76 74 74 74 74 74 72 71 71 70 70
71 71 71 71 72 73 72 73 74 74 74 73 73 72 75 74 73 73 70 70 71 70 69 67 65 62 63 63 64 65 68 75 74 74 71 70 70 70 71 72 72 72
72 71 71 71 72 72 73 73 72 72 73 73 73 73 72 73 74 74 73 72 72 72 70 67 64 61 61 62 62 63 65 71 74 73 73 72 71 71 72 73 72 72
70 71 70 70 71 71 72 72 72 72 71 72 72 72 72 72 73 74 73 73 73 72 68 63 60 59 59 60 61 62 63 72 74 74 73 73 73 72 72 73 72 74
69 69 68 69 69 70 70 70 70 70 70 71 71 72 71 72 74 73 72 71 72 72 68 63 61 56 57 58 59 60 64 74 75 74 73 73 73 73 73 73 72 72
69 69 68 68 68 68 68 69 69 69 70 70 69 70 71 72 72 72 72 71 72 71 66 63 61 57 55 55 56 58 67 74 74 74 73 73 73 73 72 72 73 73
68 68 68 68 67 68 68 69 69 69 70 69 69 69 69 70 71 72 72 71 71 68 63 61 60 58 54 53 54 56 65 71 74 74 73 73 72 72 73 71 70 73
66 67 68 67 67 67 68 68 68 69 70 70 70 70 69 69 71 71 71 70 70 67 66 61 61 59 54 53 53 55 65 70 74 73 72 72 72 72 72 67 63 65
62 63 64 65 66 67 68 68 69 69 70 69 68 67 67 68 69 68 69 70 68 65 62 61 60 59 58 52 53 55 61 69 69 71 70 70 70 71 72 68 63 62

ECMWFNIL_sfc_dewp_108.txt.gz
Dewpoint
74 74 73 74 74 75 75 74 74 74 74 74 72 72 72 73 77 75 75 76 76 76 77 77 76 76 77 77 76 77 78 76 76 75 75 75 74 74 72 71 72 69
75 75 75 75 75 76 75 74 73 74 74 75 73 72 73 74 75 75 75 75 76 76 76 76 76 75 75 75 76 74 74 76 74 78 75 74 74 74 73 72 72 72
74 74 74 74 74 75 74 74 73 74 74 74 74 74 74 75 73 75 75 75 76 75 76 76 76 76 75 76 75 75 75 74 74 74 75 75 76 74 73 73 73 72
74 74 73 73 73 74 75 74 73 74 74 74 74 74 74 74 73 74 74 78 75 75 76 76 76 75 75 76 75 75 75 75 75 74 75 74 75 75 74 74 75 73
73 73 73 73 73 73 73 73 73 73 73 73 72 74 74 74 74 74 74 75 75 75 75 76 76 75 75 75 75 75 75 75 75 75 74 73 74 74 73 73 73 72
74 73 74 74 73 73 72 72 72 72 73 72 71 73 73 73 73 74 74 74 75 75 75 75 75 75 74 75 75 75 74 76 75 75 74 74 73 74 74 74 73 72
74 73 73 73 72 72 72 72 72 72 72 72 72 71 72 73 72 73 73 73 74 74 74 74 75 74 75 75 75 74 74 75 75 74 74 74 75 75 74 74 74 73
73 73 72 72 72 71 71 71 71 72 71 72 71 71 71 71 71 72 72 73 73 73 73 74 74 74 75 75 74 74 74 75 74 74 73 73 73 73 74 74 74 73
72 73 72 71 71 70 70 70 70 70 71 70 71 70 71 70 71 70 72 72 72 72 72 73 74 74 74 75 74 74 74 74 74 74 73 73 73 74 74 74 74 73
71 72 71 71 70 70 70 69 69 69 70 69 69 70 70 71 71 71 71 71 71 72 72 72 73 73 74 74 74 74 74 74 74 74 74 74 74 73 73 73 72 72
71 71 71 70 70 69 69 69 68 68 68 68 68 68 69 70 71 71 71 71 71 71 72 72 72 73 73 74 74 74 74 74 74 74 74 73 73 73 76 73 72 72
70 70 70 70 70 69 68 68 67 67 67 68 68 67 68 68 69 70 70 71 71 71 71 72 72 72 73 74 73 73 73 74 74 74 74 74 73 73 71 70 70 71
70 70 70 69 70 70 70 69 67 65 64 65 66 66 66 66 68 69 70 70 71 71 72 72 72 72 73 74 74 73 73 74 74 74 74 74 71 71 70 71 71 71
69 69 70 70 70 70 70 70 69 69 70 71 73 72 68 65 66 68 68 69 71 71 71 72 73 73 74 74 74 73 73 73 73 72 72 71 71 72 72 71 71 71
70 71 71 72 72 70 70 70 70 71 72 74 74 73 73 73 71 66 67 68 70 71 71 72 73 74 74 73 73 73 73 73 73 73 72 71 70 71 71 71 71 71
70 70 70 70 71 71 72 72 69 73 74 74 74 74 74 74 72 71 67 67 69 72 71 70 70 72 73 72 73 73 72 73 73 73 72 72 72 71 70 71 72 72
70 70 70 70 70 70 70 72 73 74 74 73 74 74 73 73 72 69 68 68 68 70 69 69 69 68 69 66 68 71 74 73 73 72 72 72 72 71 70 71 71 71
69 70 69 69 70 70 70 71 72 73 73 73 73 73 72 72 72 70 69 69 68 69 68 68 67 66 63 65 66 67 72 74 73 73 73 73 72 72 71 70 70 69
68 70 69 69 70 71 70 70 71 72 72 72 71 72 74 71 71 70 69 70 69 68 68 67 65 63 62 64 65 65 67 76 74 73 72 72 72 71 70 70 70 70
69 69 69 69 70 71 72 71 72 72 72 72 72 72 71 72 72 71 70 70 71 69 68 66 64 62 61 61 62 64 66 71 73 72 71 71 70 70 70 70 70 70
70 70 70 70 70 70 70 70 70 70 71 71 71 71 70 71 72 72 71 72 71 69 66 63 61 59 59 60 60 61 64 73 73 73 71 71 71 72 71 72 71 72
69 68 68 68 69 69 69 69 69 69 69 71 70 70 70 70 71 71 71 70 71 68 66 64 64 57 57 58 58 59 62 73 74 73 72 72 72 73 72 71 71 71
68 68 68 68 68 68 68 68 68 68 69 70 68 68 68 69 70 72 72 71 71 69 65 63 63 58 55 55 56 57 63 74 73 73 72 72 72 73 72 72 72 72
67 67 67 68 67 67 68 68 69 69 69 69 67 68 68 68 69 71 71 70 70 67 64 62 61 58 54 54 55 56 62 70 73 72 72 72 72 72 70 69 73 75
65 66 66 67 67 67 67 67 68 69 70 69 69 69 68 68 70 70 70 69 70 67 66 62 61 61 55 54 54 56 65 69 72 71 71 71 71 71 68 65 66 69
63 65 65 65 65 66 67 67 68 68 67 67 66 67 67 67 68 69 69 68 65 63 62 61 60 60 58 54 54 55 59 68 70 71 72 71 71 71 67 63 62 62

ECMWFNIL_sfc_dewp_111.txt.gz
Dewpoint
73 73 72 73 72 73 72 72 73 72 73 73 73 73 73 73 75 74 74 74 75 75 74 75 76 76 77 76 76 76 76 75 75 75 74 74 73 73 72 71 71 69
73 74 74 73 73 75 74 73 73 73 73 73 73 73 73 73 74 75 74 74 75 75 75 76 75 75 74 75 75 74 73 75 73 77 74 73 73 73 74 72 72 71
73 74 74 73 73 74 74 74 74 74 73 74 73 72 72 74 73 75 74 74 75 75 75 75 75 75 75 74 74 74 73 73 73 74 74 73 74 74 73 73 73 72
73 74 73 73 73 74 74 74 73 74 74 74 74 73 73 73 73 73 74 77 74 75 75 75 75 75 74 74 74 73 74 73 74 73 73 73 74 74 74 73 75 73
73 74 73 73 73 74 74 74 73 73 74 74 74 74 74 74 74 73 74 74 75 74 74 75 75 75 75 74 74 73 74 74 74 74 73 73 73 74 73 73 72 72
73 74 74 73 73 73 73 73 73 73 73 73 73 74 74 73 74 73 73 73 74 75 75 75 75 75 75 74 74 74 74 74 74 74 73 73 73 73 74 74 72 72
73 73 73 73 73 73 73 73 73 74 73 73 73 72 73 73 73 73 73 73 73 74 74 74 75 75 75 74 73 74 74 73 73 73 73 73 73 74 74 73 73 72
73 73 73 73 73 72 72 72 72 72 72 73 72 72 72 72 72 72 73 73 73 73 74 74 74 74 74 74 74 74 74 74 74 73 72 73 72 72 73 73 73 72
73 73 73 73 72 72 72 71 71 72 72 71 72 71 72 71 71 72 72 73 73 73 73 73 73 74 74 74 74 73 73 73 74 73 73 72 72 72 73 73 73 72
72 73 73 72 72 72 71 71 71 71 72 71 71 71 71 71 71 71 71 72 72 73 72 72 73 73 74 74 74 74 73 73 73 73 73 73 73 73 73 73 72 71
72 72 72 72 72 71 71 71 70 70 70 70 70 70 70 70 71 71 71 71 71 71 72 72 72 72 73 73 74 74 74 73 73 73 73 73 73 73 75 73 72 72
71 71 72 72 72 71 71 70 70 69 69 69 69 69 69 70 70 70 71 70 70 70 71 71 72 72 72 73 73 73 73 73 73 73 73 73 73 73 71 72 71 71
71 71 71 71 72 71 71 70 70 69 68 68 69 68 68 68 69 70 71 70 70 70 70 71 71 72 72 72 72 73 73 73 73 73 73 73 72 72 71 70 70 71
71 71 71 71 71 71 70 70 69 68 68 67 68 67 67 67 67 68 69 70 70 70 70 71 71 71 72 72 72 72 73 73 73 73 73 72 72 71 71 71 70 70
69 70 70 70 71 70 70 70 69 69 69 71 72 70 70 68 66 66 68 69 69 70 70 71 71 71 72 72 72 73 73 73 73 73 72 71 71 71 71 71 71 71
69 70 69 70 70 70 70 70 69 70 71 73 72 73 73 73 71 70 67 67 68 69 70 71 71 72 74 75 75 73 73 73 73 73 72 71 71 70 70 71 71 71
70 69 70 69 69 69 69 71 71 70 72 72 72 73 72 72 69 68 68 67 66 67 70 71 71 72 73 70 71 74 74 72 72 73 73 72 71 70 70 70 71 71
69 69 69 69 70 70 69 69 71 71 71 71 72 72 71 72 70 68 69 69 69 69 70 70 70 66 64 65 66 67 71 73 72 71 72 72 72 71 70 70 70 70
69 69 69 69 69 70 70 70 70 71 70 70 71 72 71 70 70 69 69 70 69 68 68 68 66 64 62 63 64 64 66 71 73 72 72 72 72 71 71 71 70 70
69 69 69 69 69 69 70 70 70 71 71 71 71 70 70 71 71 70 70 69 69 68 67 66 65 63 61 61 62 63 65 68 71 73 73 72 72 71 71 71 70 70
70 69 69 69 69 69 69 69 69 69 70 70 70 70 70 70 71 70 70 71 69 67 66 64 63 59 59 60 59 61 63 70 71 73 72 72 72 71 71 70 70 70
68 68 68 68 68 68 68 68 67 68 69 69 69 69 70 70 71 71 71 70 69 67 66 64 64 58 58 58 58 59 63 69 72 72 71 71 71 71 71 71 71 71
68 68 68 67 67 67 67 67 67 67 68 69 67 67 68 68 69 70 70 70 70 68 65 64 63 59 56 56 56 57 62 68 72 73 72 71 71 72 72 72 72 72
66 67 67 67 67 67 67 68 68 68 68 69 67 67 67 68 70 70 71 70 71 68 66 63 62 61 55 54 55 56 61 65 70 71 71 71 72 72 71 71 73 75
65 65 65 66 66 66 67 67 68 68 68 68 68 68 68 68 69 69 69 69 69 67 67 62 61 61 55 54 54 55 61 64 68 70 70 70 71 70 69 68 70 73
64 65 65 65 65 66 68 67 67 66 66 67 67 67 67 67 68 68 64 62 63 62 61 61 61 60 58 53 53 54 56 63 66 70 69 68 70 70 66 66 64 62

ECMWFNIL_sfc_dewp_114.txt.gz
Dewpoint
72 72 72 73 72 72 72 72 72 72 73 73 73 73 74 75 76 76 75 76 76 76 75 75 77 77 78 77 78 77 77 76 77 76 76 76 75 74 73 74 73 73
72 74 74 73 73 74 73 73 73 73 73 73 74 74 74 75 74 76 75 75 76 76 76 76 77 77 77 77 77 76 75 77 76 77 76 76 75 75 75 74 74 74
72 74 74 73 72 73 73 74 73 73 73 73 74 74 74 75 74 75 75 75 75 75 76 76 77 77 76 76 76 76 76 75 75 74 76 75 76 76 76 74 74 74
73 73 73 73 73 73 74 74 74 74 74 74 74 74 74 73 74 74 75 77 75 75 75 76 76 76 76 76 76 76 75 75 75 75 76 76 76 75 75 75 76 75
72 73 74 74 74 74 75 75 74 74 74 74 74 75 75 75 74 74 74 75 76 75 75 76 76 76 76 76 76 75 75 75 76 76 76 76 76 76 75 75 75 74
73 73 74 74 74 74 74 74 74 74 74 74 74 75 75 74 74 74 74 74 74 75 75 75 75 75 76 76 76 76 75 75 75 76 76 75 75 75 74 75 75 74
73 73 73 74 73 73 74 74 74 75 73 74 75 74 74 74 74 74 74 74 74 75 75 75 76 76 76 76 76 75 75 75 75 75 75 75 76 75 75 75 76 75
73 73 73 74 73 73 73 73 73 74 74 74 73 74 74 73 74 73 74 74 73 74 75 75 76 76 75 75 75 75 75 74 74 75 75 75 75 74 74 74 75 75
73 73 73 73 73 73 72 72 72 73 74 73 73 73 73 73 73 73 74 74 74 74 74 74 75 75 75 75 75 75 75 74 74 75 75 74 74 74 74 74 74 75
73 73 73 73 73 73 72 72 72 72 73 72 72 72 72 73 73 72 73 74 74 74 74 74 74 74 74 75 75 75 75 75 75 75 75 74 74 74 74 74 74 74
73 73 73 73 73 73 72 72 72 72 72 72 72 71 72 72 73 73 73 73 72 73 74 74 74 74 74 74 74 75 75 74 75 75 74 75 75 75 75 75 75 74
73 72 73 73 73 73 73 72 72 71 71 71 72 71 72 71 72 72 72 72 72 73 73 73 74 74 74 74 73 74 74 74 75 75 74 74 74 74 74 75 74 74
72 72 72 73 73 73 73 73 72 71 70 70 71 71 71 70 70 72 73 72 72 72 71 72 73 72 73 74 74 74 74 74 74 74 74 75 75 75 74 74 73 73
72 72 73 73 73 73 73 73 72 71 71 71 71 70 70 69 69 69 70 72 72 72 72 72 72 72 73 73 73 73 73 74 74 73 73 74 75 75 74 73 73 72
72 72 72 72 73 73 72 72 72 71 71 71 71 70 69 69 69 69 69 70 71 71 72 72 71 72 72 73 73 73 73 73 73 73 74 74 74 74 73 73 74 72
71 72 72 72 72 72 72 72 71 71 71 70 70 70 70 70 70 69 68 68 69 70 71 71 71 72 73 74 74 73 73 73 73 74 74 74 74 74 72 72 72 73
71 71 71 71 71 71 72 72 72 71 71 71 72 72 73 73 72 70 69 68 68 68 69 69 70 70 71 69 70 73 74 74 74 74 75 74 74 74 73 73 72 72
71 70 70 70 71 71 71 72 72 72 71 71 72 72 73 73 71 70 71 70 69 68 68 69 70 66 65 65 67 67 71 74 74 73 73 74 74 73 73 72 72 72
70 70 70 70 71 71 71 72 73 73 72 72 72 73 73 72 71 70 71 71 71 71 70 70 67 63 62 63 64 64 65 71 71 73 72 72 73 73 73 73 73 73
69 70 70 70 70 71 71 71 72 72 72 71 70 68 69 69 70 70 71 71 70 70 69 68 66 61 60 61 61 62 64 67 70 71 72 72 73 73 72 73 73 72
69 70 70 70 70 70 71 70 70 70 69 69 69 69 69 69 69 70 71 71 70 69 69 65 62 59 59 59 59 60 62 68 70 72 73 73 73 73 73 73 73 72
69 69 69 69 69 69 69 68 67 68 68 69 69 69 70 70 70 70 70 70 70 69 69 67 63 58 58 58 59 59 64 67 69 71 72 73 73 73 73 73 73 73
67 67 68 68 68 68 68 68 68 68 68 69 68 68 69 69 70 70 70 70 70 70 69 67 63 58 56 56 57 59 65 66 67 69 71 72 72 73 73 73 73 72
67 67 67 67 67 67 67 67 68 68 68 69 67 67 68 69 69 70 71 70 71 69 68 65 63 59 54 54 55 57 64 67 67 68 68 70 71 72 73 73 73 74
66 66 67 67 67 67 68 68 68 68 68 68 68 68 67 68 70 70 68 66 67 67 67 63 62 60 54 53 54 55 62 66 67 67 68 69 70 71 72 71 71 73
66 66 66 67 67 67 67 67 67 67 67 67 67 67 67 66 65 64 63 63 63 63 62 61 60 59 57 52 52 54 57 65 66 67 66 66 67 69 70 71 70 70

ECMWFNIL_sfc_dewp_117.txt.gz
Dewpoint
74 74 73 73 73 73 73 73 71 72 74 72 71 72 73 74 76 76 76 76 77 76 76 77 77 77 75 77 78 77 77 76 76 75 75 75 73 72 70 72 73 72
74 75 75 74 75 76 75 74 74 73 74 75 74 74 75 76 75 76 76 76 76 76 77 76 76 76 76 75 77 76 76 76 76 74 75 75 74 73 72 73 72 74
73 74 73 73 71 72 70 73 74 74 73 72 74 76 74 75 75 77 77 76 75 74 76 77 76 77 76 76 77 76 75 76 75 74 76 75 74 73 73 71 71 72
74 73 71 71 71 71 71 73 74 75 74 74 74 73 74 72 75 75 77 77 76 76 75 75 75 75 76 76 77 76 75 76 74 76 75 76 75 74 73 73 72 72
73 73 73 72 72 73 73 73 71 72 73 73 73 75 76 76 76 74 75 75 77 75 76 76 76 75 77 77 77 76 75 74 74 76 76 75 75 75 72 73 74 72
74 75 75 74 74 74 72 72 73 72 73 71 73 73 73 75 74 73 73 73 72 72 72 73 74 74 74 76 76 76 74 73 74 76 76 76 74 73 71 73 74 73
72 74 73 73 73 73 73 73 73 74 72 72 74 73 74 73 74 75 75 74 73 74 72 74 76 75 75 76 77 77 76 76 76 76 76 74 76 74 73 74 75 75
73 73 73 74 72 72 73 72 73 74 74 74 73 74 75 73 75 73 74 74 74 74 75 74 76 77 74 75 75 75 75 73 74 76 76 75 75 75 75 73 75 76
74 74 73 73 72 71 71 70 71 72 74 73 72 72 74 74 73 73 75 76 75 75 76 75 76 75 75 75 75 75 75 74 73 75 75 74 74 74 73 74 74 75
74 74 72 72 71 71 71 70 70 71 73 72 72 71 71 74 74 73 75 77 75 76 76 76 75 75 74 74 75 75 75 75 75 75 75 74 74 74 73 74 74 75
74 74 73 74 74 73 71 70 70 70 72 72 71 71 71 72 74 75 75 76 73 74 75 76 75 75 75 73 74 74 75 74 74 75 75 75 75 75 75 75 75 74
73 73 73 74 75 74 74 71 70 71 71 71 71 71 72 71 72 73 73 75 75 74 74 75 75 75 76 75 73 73 74 74 74 75 74 75 75 74 74 74 74 74
73 73 73 73 75 75 75 74 72 71 70 70 71 71 71 70 70 72 74 74 75 74 73 74 75 74 76 76 74 74 74 74 73 74 74 74 74 73 73 73 73 73
74 74 75 75 76 76 76 75 73 71 71 71 72 71 70 70 70 70 71 72 72 73 73 74 74 74 75 75 75 74 73 73 74 73 72 72 74 75 73 73 75 73
76 76 76 76 77 76 76 76 76 74 73 73 73 72 69 70 70 69 70 71 71 72 73 72 71 72 72 73 74 74 74 72 73 73 72 73 73 72 73 75 76 74
76 76 76 76 76 76 76 76 75 75 73 74 73 73 73 74 73 72 71 70 69 71 71 70 69 70 74 76 75 73 73 72 72 74 74 74 74 74 72 73 73 75
76 76 76 76 76 76 76 76 76 75 75 75 75 74 74 75 74 72 71 69 68 68 68 68 68 69 67 67 68 71 73 73 74 75 75 75 74 75 75 72 72 73
74 74 75 75 76 76 76 76 75 75 75 75 74 74 75 73 72 72 72 70 69 69 68 68 68 64 63 64 65 66 69 73 73 73 73 74 74 74 73 73 73 72
72 73 74 74 75 75 75 75 75 75 74 74 72 73 73 73 73 73 72 72 71 72 71 70 67 62 62 63 63 64 65 70 71 73 73 73 73 74 74 75 75 74
71 71 70 71 72 71 71 73 73 73 73 73 73 73 73 71 71 74 74 74 73 73 73 69 66 61 60 61 61 62 64 68 73 73 72 71 72 72 72 73 73 74
69 70 69 70 70 70 71 70 70 71 71 71 72 73 74 74 75 74 75 74 73 72 71 66 62 58 59 60 60 61 64 70 72 73 72 73 73 73 74 73 74 73
70 69 70 70 69 69 69 68 69 70 69 70 71 72 72 72 72 73 73 74 73 73 72 69 63 56 57 57 58 60 64 70 71 72 71 71 72 73 74 74 74 74
69 69 69 69 69 68 68 68 69 69 70 70 70 70 71 72 72 72 73 72 72 72 71 70 66 58 55 55 56 58 66 70 71 71 71 72 72 72 73 73 73 74
69 69 69 69 68 68 69 69 69 69 70 70 71 70 70 70 71 72 71 71 71 70 70 67 64 58 54 54 55 56 63 69 70 71 71 71 71 72 72 73 73 73
68 68 68 68 68 69 69 68 68 69 69 70 70 69 68 69 70 69 67 68 67 67 66 65 64 60 54 53 53 54 62 68 68 69 69 69 68 68 69 70 71 71
68 68 68 67 68 68 68 68 69 69 69 69 68 68 67 67 67 66 65 65 64 64 64 63 62 60 57 52 51 52 55 65 66 65 64 65 66 67 67 68 69 68

ECMWFNIL_sfc_dewp_120.txt.gz
Dewpoint
71 71 71 71 71 71 72 72 70 70 73 70 69 71 71 73 73 73 74 75 75 75 76 77 77 76 73 76 78 77 76 76 75 73 74 74 72 71 67 69 71 70
72 72 72 72 72 73 73 72 73 72 73 74 73 72 74 74 73 74 75 75 75 74 77 76 76 76 75 75 77 76 76 76 75 71 73 75 74 72 70 71 71 72
72 72 71 71 69 71 69 71 73 72 71 71 72 74 71 73 73 75 75 75 74 72 75 77 76 76 75 76 77 75 74 77 76 72 74 75 73 73 73 69 68 70
72 72 70 69 69 69 70 72 72 72 72 71 71 71 71 70 72 73 75 75 75 75 75 75 75 74 75 75 77 75 75 76 74 76 75 75 74 72 72 72 70 69
71 71 70 70 70 72 72 71 70 70 70 72 71 73 74 74 74 72 74 74 76 75 75 75 75 74 75 76 77 75 74 73 74 76 75 75 75 73 71 71 72 70
71 72 72 70 72 73 70 70 70 69 70 69 70 71 72 72 72 72 72 72 71 71 71 72 73 72 72 74 76 75 73 71 72 76 75 75 74 73 69 71 73 73
69 70 69 69 69 70 71 71 71 71 69 70 71 71 72 71 72 73 73 72 71 72 71 73 75 74 73 74 75 76 76 75 75 76 76 73 75 75 73 72 73 75
70 69 69 69 68 69 70 69 70 71 72 72 70 72 72 71 72 71 72 72 72 72 74 72 75 76 73 73 74 75 74 71 71 76 77 74 73 74 74 71 72 74
70 69 69 68 68 68 67 66 68 69 71 71 70 69 72 71 71 70 72 74 73 73 75 74 75 74 74 74 74 75 75 73 70 72 74 73 73 74 73 74 72 73
71 70 68 68 67 68 68 67 66 68 70 70 69 68 68 71 71 71 73 75 74 75 75 76 75 74 73 73 74 74 74 75 75 75 74 73 73 73 72 72 72 72
70 70 69 70 70 69 68 67 66 66 69 69 69 68 69 70 72 72 74 76 72 73 74 75 74 74 74 72 72 73 74 73 74 75 75 75 74 74 74 74 73 72
70 69 70 70 71 71 70 68 67 66 67 69 69 69 70 69 71 71 72 74 74 73 73 74 75 75 75 74 71 71 71 72 73 74 73 74 73 72 73 73 72 73
70 70 70 70 72 72 72 70 68 67 67 67 69 69 69 68 68 71 72 72 74 73 71 72 73 72 75 75 73 73 72 72 71 72 72 72 72 71 71 71 71 71
72 72 73 73 73 74 74 72 69 68 69 69 70 70 68 68 68 68 70 71 71 72 72 73 73 73 74 75 74 73 71 70 71 71 70 70 71 72 71 71 72 71
76 75 75 76 76 76 75 74 72 70 70 71 71 70 67 68 68 67 68 69 69 70 71 70 68 68 69 71 72 72 74 71 72 71 70 71 70 69 69 71 73 71
77 77 77 77 77 77 77 75 73 71 70 71 71 71 71 71 71 71 69 68 69 70 70 68 67 70 73 73 74 73 71 70 71 73 73 72 73 72 69 69 68 71
77 77 77 77 77 77 77 76 75 74 73 73 73 72 72 74 72 71 70 68 68 68 68 66 67 67 67 66 68 70 72 72 72 73 75 75 74 74 73 71 69 68
76 76 76 74 72 72 74 77 77 76 76 76 74 72 75 73 72 73 74 71 69 68 68 66 67 64 63 65 66 66 70 73 70 69 69 71 71 72 72 71 69 68
76 76 75 74 74 73 71 73 76 77 76 75 74 74 75 75 75 73 72 71 71 72 69 69 66 62 62 63 64 64 66 71 70 71 70 69 69 71 72 74 75 74
75 75 73 74 74 73 73 74 75 75 75 73 73 75 75 75 74 73 74 74 74 74 74 69 66 61 61 61 62 63 65 68 73 74 72 71 72 72 71 72 73 74
74 74 73 72 72 73 73 73 73 75 75 75 74 75 74 74 74 74 75 75 75 73 72 64 62 58 59 59 59 60 63 69 73 73 73 72 73 73 74 73 75 74
72 72 72 72 72 71 71 71 72 72 74 73 73 74 74 74 73 74 75 75 74 73 73 67 61 56 57 57 58 59 61 70 72 73 73 72 73 73 72 73 74 75
71 71 70 71 71 70 69 70 70 71 72 74 73 73 74 74 73 74 74 74 74 74 73 70 65 57 55 55 55 57 64 70 72 72 72 73 73 73 73 73 73 74
70 70 69 70 70 70 69 70 71 72 73 74 73 73 73 73 73 73 73 72 72 71 71 68 61 56 53 53 53 54 62 69 71 70 70 71 71 71 72 72 72 72
71 71 70 69 69 70 70 70 70 71 71 72 72 72 71 72 71 70 70 70 69 69 67 67 62 58 53 52 51 52 60 68 68 69 68 68 68 68 69 69 70 69
70 70 70 70 70 69 69 70 70 70 69 69 70 71 71 70 70 68 68 67 67 66 64 63 60 58 57 51 50 51 52 63 60 57 57 58 59 61 64 67 68 68

ECMWFNIL_sfc_dewp_123.txt.gz
Dewpoint
71 71 70 70 71 70 71 71 70 70 71 69 68 70 70 71 71 72 72 74 75 76 76 75 76 75 71 74 78 76 74 74 73 72 72 73 72 70 67 68 69 68
71 72 72 71 71 72 73 72 72 71 72 72 72 71 72 73 70 71 73 74 75 74 76 75 75 75 74 74 77 75 76 76 75 71 72 73 73 71 69 70 69 71
70 70 70 70 68 71 69 70 72 72 70 70 70 72 70 71 73 72 74 74 73 71 74 75 75 76 74 75 76 74 72 75 74 70 73 74 73 71 71 67 67 68
71 70 68 68 69 69 69 70 70 71 71 70 70 69 69 68 71 73 73 74 74 73 74 74 74 73 74 74 77 74 73 75 73 74 74 75 73 71 70 70 69 68
70 71 70 69 68 69 70 69 68 69 68 69 69 71 71 73 73 72 74 74 74 73 73 73 74 73 74 75 77 75 73 73 73 75 74 72 73 72 69 69 70 68
71 72 71 70 70 70 68 69 69 68 68 66 69 69 71 71 72 71 71 72 71 69 70 71 72 71 72 73 74 74 73 70 70 75 75 74 72 71 68 69 72 72
67 69 68 68 68 69 69 70 69 70 68 68 70 69 70 71 71 71 72 71 70 72 69 70 72 72 71 73 74 76 74 73 73 74 76 73 73 72 71 72 73 72
68 67 68 68 67 68 69 69 69 69 69 69 68 70 70 70 71 70 71 71 70 70 71 70 73 75 72 72 72 73 74 71 71 72 73 73 72 72 72 70 71 71
68 68 67 66 65 66 66 66 67 68 69 69 67 68 70 70 70 69 70 71 71 71 72 72 74 73 73 72 72 73 74 71 69 71 73 73 72 74 72 72 72 72
69 69 67 66 64 64 65 66 65 66 68 68 67 66 67 69 70 70 70 74 72 73 75 74 73 73 72 72 72 72 73 73 73 72 72 71 71 71 70 71 71 72
69 68 67 68 68 65 65 65 65 65 67 67 67 66 66 67 69 70 71 73 71 72 73 73 72 72 73 71 71 71 72 71 73 73 72 73 73 73 73 72 72 71
68 68 67 67 68 68 67 65 65 65 65 66 67 67 67 65 67 68 69 72 73 72 72 73 73 73 73 73 72 71 70 70 72 73 73 73 73 74 74 73 72 73
68 67 68 67 70 71 70 69 66 65 64 64 66 67 67 66 65 68 69 69 71 71 70 72 72 71 74 75 72 70 73 72 72 74 74 74 73 73 72 73 72 71
70 69 71 72 71 72 72 70 68 67 66 66 66 67 66 67 66 65 67 68 69 69 70 72 72 71 75 74 75 74 72 72 74 74 74 73 74 72 71 71 72 71
73 72 72 73 73 74 74 74 71 68 68 68 68 67 65 67 66 65 65 66 67 71 72 70 68 71 72 71 74 74 74 72 73 71 72 72 71 69 71 72 73 70
75 74 74 75 76 74 74 76 74 71 68 70 69 69 70 70 69 68 66 65 67 70 69 68 69 71 75 73 75 74 73 71 71 73 73 72 71 70 68 68 69 73
76 76 76 77 74 73 73 74 75 75 73 71 70 71 71 73 70 69 67 66 65 66 66 67 68 67 68 66 68 71 72 70 70 72 73 74 75 74 73 70 71 71
78 79 79 77 76 75 74 74 75 75 76 76 74 72 73 72 70 70 71 69 69 69 71 69 67 64 63 65 66 66 69 72 68 67 66 69 72 71 71 72 71 69
78 78 78 78 77 77 76 76 75 75 75 76 74 73 71 72 73 72 71 71 71 72 72 69 66 63 62 63 64 64 65 70 69 70 69 72 69 69 69 70 71 74
77 78 77 76 77 76 76 76 76 76 76 75 73 74 73 74 74 72 74 74 73 73 72 68 65 61 60 61 61 62 64 68 72 72 71 70 71 70 70 71 74 74
77 76 76 76 76 75 75 76 76 76 75 75 74 75 75 75 75 74 74 74 74 72 70 64 59 57 59 59 58 59 61 68 72 73 71 71 72 72 72 73 74 74
77 76 74 74 74 74 74 74 75 75 75 74 74 76 75 76 74 75 75 74 74 71 68 63 56 55 56 56 56 57 60 68 72 73 73 72 72 72 73 74 74 74
75 74 73 73 74 72 74 74 75 74 73 72 75 75 75 74 75 74 72 71 71 70 68 62 57 55 53 52 53 54 62 69 72 72 72 72 73 73 73 73 73 74
73 72 72 72 72 72 72 73 73 73 74 74 74 73 74 74 74 72 71 71 70 68 65 59 52 53 51 51 50 51 58 69 70 70 70 71 70 70 70 71 71 74
71 71 71 71 71 72 72 73 72 72 73 74 73 71 72 73 71 69 69 70 70 68 65 61 56 55 52 50 49 49 59 65 63 63 62 60 61 62 64 66 69 71
71 71 71 71 71 71 72 72 73 74 72 71 71 71 71 71 70 70 69 69 68 66 64 60 56 54 55 51 49 49 50 63 58 55 53 53 54 57 58 60 62 66

ECMWFNIL_sfc_dewp_129.txt.gz
Dewpoint
72 74 73 73 74 73 73 73 73 73 73 73 72 73 72 72 73 73 73 74 76 75 76 78 77 76 76 77 78 76 76 76 77 74 75 76 75 73 71 71 71 70
72 73 74 73 74 75 74 72 72 71 73 73 72 72 72 74 72 73 74 74 76 75 76 76 77 77 76 75 75 76 76 76 75 75 74 75 74 73 72 71 70 70
71 72 72 72 72 72 73 72 71 72 72 73 72 74 72 74 72 72 74 73 75 74 75 75 76 76 76 76 77 76 76 76 76 74 75 77 77 75 74 71 70 69
71 71 71 71 71 71 70 71 71 73 72 72 71 72 72 70 70 72 73 76 74 74 76 76 75 75 75 75 77 76 76 76 76 76 75 76 77 75 73 72 70 69
70 70 69 69 69 70 70 70 70 71 71 71 71 72 72 73 71 70 73 74 75 75 75 75 75 76 76 75 76 75 75 76 76 76 75 74 75 75 72 72 73 72
70 70 70 69 69 69 69 69 69 69 69 69 70 71 71 71 71 71 71 72 73 73 73 74 75 74 75 76 76 76 75 74 74 75 76 76 76 75 73 72 73 74
69 69 69 69 69 69 69 68 69 70 69 68 69 69 70 70 70 71 71 72 72 72 71 73 74 73 73 74 75 75 75 75 75 75 76 76 76 75 75 73 74 73
69 69 69 69 68 68 69 68 68 69 71 69 68 69 69 70 70 72 72 72 72 71 71 73 72 73 74 74 74 75 75 75 75 73 72 73 74 74 74 73 74 72
69 69 69 68 67 67 67 67 68 69 70 70 69 67 69 69 70 70 71 71 71 72 72 72 73 73 73 74 74 75 74 72 73 74 73 73 73 74 74 74 73 74
69 69 68 68 67 67 67 67 67 68 70 69 68 67 67 70 70 70 71 72 72 73 72 72 72 72 73 73 74 74 74 74 73 73 74 74 74 74 74 74 73 73
69 69 68 68 68 68 66 67 67 66 68 68 67 66 67 69 71 71 72 73 71 72 74 73 73 73 73 72 74 75 74 74 74 74 74 74 74 74 76 74 74 73
68 68 68 68 68 67 66 66 66 65 66 67 67 67 70 68 71 70 71 72 71 72 73 74 75 74 74 74 74 74 74 73 75 74 74 75 75 75 75 75 74 74
66 66 67 67 68 68 67 67 64 64 66 67 67 67 67 66 67 69 72 71 72 73 72 74 74 73 75 75 74 74 73 74 74 73 74 75 74 74 74 74 74 73
67 67 68 68 68 70 71 70 70 65 66 66 68 67 68 66 67 69 72 71 73 72 73 75 73 74 75 75 76 74 73 74 74 73 74 74 74 74 74 73 73 72
70 70 71 71 74 70 71 72 72 71 67 68 70 68 67 68 69 70 70 71 71 72 73 72 73 73 73 74 75 75 75 74 74 74 74 74 74 73 73 73 73 73
71 73 73 74 77 77 73 73 72 72 72 72 71 71 71 69 71 70 70 71 72 72 72 72 69 69 71 72 73 74 73 73 75 74 73 73 74 74 73 73 72 72
74 73 72 75 76 76 76 75 75 75 75 75 74 74 74 70 69 71 71 70 71 71 71 69 66 65 65 65 66 69 71 71 71 72 73 72 73 73 74 71 72 73
74 74 74 75 76 75 75 76 76 75 75 75 74 74 72 69 70 71 71 71 70 71 69 66 63 63 62 63 65 66 69 71 71 72 71 71 73 72 72 73 74 74
68 70 74 75 75 76 76 75 75 75 75 75 74 73 72 71 71 71 71 71 71 69 66 63 59 60 60 62 62 63 66 70 72 73 72 71 71 71 71 73 73 74
69 70 72 75 75 75 75 75 75 74 75 75 75 74 72 71 71 71 71 71 70 65 61 56 54 57 58 59 60 61 63 68 71 73 72 71 71 70 70 70 71 73
70 71 71 73 73 73 73 74 75 74 75 75 75 74 71 71 70 71 72 71 66 60 53 47 50 56 56 58 58 59 62 69 71 74 73 72 72 72 71 72 72 72
70 71 71 72 72 71 71 71 72 74 74 74 74 73 73 72 71 72 70 65 60 52 49 47 50 54 55 56 57 60 66 70 70 69 68 70 70 72 74 73 73 68
70 70 70 71 70 69 69 70 71 72 71 72 71 72 72 71 71 71 68 63 58 52 49 49 50 53 53 55 58 60 63 62 61 60 61 62 64 66 70 69 68 66
69 69 70 70 68 69 70 70 71 71 71 72 71 71 70 70 70 69 65 60 55 52 50 50 48 51 51 52 55 58 60 57 56 55 56 60 61 63 67 66 64 63
70 69 69 70 70 71 71 71 70 71 71 70 70 70 70 70 71 66 63 60 58 57 57 54 51 53 51 51 52 55 59 56 53 51 53 57 60 61 65 63 62 62
69 69 69 69 68 68 69 69 70 70 70 70 70 69 69 68 66 64 62 60 60 58 58 57 56 55 56 53 52 53 56 55 52 46 51 56 59 60 60 64 60 61